     2              OBSERVATION DATA    GPS                 RINEX VERSION / TYPE
teqc 1997Jul24 19970902 21:03:07UTC                         PGM / RUN BY / DATE
                                                            COMMENT
BIT 2 OF LLI FLAGS DATA COLLECTED UNDER A-S CONDITION       COMMENT
BIT 2 OF LLI FLAGS DATA COLLECTED UNDER A-S CONDITION       COMMENT
Original Marker Name: 55446.BOUC                            COMMENT
Campaign Name: Salt. Tr. Crust. Monit. May-Jun 1986         COMMENT
4-Character Station Name: BOUC                              COMMENT
6-Character Antenna Code: TI4100                            COMMENT
Vertical Measurement Point: PAE                             COMMENT
Vertical Offset to Rinex Ref. Point: 0.0000                 COMMENT
Radial Measurement Point: RRP                               COMMENT
Radial Offset to Rinex Ref. Point: 0.0000                   COMMENT
Antenna Height from Field Measurement: 1.4395 m             COMMENT
Original XYZ: -2414319.1492 -4758883.0136 3481816.3470      COMMENT
New XYZ position is based on association with SCEC monument COMMENT
E1D0C8V9+0011. Position of that monument is believed to be  COMMENT
valid to within 1 m horizontally; vertical accuracy         COMMENT
should be no worse than 3-times this value.                 COMMENT
                                                            COMMENT
Revised Rinex header created by UCSD GPS archive for        COMMENT
GSAC on 12-Apr-1999 (1999:102) 02:24:09 GMT                 COMMENT
For assistance contact dagnew@ucsd.edu or hjohnson@ucsd.edu COMMENT
                                                            COMMENT
BOUCHER 2                                                   MARKER NAME
05 NATIONAL GEODETIC SURVEY                                 OBSERVER / AGENCY
UT-09 TI 4100 1.0                                           REC # / TYPE / VERS
156 TI 4100                                                 ANT # / TYPE
 -2415577.0000 -4757396.0000  3485928.0000                  APPROX POSITION XYZ
        1.4395        0.0000        0.0000                  ANTENNA: DELTA H/E/N
     1     1     0                                          WAVELENGTH FACT L1/2
     4    P1    P2    L1    L2                              # / TYPES OF OBSERV
     6                                                      INTERVAL
  1986     6    19     2    25   11.000000                  TIME OF FIRST OBS
  1986     6    19     3    59   59.000000                  TIME OF LAST OBS
     0                                                      # OF SATELLITES
                                                            END OF HEADER
 86  6 19  2 25 11.0800000  0  4G12G13G 9G11
  21321925.465    21321930.864     6588510.751 9 -15923657.292 6
  20710951.022    20710954.725    29107619.425 9 -42644937.991 3
  20999532.344    20999536.431    59592283.164 8 -95475360.313 5
  24120183.716    24120189.260    90672754.030 4 -82824865.628 2
 86  6 19  2 25 17.0800000  0  4G12G13G 9G11
  21319898.512    21319907.783     6577859.625 9 -15931956.902 4
  20711700.911    20711704.383    29111550.500 8 -42641874.798 5
  21002457.296    21002454.688    59607645.012 8 -95463390.050 2
  24123347.719    24123350.565    90689380.585 5 -82811909.871 1
 86  6 19  2 25 23.0800000  0  4G12G13G 9G11
  21317875.849    21317882.926     6567229.255 9 -15940240.302 6
  20712450.007    20712454.637    29115494.115 8 -42638801.862 6
  21005383.121    21005385.323    59623028.331 7 -95451403.053 5
  24126510.341    24126519.314    90706005.377 4 -82798955.533 3
 86  6 19  2 25 29.0800000  0  4G12G13G 9G11
  21315856.621    21315864.776     6556619.685 9 -15948507.496 8
  20713202.116    20713206.840    29119450.157 9 -42635719.224 8
  21008316.375    21008319.740    59638433.182 8 -95439399.278 6
  24129673.000    24129681.416    90722628.420 5 -82786002.518 6
 86  6 19  2 25 35.0800000  0  4G12G13G 9G11
  21313841.945    21313849.521     6546030.875 8 -15956758.515 8
  20713956.745    20713962.316    29123418.592 8 -42632626.938 8
  21011250.753    21011255.298    59653859.386 8 -95427378.857 6
  24132835.422    24132844.713    90739249.664 3 -82773050.892 5
 86  6 19  2 25 41.0800000  0  4G12G13G 9G11
  21311832.072    21311837.507     6535462.797 9 -15964993.369 7
  20714714.427    20714718.551    29127399.494 8 -42629524.916 7
  21014191.258    21014195.403    59669306.921 8 -95415341.798 6
  24135998.697    24136008.340    90755869.073 3 -82760100.685 5
 86  6 19  2 25 47.0800000  0  4G12G13G 9G11
  21309825.320    21309829.205     6524915.607 9 -15973211.950 5
  20715474.666    20715478.148    29131392.861 8 -42626413.212 4
  21017133.718    21017136.486    59684775.806 9 -95403288.128 2
  24139159.781    24139169.497    90772486.800 3 -82747151.832 1
 86  6 19  2 25 53.0800000  0  4G12G13G 9G11
  21307822.092    21307830.997     6514389.305 9 -15981414.299 4
  20716237.460    20716239.586    29135398.670 9 -42623291.786 3
  21020080.284    21020085.135    59700266.223 8 -95391217.717 3
  24142321.013    24142331.738    90789102.786 3 -82734204.334 2
 86  6 19  2 25 59.0800000  0  4G12G13G 9G11
  21305823.041    21305829.477     6503884.007 9 -15989600.246 6
  20717001.467    20717005.091    29139416.919 8 -42620160.714 6
  21023034.035    21023036.256    59715778.037 8 -95379130.545 5
  24145485.639    24145493.911    90805717.118 3 -82721258.116 6
 86  6 19  2 26  5.0800000  0  4G12G13G 9G11
  21303827.562    21303833.382     6493399.686 8 -15997769.831 6
  20717768.262    20717772.014    29143447.558 8 -42617019.948 6
  21025987.905    21025992.358    59731311.292 8 -95367026.722 4
  24148642.331    24148658.283    90822329.648 2 -82708313.295 4
 86  6 19  2 26 11.0800000  0  4G12G13G 9G11
  21301835.267    21301844.037     6482936.296 9 -16005923.142 8
  20718538.427    20718542.186    29147490.716 9 -42613869.436 8
  21028949.518    21028955.161    59746865.756 7 -95354906.388 7
  24151806.245    24151817.915    90838940.459 3 -82695369.792 6
 86  6 19  2 26 17.0800000  0  4G12G13G 9G11
  21299849.089    21299855.498     6472493.930 8 -16014060.042 3
  20719310.698    20719317.210    29151546.304 9 -42610709.266 3
  21031912.457    21031915.515    59762441.692 8 -95342769.295 4
  24154968.094    24154976.061    90855549.527 3 -82682427.644 2
 86  6 19  2 26 23.0800000  0  4G12G13G 9G11
  21297864.433    21297872.236     6462072.587 8 -16022180.566 5
  20720084.376    20720089.658    29155614.291 8 -42607539.375 5
  21034880.157    21034884.250    59778038.942 7 -95330615.599 3
  24158131.843    24158136.495    90872156.834 3 -82669486.888 2
 86  6 19  2 26 29.0800000  0  4G12G13G 9G11
  21295884.702    21295893.000     6451672.246 9 -16030284.727 7
  20720860.718    20720866.430    29159694.650 9 -42604359.878 9
  21037853.384    21037856.698    59793657.454 8 -95318445.339 7
  24161287.749    24161297.916    90888762.296 3 -82656547.593 6
 86  6 19  2 26 35.0800000  0  4G12G13G 9G11
  21293910.347    21293917.649     6441292.890 9 -16038372.529 8
  20721638.240    20721644.695    29163787.318 8 -42601170.779 7
  21040829.015    21040834.503    59809297.142 7 -95306258.593 6
  24164448.224    24164457.958    90905365.857 4 -82643609.750 6
 86  6 19  2 26 41.0800000  0  4G12G13G 9G11
  21291940.427    21291946.538     6430934.555 9 -16046443.969 7
  20722419.742    20722428.134    29167892.252 9 -42597972.131 7
  21043809.593    21043816.025    59824958.067 8 -95294055.291 7
  24167607.972    24167616.716    90921967.513 3 -82630673.348 6
 86  6 19  2 26 47.0800000  0  4G12G13G 9G11
  21289972.854    21289978.346     6420597.260 9 -16054498.989 3
  20723204.276    20723212.145    29172009.542 8 -42594763.879 5
  21046793.778    21046797.133    59840640.197 8 -95281835.439 2
  24170764.219    24170773.623    90938567.389 3 -82617738.401 1
 86  6 19  2 26 53.0800000  0  4G12G13G 9G11
  21288011.123    21288015.443     6410281.157 9 -16062537.531 7
  20723989.298    20723996.574    29176139.162 9 -42591545.969 7
  21049782.256    21049786.986    59856343.516 8 -95269599.095 6
  24173923.294    24173932.628    90955165.403 3 -82604804.885 5
 86  6 19  2 26 59.0800000  0  4G12G13G 9G11
  21286051.564    21286053.420     6399986.203 9 -16070559.582 5
  20724777.994    20724783.952    29180281.175 8 -42588318.448 6
  21052774.021    21052780.487    59872068.202 7 -95257346.129 4
  24177081.487    24177091.536    90971761.728 3 -82591872.694 1
 86  6 19  2 27  5.0800000  0  4G12G13G 9G11
  21284096.385    21284102.480     6389712.512 9 -16078565.070 7
  20725568.566    20725574.469    29184435.625 9 -42585081.211 8
  21055770.101    21055777.403    59887814.186 8 -95245076.535 6
  24180239.727    24180248.798    90988356.294 4 -82578941.835 6
 86  6 19  2 27 11.0800000  0  4G12G13G 9G11
  21282145.094    21282149.938     6379460.146 9 -16086553.915 4
  20726361.638    20726362.302    29188602.407 9 -42581834.366 4
  21058771.124    21058775.229    59903581.424 8 -95232790.373 2
  24183398.215    24183407.774    91004949.142 5 -82566012.343 1
 86  6 19  2 27 17.0800000  0  4G12G13G 9G11
  21280197.608    21280202.682     6369229.099 9 -16094526.168 5
  20727156.747    20727159.868    29192781.513 9 -42578577.924 5
  21061775.497    21061780.629    59919369.930 8 -95220487.605 3
  24186556.020    24186563.067    91021540.278 4 -82553084.211 1
 86  6 19  2 27 23.0800000  0  4G12G13G 9G11
  21278253.906    21278260.600     6359019.344 9 -16102481.814 5
  20727953.245    20727958.402    29196973.002 9 -42575311.825 3
  21064784.044    21064792.714    59935179.620 8 -95208168.387 4
  24189713.917    24189720.710    91038129.625 4 -82540157.449 1
 86  6 19  2 27 29.0800000  0  4G12G13G 9G11
  21276315.038    21276321.673     6348830.868 9 -16110420.874 9
  20728754.399    20728759.601    29201176.741 9 -42572036.198 7
  21067795.739    21067802.515    59951010.546 8 -95195832.620 6
  24192869.310    24192877.722    91054717.229 6 -82527232.025 5
 86  6 19  2 27 35.0800000  0  4G12G13G 9G11
  21274380.179    21274388.118     6338663.766 9 -16118343.278 7
  20729557.026    20729562.192    29205392.826 8 -42568750.937 7
  21070812.237    21070819.191    59966862.718 8 -95183480.283 5
  24196028.305    24196031.464    91071303.019 6 -82514308.033 6
 86  6 19  2 27 41.0800000  0  4G12G13G 9G11
  21272451.212    21272454.876     6328518.061 9 -16126249.004 6
  20730361.865    20730368.448    29209621.154 9 -42565456.128 3
  21073831.528    21073840.467    59982736.045 8 -95171111.464 2
  24199181.512    24199188.881    91087886.930 5 -82501385.460 1
 86  6 19  2 27 47.0800000  0  4G12G13G 9G11
  21270524.706    21270529.052     6318393.760 9 -16134138.089 5
  20731169.839    20731174.231    29213861.762 8 -42562151.751 5
  21076855.976    21076862.672    59998630.525 8 -95158726.149 3
  24202337.927    24202346.632    91104469.148 5 -82488464.311 1
 86  6 19  2 27 53.0800000  0  4G12G13G 9G11
  21268603.298    21268608.730     6308290.861 9 -16142010.466 7
  20731979.037    20731983.499    29218114.670 9 -42558837.799 8
  21079884.936    21079892.026    60014546.215 7 -95146324.321 7
  24205491.272    24205499.542    91121049.560 5 -82475544.494 6
 86  6 19  2 27 59.0800000  0  4G12G13G 9G11
  21266683.292    21266688.645     6298209.418 9 -16149866.140 7
  20732789.607    20732796.301    29222379.802 9 -42555514.328 7
  21082920.036    21082924.899    60030482.979 8 -95133906.057 6
  24208647.673    24208654.525    91137628.134 3 -82462626.116 6
 86  6 19  2 28  5.0800000  0  4G12G13G 9G11
  21264770.032    21264774.156     6288149.342 9 -16157705.161 8
  20733602.683    20733609.893    29226656.973 9 -42552181.471 8
  21085957.609    21085961.567    60046440.774 8 -95121471.411 6
  24211802.664    24211810.299    91154204.768 4 -82449709.265 7
 86  6 19  2 28 11.0800000  0  4G12G13G 9G11
  21262859.011    21262863.599     6278110.440 9 -16165527.673 5
  20734418.374    20734424.344    29230946.185 8 -42548839.201 5
  21088997.490    21089001.271    60062419.440 8 -95109020.512 4
  24214954.689    24214962.590    91170779.412 5 -82436793.925 1
 86  6 19  2 28 17.0800000  0  4G12G13G 9G11
  21260952.768    21260958.768     6268092.794 9 -16173333.626 8
  20735236.817    20735244.985    29235247.424 8 -42545487.603 8
  21092042.132    21092046.510    60078418.890 9 -95096553.393 7
  24218109.241    24218114.721    91187352.017 4 -82423880.271 5
 86  6 19  2 28 23.0800000  0  4G12G13G 9G11
  21259050.419    21259055.615     6258096.403 9 -16181123.031 6
  20736058.107    20736065.150    29239560.725 9 -42542126.602 8
  21095089.694    21095095.502    60094439.262 8 -95084069.977 6
  24221262.148    24221270.363    91203922.508 4 -82410968.207 5
 86  6 19  2 28 29.0800000  0  4G12G13G 9G11
  21257152.136    21257159.041     6248121.273 9 -16188895.863 7
  20736881.850    20736887.565    29243885.899 9 -42538756.339 8
  21098141.863    21098148.168    60110480.487 8 -95071570.331 7
  24224414.746    24224422.584    91220490.940 5 -82398057.756 5
 86  6 19  2 28 35.0800000  0  4G12G13G 9G11
  21255258.455    21255262.035     6238167.482 9 -16196652.087 3
  20737707.490    20737707.933    29248222.989 9 -42535376.773 6
  21101197.088    21101204.793    60126542.401 7 -95059054.551 4
  24227567.650    24227572.837    91237057.295 5 -82385148.919 1
 86  6 19  2 28 41.0800000  0  4G12G13G 9G11
  21253369.037    21253373.487     6228235.048 9 -16204391.637 8
  20738535.750    20738539.799    29252572.062 8 -42531987.903 9
  21104258.956    21104265.803    60142625.120 7 -95046522.584 7
  24230719.298    24230729.029    91253621.555 6 -82372241.722 5
 86  6 19  2 28 47.0800000  0  4G12G13G 9G11
  21251481.715    21251488.705     6218324.116 9 -16212114.449 7
  20739364.539    20739369.114    29256933.212 9 -42528589.587 7
  21107323.770    21107330.718    60158728.635 7 -95033974.393 7
  24233871.229    24233876.758    91270183.853 4 -82359336.040 3
 86  6 19  2 28 53.0800000  0  4G12G13G 9G11
  21249600.308    21249605.668     6208434.740 9 -16219820.458 6
  20740197.490    20740201.715    29261306.428 9 -42525181.891 7
  21110391.926    21110398.449    60174853.055 7 -95021409.908 8
  24237024.852    24237027.642    91286744.182 6 -82346431.906 3
 86  6 19  2 28 59.0800000  0  4G12G13G 9G11
  21247723.087    21247728.354     6198566.973 9 -16227509.626 6
  20741030.571    20741035.743    29265691.707 8 -42521764.785 7
  21113464.479    21113471.405    60190998.295 7 -95008829.219 5
  24240175.114    24240180.818    91303302.628 6 -82333529.211 1
 86  6 19  2 29  5.0800000  0  4G12G13G 9G11
  21245847.983    21245855.678     6188720.849 9 -16235181.929 7
  20741866.334    20741872.013    29270089.026 8 -42518338.291 7
  21116541.507    21116547.051    60207164.457 9 -94996232.200 7
  24243326.584    24243332.085    91319859.174 7 -82320627.995 3
 86  6 19  2 29 11.0800000  0  4G12G13G 9G11
  21243979.142    21243984.719     6178896.417 9 -16242837.319 7
  20742706.213    20742711.025    29274498.450 9 -42514902.403 7
  21119622.001    21119627.431    60223351.604 9 -94983618.836 7
  24246477.705    24246479.059    91336413.844 6 -82307728.259 2
 86  6 19  2 29 17.0800000  0  4G12G13G 9G11
  21242112.767    21242119.100     6169093.669 9 -16250475.838 6
  20743548.714    20743553.751    29278919.838 8 -42511457.136 4
  21122706.363    21122711.970    60239559.665 8 -94970989.150 4
  24249626.700    24249631.214    91352966.645 6 -82294830.030 1
 86  6 19  2 29 23.0800000  0  4G12G13G 9G11
  21240251.398    21240258.204     6159312.662 9 -16258097.402 9
  20744391.578    20744397.212    29283353.355 8 -42508002.462 8
  21125792.595    21125800.399    60255788.580 8 -94958343.291 7
  24252777.433    24252781.299    91369517.497 6 -82281933.238 1
 86  6 19  2 29 29.0800000  0  4G12G13G 9G11
  21238394.408    21238402.432     6149553.365 9 -16265702.041 6
  20745238.416    20745244.356    29287798.931 9 -42504538.368 7
  21128884.377    21128892.358    60272038.410 7 -94945681.094 7
  24255924.323    24255930.926    91386066.451 6 -82269037.976 2
 86  6 19  2 29 35.0800000  0  4G12G13G 9G11
  21236541.680    21236549.272     6139815.793 9 -16273289.763 8
  20746087.103    20746092.433    29292256.577 8 -42501064.874 8
  21131979.747    21131988.741    60288308.989 9 -94933002.728 8
  24259074.639    24259078.624    91402613.439 6 -82256144.245 3
 86  6 19  2 29 41.0800000  0  4G12G13G 9G11
  21234693.019    21234700.199     6130099.915 9 -16280860.585 6
  20746938.953    20746942.525    29296726.268 9 -42497581.996 6
  21135081.459    21135090.694    60304600.290 8 -94920308.201 6
                  24262252.368    -1610992.500 5
 86  6 19  2 29 47.0800000  0  4G12G13G 9G11
  21232849.187    21232855.533     6120405.650 9 -16288414.532 8
  20747791.510    20747795.522    29301207.883 7 -42494089.825 8
  21138186.479    21138192.754    60320912.379 8 -94907597.491 7
                  24265367.661    -1594446.833 5
 86  6 19  2 29 53.0800000  0  4G12G13G 9G11
  21231008.226    21231013.306     6110733.036 9 -16295951.647 7
  20748646.713    20748650.811    29305701.312 9 -42490588.452 8
  21141295.536    21141301.094    60337245.015 8 -94894870.771 7
                  24268516.711    -1577935.788 7
 86  6 19  2 29 59.0800000  0  4G12G13G 9G11
  21229172.524    21229177.095     6101082.081 9 -16303471.869 3
  20749503.189    20749507.340    29310206.473 8 -42487077.916 3
  21144407.413    21144412.684    60353598.313 9 -94882127.923 3
                  24271664.658    -1561401.652 3
 86  6 19  2 30  5.0800000  0  4G12G13G 9G11
  21227340.089    21227344.065     6091452.749 9 -16310975.256 8
  20750361.793    20750367.486    29314723.415 8 -42483558.218 8
  21147523.581    21147528.118    60369972.044 9 -94869369.182 8
                  24274808.594    -1712794.433 5
 86  6 19  2 30 11.0800000  0  4G12G13G 9G11
  21225510.490    21225516.386     6081845.133 9 -16318461.725 6
  20751223.704    20751229.014    29319252.069 8 -42480029.399 7
  21150643.645    21150648.001    60386366.340 8 -94856594.439 7
                  24277959.823    -1696252.209 3
 86  6 19  2 30 17.0800000  0  4G12G13G 9G11
  21223686.321    21223692.301     6072259.168 8 -16325931.319 7
  20752085.985    20752094.290    29323792.465 8 -42476491.443 7
  21153766.297    21153771.228    60402781.106 7 -94843803.699 8
                  24281103.880    -1679718.932 6
 86  6 19  2 30 23.0800000  0  4G12G13G 9G11
  21221866.051    21221873.018     6062694.917 9 -16333383.996 6
  20752952.945    20752959.662    29328344.562 8 -42472944.354 6
  21156894.424    21156898.589    60419216.315 9 -94830997.052 5
                  24284250.379    -1663197.122 5
 86  6 19  2 30 29.0800000  0  4G12G13G 9G11
  21220049.867    21220056.468     6053152.376 8 -16340819.714 6
  20753820.556    20753827.410    29332908.350 8 -42469388.171 6
  21160024.823    21160029.634    60435672.062 9 -94818174.371 6
                  24287393.368    -1646667.012 5
 86  6 19  2 30 35.0800000  0  4G12G13G 9G11
  21218237.349    21218245.133     6043631.624 9 -16348238.506 5
  20754691.832    20754697.294    29337483.832 8 -42465822.817 4
  21163161.348    21163161.480    60452148.366 8 -94805335.716 1
                  24290537.272    -1630143.396 6
 86  6 19  2 30 41.0800000  0  4G12G13G 9G11
  21216431.128    21216438.567     6034132.759 9 -16355640.230 6
  20755564.674    20755572.228    29342071.124 8 -42462248.340 4
  21166299.723    21166304.982    60468645.163 9 -94792481.042 3
                  24293683.960    -1613603.210 6
 86  6 19  2 30 47.0800000  0  4G12G13G 9G11
  21214627.823    21214634.712     6024655.725 9 -16363024.909 8
  20756439.275    20756446.451    29346670.161 8 -42458664.676 8
  21169442.568    21169447.480    60485162.344 8 -94779610.533 6
                  24296828.540    -1597099.091 5
 86  6 19  2 30 53.0800000  0  4G12G13G 9G11
  21212827.413    21212836.134     6015200.578 9 -16370392.556 7
  20757317.874    20757323.625    29351280.853 9 -42455071.923 7
  21172588.460    21172594.300    60501700.033 8 -94766724.029 7
                  24299970.224    -1580560.348 4
 86  6 19  2 30 59.0800000  0  4G12G13G 9G11
  21211031.908    21211037.829     6005767.372 7 -16377743.099 1
  20758197.266    20758202.984    29355903.191 8 -42451470.081 3
  21175740.234    21175745.321    60518258.217 9 -94753821.536 1
                  24303114.078    -1564040.013 5
 86  6 19  2 31  5.0800000  0  4G12G13G 9G11
  21209241.387    21209248.060     5996356.114 7 -16385076.542 6
  20759079.770    20759085.286    29360537.148 8 -42447859.227 7
  21178894.740    21178899.194    60534836.788 8 -94740903.193 7
                  24306258.364    -1547530.286 4
 86  6 19  2 31 11.0800000  0  4G12G13G 9G11
  21207454.744    21207463.697     5986966.857 7 -16392392.856 6
  20759964.183    20759969.652    29365182.794 9 -42444239.247 7
  21182053.080    21182057.990    60551435.830 8 -94727968.884 7
                  24309398.795    -1531013.964 5
 86  6 19  2 31 17.0800000  0  4G12G13G 9G11
  21205671.783    21205681.509     5977599.727 8 -16399691.932 5
  20760849.222    20760855.068    29369840.247 8 -42440610.055 5
  21185215.664    21185219.873    60568055.411 8 -94715018.559 4
                  24312545.175    -1514520.467 3
 86  6 19  2 31 23.0800000  0  3G12G13G 9
  21203894.969    21203900.224     5968254.681 8 -16406973.748 5
  20761737.636    20761744.603    29374509.512 8 -42436971.674 4
  21188383.098    21188388.760    60584695.447 9 -94702052.321 4
 86  6 19  2 31 29.0800000  0  3G12G13G 9
  21202121.997    21202127.067     5958931.789 9 -16414238.355 8
  20762627.493    20762634.291    29379190.517 8 -42433324.131 8
  21191553.608    21191558.003    60601355.922 8 -94689070.135 6
 86  6 19  2 31 35.0800000  0  3G12G13G 9
  21200351.406    21200358.539     5949630.999 9 -16421485.731 8
  20763521.144    20763526.783    29383883.230 9 -42429667.476 8
  21194728.097    21194733.587    60618036.829 8 -94676072.030 6
 86  6 19  2 31 41.0800000  0  3G12G13G 9
  21198585.710    21198592.081     5940352.333 9 -16428715.861 7
  20764416.479    20764421.986    29388587.612 8 -42426001.729 8
  21197905.995    21197910.315    60634738.101 8 -94663058.058 8
 86  6 19  2 31 47.0800000  0  3G12G13G 9
  21196824.192    21196829.185     5931095.694 8 -16435928.826 4
  20765314.434    20765319.422    29393303.566 8 -42422326.949 5
  21201088.521    21201091.244    60651459.618 8 -94650028.311 2
 86  6 19  2 31 53.0800000  0  3G12G13G 9
  21195067.022    21195073.124     5921861.209 9 -16443124.518 5
  20766214.964    20766217.112    29398031.127 9 -42418643.117 4
  21204272.992    21204277.663    60668201.531 7 -94636982.671 2
 86  6 19  2 31 59.0800000  0  3G12G13G 9
  21193313.683    21193320.086     5912648.898 9 -16450302.960 8
  20767117.480    20767120.681    29402770.336 8 -42414950.245 8
  21207462.725    21207467.894    60684963.686 7 -94623921.233 7
 86  6 19  2 32  5.0800000  0  3G12G13G 9
  21191564.733    21191571.442     5903458.668 9 -16457464.171 5
  20768021.053    20768026.367    29407521.077 8 -42411248.355 7
  21210656.833    21210662.060    60701746.106 8 -94610844.051 6
 86  6 19  2 32 11.0800000  0  3G12G13G 9
  21189820.556    21189826.880     5894290.585 8 -16464608.126 8
  20768926.041    20768932.312    29412283.316 8 -42407537.539 7
  21213853.832    21213859.226    60718548.619 8 -94597751.169 7
 86  6 19  2 32 17.0800000  0  3G12G13G 9
  21188079.581    21188085.236     5885144.622 9 -16471734.846 5
  20769834.289    20769841.311    29417056.980 8 -42403817.814 5
  21217054.676    21217060.667    60735371.358 7 -94584642.541 3
 86  6 19  2 32 23.0800000  0  3G12G13G 9
  21186343.847    21186347.917     5876020.724 9 -16478844.400 4
  20770745.556    20770752.603    29421842.135 9 -42400089.116 5
  21220259.638    21220265.667    60752214.240 7 -94571518.214 2
 86  6 19  2 32 29.0800000  0  3G12G13G 9
  21184612.004    21184618.487     5866918.956 9 -16485936.666 8
  20771657.558    20771665.357    29426638.837 9 -42396351.438 7
  21223469.500    21223476.570    60769077.216 8 -94558378.250 6
 86  6 19  2 32 35.0800000  0  3G12G13G 9
  21182884.172    21182888.340     5857839.342 8 -16493011.671 7
  20772572.725    20772579.592    29431446.934 8 -42392604.872 6
  21226680.740    21226687.373    60785960.245 8 -94545222.650 5
 86  6 19  2 32 41.0800000  0  3G12G13G 9
  21181160.256    21181167.580     5848781.835 9 -16500069.491 8
  20773489.616    20773497.574    29436266.429 8 -42388849.413 9
  21229897.285    21229903.710    60802863.325 8 -94532051.419 7
 86  6 19  2 32 47.0800000  0  3G12G13G 9
  21179440.376    21179448.090     5839746.470 9 -16507110.016 5
  20774408.881    20774414.869    29441097.316 8 -42385085.079 5
  21233117.606    21233121.435    60819786.361 7 -94518864.645 1
 86  6 19  2 32 53.0800000  0  3G12G13G 9
  21177726.358    21177733.060     5830733.322 9 -16514133.253 8
  20775331.887    20775338.375    29445939.561 9 -42381311.917 8
  21236341.610    21236348.656    60836729.532 8 -94505662.201 6
 86  6 19  2 32 59.0800000  0  3G12G13G 9
  21176014.492    21176021.937     5821742.424 9 -16521139.146 7
  20776254.863    20776261.022    29450793.207 9 -42377529.854 8
  21239570.272    21239576.530    60853692.818 8 -94492444.057 7
 86  6 19  2 33  5.0800000  0  3G12G13G 9
  21174308.180    21174316.510     5812773.801 9 -16528127.686 9
  20777181.870    20777186.578    29455658.224 9 -42373738.936 8
  21242802.038    21242808.546    60870675.999 7 -94479210.421 6
 86  6 19  2 33 11.0800000  0  3G12G13G 9
  21172605.330    21172610.422     5803827.532 8 -16535098.807 5
  20778109.044    20778113.308    29460534.653 9 -42369939.120 4
  21246037.982    21246044.511    60887679.303 7 -94465961.113 2
 86  6 19  2 33 17.0800000  0  3G12G13G 9
  21170907.629    21170914.122     5794903.664 9 -16542052.459 8
  20779039.476    20779043.751    29465422.379 9 -42366130.498 9
  21249278.166    21249282.706    60904702.586 7 -94452696.220 7
 86  6 19  2 33 23.0800000  0  3G12G13G 9
  21169214.991    21169220.017     5786002.158 9 -16548988.699 7
  20779971.805    20779976.872    29470321.465 8 -42362313.025 8
  21252521.464    21252525.718    60921745.942 8 -94439415.698 7
 86  6 19  2 33 29.0800000  0  3G12G13G 9
  21167524.618    21167530.395     5777123.073 9 -16555907.474 7
  20780905.509    20780910.491    29475231.991 9 -42358486.632 7
  21255768.241    21255774.149    60938809.207 8 -94426119.640 5
 86  6 19  2 33 35.0800000  0  3G12G13G 9
  21165839.392    21165845.219     5768266.429 9 -16562808.757 9
  20781842.360    20781847.151    29480153.870 9 -42354651.398 8
  21259017.832    21259024.294    60955892.407 8 -94412808.044 8
 86  6 19  2 33 41.0800000  0  3G12G13G 9
  21164157.407    21164162.387     5759432.270 8 -16569692.517 6
  20782781.096    20782789.479    29485087.048 9 -42350807.376 6
  21262272.700    21262282.680    60972995.612 7 -94399480.884 6
 86  6 19  2 33 47.0800000  0  3G12G13G 9
  21162479.792    21162486.701     5750620.611 9 -16576558.744 3
  20783722.914    20783726.730    29490031.616 9 -42346954.439 6
  21265528.865    21265535.994    60990118.832 8 -94386138.128 2
 86  6 19  2 33 53.0800000  0  3G12G13G 9
  21160808.047    21160815.645     5741831.382 9 -16583407.502 8
  20784664.967    20784671.404    29494987.450 8 -42343092.762 7
  21268792.816    21268801.644    61007261.854 7 -94372779.953 7
 86  6 19  2 33 59.0800000  0  3G12G13G 9
  21159138.829    21159147.115     5733064.564 9 -16590238.786 8
  20785609.347    20785617.004    29499954.533 9 -42339222.319 8
  21272059.881    21272065.507    61024424.683 8 -94359406.309 6
 86  6 19  2 34  5.0800000  0  3G12G13G 9
  21157475.755    21157484.184     5724320.229 9 -16597052.559 8
  20786558.505    20786563.118    29504932.899 9 -42335343.070 8
  21275329.963    21275336.165    61041607.355 8 -94346017.220 6
 86  6 19  2 34 11.0800000  0  3G12G13G 9
  21155815.859    21155824.112     5715598.405 9 -16603848.795 8
  20787507.704    20787513.477    29509922.485 8 -42331455.087 8
  21278603.209    21278609.754    61058809.854 8 -94332612.679 7
 86  6 19  2 34 17.0800000  0  3G12G13G 9
  21154160.340    21154169.090     5706899.069 8 -16610627.465 3
  20788459.976    20788465.135    29514923.250 8 -42327558.390 3
  21281880.342    21281882.821    61076032.108 7 -94319192.752 3
 86  6 19  2 34 23.0800000  0  3G12G13G 9
  21152509.632    21152515.188     5698222.287 9 -16617388.598 5
  20789412.119    20789418.575    29519935.178 9 -42323653.002 5
  21285162.215    21285167.918    61093273.976 8 -94305757.519 3
 86  6 19  2 34 29.0800000  0  3G12G13G 9
  21150863.015    21150869.571     5689567.988 8 -16624132.222 8
  20790368.527    20790373.093    29524958.180 9 -42319738.972 8
  21288446.347    21288453.745    61110535.609 7 -94292306.896 6
 86  6 19  2 34 35.0800000  0  3G12G13G 9
  21149220.863    21149226.560     5680936.225 9 -16630858.263 8
  20791325.211    20791332.677    29529992.305 9 -42315816.295 8
  21291734.891    21291742.042    61127816.966 7 -94278840.927 6
 86  6 19  2 34 41.0800000  0  3G12G13G 9
  21147582.429    21147588.783     5672327.008 9 -16637566.748 8
  20792284.728    20792292.024    29535037.551 7 -42311884.938 8
  21295026.498    21295035.040    61145117.979 8 -94265359.626 7
 86  6 19  2 34 47.0800000  0  3G12G13G 9
  21145947.688    21145954.853     5663740.263 8 -16644257.709 7
  20793246.797    20793254.868    29540093.845 9 -42307944.966 7
  21298322.486    21298328.942    61162438.483 8 -94251863.134 6
 86  6 19  2 34 53.0800000  0  3G12G13G 9
  21144318.530    21144322.715     5655175.979 9 -16650931.146 6
  20794211.137    20794217.781    29545161.106 9 -42303996.446 6
  21301621.489    21301626.690    61179778.553 8 -94238351.377 5
 86  6 19  2 34 59.0800000  0  3G12G13G 9
  21142694.091    21142698.773     5646634.242 9 -16657587.081 9
  20795177.556    20795185.162    29550239.398 9 -42300039.324 8
  21304927.536    21304932.250    61197138.167 9 -94224824.409 7
 86  6 19  2 35  5.0800000  0  3G12G13G 9
  21141072.774    21141078.080     5638115.086 9 -16664225.391 8
  20796147.162    20796153.607    29555328.711 9 -42296073.621 7
  21308234.485    21308239.068    61214517.338 9 -94211282.207 6
 86  6 19  2 35 11.0800000  0  3G12G13G 9
  21139455.802    21139461.591     5629618.520 9 -16670846.084 8
  20797117.812    20797124.324    29560429.072 8 -42292099.306 9
  21311545.140    21311549.439    61231916.078 9 -94197724.734 6
 86  6 19  2 35 17.0800000  0  3G12G13G 9
  21137842.388    21137847.910     5621144.652 9 -16677449.105 8
  20798091.940    20798096.309    29565540.425 8 -42288116.429 8
  21314860.468    21314863.943    61249334.285 8 -94184152.098 7
 86  6 19  2 35 23.0800000  0  2G12G13
  21136235.522    21136240.822     5612693.441 6 -16684034.462 6
  20799065.458    20799072.618    29570662.768 9 -42284124.999 7
 86  6 19  2 35 29.0800000  0  3G12G13G 9
  21134630.077    21134635.480     5604265.049 9 -16690602.046 8
  20800042.041    20800047.824    29575796.271 8 -42280124.874 8
  21321500.650    21321503.417    61284229.490 9 -94156961.017 6
 86  6 19  2 35 35.0800000  0  4G12G13G 9G11
  21133029.941    21133036.855     5595859.468 9 -16697151.849 6
  20801020.109    20801026.334    29580940.937 9 -42276116.034 7
  21324825.625    21324830.190    61301706.435 8 -94143342.619 5
                  24447240.475    -1505850.247 6
 86  6 19  2 35 41.0800000  0  4G12G13G 9G11
  21131435.891    21131442.054     5587476.676 9 -16703683.888 3
  20802001.123    20802011.486    29586096.688 7 -42272098.567 3
  21328154.297    21328162.222    61319202.936 8 -94129708.970 3
                  24450360.819    -1489441.347 6
 86  6 19  2 35 47.0800000  0  4G12G13G 9G11
  21129845.138    21129851.385     5579116.748 9 -16710198.121 7
  20802983.740    20802991.522    29591263.476 9 -42268072.517 8
  21331488.225    21331493.907    61336719.038 8 -94116060.064 5
                  24453485.885    -1473034.578 3
 86  6 19  2 35 53.0800000  0  4G12G13G 9G11
  21128258.821    21128264.970     5570779.687 9 -16716694.525 8
  20803970.278    20803975.801    29596441.307 8 -42264037.842 8
  21334825.287    21334832.006    61354254.533 8 -94102396.057 7
  24456608.258    24456614.176    -1456630.376 3   4867626.272 1
 86  6 19  2 35 59.0800000  0  4G12G13G 9G11
  21126676.110    21126681.542     5562465.483 9 -16723173.117 4
  20804957.832    20804960.597    29601630.152 9 -42259994.595 5
  21338166.846    21338172.883    61371809.535 8 -94088716.816 1
  24459729.701    24459728.052    -1440228.767 2   4880406.789 1
 86  6 19  2 36  5.0800000  0  4G12G13G 9G11
  21125098.434    21125102.208     5554174.061 9 -16729633.962 5
  20805947.546    20805952.112    29606829.757 9 -42255942.970 5
  21341509.533    21341515.875    61389383.953 7 -94075022.495 1
  24462848.213    24462852.645    -1423829.514 4   4893185.445 1
 86  6 19  2 36 11.0800000  0  4G12G13G 9G11
  21123525.564    21123531.341     5545905.416 9 -16736077.065 7
  20806939.278    20806943.747    29612040.219 8 -42251882.847 6
  21344857.524    21344865.038    61406977.748 9 -94061313.021 5
  24465971.491    24465970.901    -1407432.841 3   4905962.055 4
 86  6 19  2 36 17.0800000  0  4G12G13G 9G11
  21121956.050    21121961.651     5537659.544 9 -16742502.412 6
  20807932.532    20807936.520    29617261.628 9 -42247814.224 7
  21348209.359    21348216.745    61424590.848 8 -94047588.549 6
  24469089.502    24469092.090    -1391038.752 4   4918736.672 5
 86  6 19  2 36 23.0800000  0  4G12G13G 9G11
  21120391.450    21120396.909     5529436.536 9 -16748909.960 8
  20808928.322    20808931.659    29622493.922 9 -42243737.104 8
  21351562.974    21351571.368    61442223.153 7 -94033849.078 6
  24472209.557    24472212.542    -1374647.182 3   4931509.291 5
 86  6 19  2 36 29.0800000  0  4G12G13G 9G11
  21118830.893    21118835.486     5521236.472 9 -16755299.609 5
  20809926.727    20809930.387    29627737.092 9 -42239651.481 3
  21354924.114    21354926.900    61459874.878 8 -94020094.508 3
  24475325.736    24475333.671    -1358258.122 5   4944279.989 1
 86  6 19  2 36 35.0800000  0  4G12G13G 9G11
  21117274.764    21117281.302     5513059.231 9 -16761671.491 3
  20810926.106    20810930.155    29632991.012 9 -42235557.544 4
  21358285.978    21358292.847    61477545.857 8 -94006324.927 5
  24478444.123    24478448.562    -1341871.630 4   4957048.681 2
 86  6 19  2 36 41.0800000  0  4G12G13G 9G11
  21115723.134    21115728.791     5504904.791 8 -16768025.590 8
  20811928.363    20811932.678    29638255.641 9 -42231455.234 8
  21361652.013    21361658.495    61495236.050 7 -93992540.374 7
  24481563.765    24481565.942    -1325487.777 6   4969815.312 4
 86  6 19  2 36 47.0800000  0  4G12G13G 9G11
  21114174.991    21114182.048     5496773.324 9 -16774361.811 7
  20812931.354    20812936.619    29643531.145 9 -42227344.449 7
  21365023.082    21365030.187    61512945.504 8 -93978740.805 7
  24484681.249    24484683.706    -1309106.494 5   4982579.946 4
 86  6 19  2 36 53.0800000  0  4G12G13G 9G11
  21112631.286    21112638.621     5488664.775 9 -16780680.166 8
  20813938.177    20813941.983    29648817.479 9 -42223225.231 8
  21368396.862    21368403.510    61530674.109 8 -93964926.333 7
  24487797.457    24487801.594    -1292727.813 5   4995342.567 5
 86  6 19  2 36 59.0800000  0  4G12G13G 9G11
  21111093.274    21111098.109     5480579.215 9 -16786980.605 4
  20814945.439    20814948.453    29654114.565 9 -42219097.618 6
  21371775.928    21371777.887    61548421.917 8 -93951096.871 3
  24490912.366    24490923.128    -1276351.652 6   5008103.135 1
 86  6 19  2 37  5.0800000  0  4G12G13G 9G11
  21109558.761    21109565.436     5472516.593 9 -16793263.167 7
  20815954.556    20815961.441    29659422.376 9 -42214961.674 7
  21375155.483    21375161.003    61566188.835 8 -93937252.525 6
  24494029.111    24494032.367    -1259978.122 6   5020861.767 5
 86  6 19  2 37 11.0800000  0  4G12G13G 9G11
  21108027.963    21108035.370     5464476.893 9 -16799527.846 3
  20816967.856    20816972.575    29664740.836 8 -42210817.405 6
  21378539.840    21378544.182    61583974.854 7 -93923393.298 3
  24497142.305    24497151.119    -1243607.243 5   5033618.288 3
 86  6 19  2 37 17.0800000  0  4G12G13G 9G11
  21106503.204    21106509.389     5456460.252 8 -16805774.585 7
  20817981.778    20817988.741    29670070.124 9 -42206664.737 8
  21381925.922    21381932.425    61601780.036 6 -93909519.139 6
  24500257.407    24500262.831    -1227238.945 5   5046372.798 6
 86  6 19  2 37 23.0800000  0  4G12G13G 9G11
  21104982.229    21104988.557     5448466.753 9 -16812003.291 6
  20818997.869    20819005.896    29675410.256 9 -42202503.587 5
  21385318.116    21385323.248    61619604.483 7 -93895629.942 3
  24503370.391    24503375.438    -1210873.128 6   5059125.372 3
 86  6 19  2 37 29.0800000  0  4G12G13G 9G11
  21103466.397    21103471.867     5440496.284 9 -16818214.044 8
  20820016.316    20820023.724    29680761.165 9 -42198334.058 7
  21388715.393    21388720.571    61637448.051 7 -93881725.882 4
  24506484.118    24506489.463    -1194509.790 5   5071876.028 6
 86  6 19  2 37 35.0800000  0  4G12G13G 9G11
  21101954.578    21101958.711     5432548.938 9 -16824406.758 6
  20821037.275    20821041.155    29686122.756 9 -42194156.194 6
  21392113.861    21392119.256    61655310.745 7 -93867806.953 4
  24509598.762    24509603.641    -1178148.986 5   5084624.713 3
 86  6 19  2 37 41.0800000  0  4G12G13G 9G11
  21100445.339    21100451.529     5424624.729 8 -16830581.496 8
  20822060.037    20822064.223    29691495.053 8 -42189969.978 7
  21395517.365    21395522.011    61673192.568 6 -93853873.042 6
  24512713.386    24512716.320    -1161790.765 5   5097371.371 7
 86  6 19  2 37 47.0800000  0  4G12G13G 9G11
  21098941.923    21098949.001     5416723.716 9 -16836738.119 5
  20823083.888    20823084.744    29696878.153 9 -42185775.366 4
  21398924.189    21398927.965    61691093.383 7 -93839924.341 2
  24515823.118    24515828.526    -1145435.066 5   5110116.047 1
 86  6 19  2 37 53.0800000  0  4G12G13G 9G11
  21097442.513    21097449.027     5408845.804 9 -16842876.756 8
  20824110.574    20824115.087    29702271.927 9 -42181572.432 7
  21402333.492    21402337.648    61709013.230 6 -93825960.834 5
  24518936.435    24518941.764    -1129081.937 6   5122858.721 6
 86  6 19  2 37 59.0800000  0  4G12G13G 9G11
  21095946.980    21095954.942     5400991.080 8 -16848997.326 7
  20825138.347    20825141.727    29707676.368 9 -42177361.167 7
  21405746.577    21405752.275    61726952.081 8 -93811982.504 7
  24522046.815    24522051.446    -1112731.531 5   5135599.320 5
 86  6 19  2 38  5.0800000  0  4G12G13G 9G11
  21094456.975    21094463.573     5393159.462 8 -16855099.887 3
  20826168.121    20826172.179    29713091.447 9 -42173141.587 2
  21409163.374    21409168.901    61744909.920 8 -93797989.389 1
  24525158.589    24525159.751    -1096383.732 4   5148337.839 1
 86  6 19  2 38 11.0800000  0  4G12G13G 9G11
  21092970.611    21092977.735     5385350.960 8 -16861184.419 5
  20827199.841    20827206.799    29718517.089 8 -42168913.827 1
  21412584.262    21412590.206    61762886.757 7 -93783981.499 3
  24528268.481    24528271.957    -1080038.592 6   5161074.332 1
 86  6 19  2 38 17.0800000  0  4G12G13G 9G11
  21091491.023    21091497.953     5377565.663 9 -16867250.879 8
  20828234.532    20828239.607    29723953.304 9 -42164677.825 7
  21416008.432    21416014.102    61780882.382 7 -93769958.934 6
  24531378.738    24531385.787    -1063696.067 6   5173808.745 5
 86  6 19  2 38 23.0800000  0  4G12G13G 9G11
  21090012.518    21090020.631     5369803.559 9 -16873299.284 7
  20829270.947    20829278.226    29729400.104 9 -42160433.565 6
  21419435.904    21419443.790    61798896.925 8 -93755921.626 6
  24534487.302    24534493.090    -1047356.229 7   5186541.080 5
 86  6 19  2 38 29.0800000  0  4G12G13G 9G11
  21088541.531    21088547.623     5362064.650 9 -16879329.607 7
  20830309.906    20830315.169    29734857.414 8 -42156181.105 6
  21422868.450    21422875.641    61816930.420 8 -93741869.569 6
  24537595.515    24537601.606    -1031019.060 6   5199271.333 3
 86  6 19  2 38 35.0800000  0  4G12G13G 9G11
  21087072.926    21087079.834     5354348.960 9 -16885341.829 5
  20831349.876    20831357.408    29740325.387 9 -42151920.345 4
  21426304.593    21426309.730    61834982.804 8 -93727802.783 3
  24540704.388    24540711.538    -1014684.571 6   5211999.510 1
 86  6 19  2 38 41.0800000  0  4G12G13G 9G11
  21085608.607    21085614.166     5346656.502 9 -16891335.961 5
  20832393.134    20832398.899    29745803.842 9 -42147651.428 3
  21429744.026    21429748.374    61853053.937 8 -93713721.358 3
  24543813.346    24543819.290     -998352.770 5   5224725.578 1
 86  6 19  2 38 47.0800000  0  4G12G13G 9G11
  21084149.254    21084155.936     5338987.271 8 -16897311.994 8
  20833438.675    20833443.671    29751292.801 8 -42143374.313 7
  21433185.196    21433191.467    61871143.901 8 -93699625.320 6
  24546919.019    24546926.116     -982023.676 5   5237449.569 4
 86  6 19  2 38 53.0800000  0  4G12G13G 9G11
  21082694.155    21082699.269     5331341.333 8 -16903269.872 6
  20834485.391    20834491.426    29756792.265 8 -42139089.020 6
  21436630.678    21436635.468    61889252.655 8 -93685514.616 6
  24550026.593    24550029.762     -965697.220 6   5250171.473 1
 86  6 19  2 38 59.0800000  0  4G12G13G 9G11
  21081244.233    21081251.164     5323718.714 9 -16909209.579 6
  20835533.879    20835537.136    29762302.132 9 -42134795.625 5
  21440080.586    21440086.971    61907380.186 7 -93671389.276 6
  24553134.554    24553138.257     -949373.494 6   5262891.256 3
 86  6 19  2 39  5.0800000  0  4G12G13G 9G11
  21079797.371    21079803.090     5316119.447 9 -16915131.070 6
  20836583.203    20836589.902    29767822.492 9 -42130494.042 5
  21443534.501    21443539.453    61925526.289 7 -93657249.449 6
  24556238.458    24556245.974     -933052.403 3   5275608.933 1
 86  6 19  2 39 11.0800000  0  4G12G13G 9G11
  21078355.541    21078362.623     5308543.459 9 -16921034.446 8
  20837635.445    20837642.320    29773353.255 8 -42126184.366 8
  21446992.212    21446997.041    61943691.169 7 -93643095.029 7
  24559343.387    24559349.654     -916734.085 3   5288324.539 5
 86  6 19  2 39 17.0800000  0  4G12G13G 9G11
  21076919.401    21076925.155     5300990.752 9 -16926919.677 7
  20838689.605    20838697.225    29778894.414 9 -42121866.582 6
  21450449.580    21450458.606    61961874.724 9 -93628926.015 7
  24562448.745    24562455.791     -900418.559 3   5301037.970 6
 86  6 19  2 39 23.0800000  0  4G12G13G 9G11
  21075486.016    21075492.880     5293461.396 9 -16932786.689 8
  20839746.276    20839753.962    29784445.937 9 -42117540.725 8
  21453914.045    21453923.252    61980076.993 8 -93614742.433 7
  24565550.148    24565560.147     -884105.732 4   5313749.230 6
 86  6 19  2 39 29.0800000  0  4G12G13G 9G11
  21074058.049    21074064.928     5285955.428 9 -16938635.497 6
  20840804.520    20840811.047    29790007.865 8 -42113206.755 5
  21457381.485    21457389.513    61998297.735 7 -93600544.470 6
  24568654.911    24568659.666     -867795.665 3   5326458.353 1
 86  6 19  2 39 35.0800000  0  4G12G13G 9G11
  21072634.231    21072641.981     5278472.864 9 -16944466.076 8
  20841864.440    20841870.874    29795580.163 9 -42108864.698 7
  21460852.210    21460860.712    62016537.209 8 -93586331.896 7
  24571754.573    24571766.258     -851488.321 1   5339165.354 6
 86  6 19  2 39 41.0800000  0  4G12G13G 9G11
  21071214.328    21071222.125     5271013.749 9 -16950278.390 7
  20842927.689    20842933.828    29801162.927 8 -42104514.487 6
  21464326.367    21464333.018    62034795.397 7 -93572104.740 6
  24574855.530    24574866.742     -835183.724 1   5351870.246 3
 86  6 19  2 39 47.0800000  0  4G12G13G 9G11
  21069798.691    21069805.859     5263577.965 8 -16956072.507 8
  20843992.236    20843998.604    29806756.132 8 -42100156.139 9
  21467804.722    21467812.322    62053072.074 8 -93557863.164 8
  24577960.506    24577970.036     -818881.838 1   5364573.048 5
 86  6 19  2 39 53.0800000  0  4G12G13G 9G11
  21068386.592    21068391.823     5256165.782 6 -16961848.232 1
  20845058.055    20845060.547    29812359.768 8 -42095789.678 3
  21471285.625    21471291.561    62071367.373 8 -93543607.063 4
                  24581070.451                     5377273.738 1
 86  6 19  2 39 59.0800000  0  4G12G13G 9G11
  21066982.124    21066992.241     5248777.123 1 -16967605.635 1
  20846126.489    20846133.041    29817973.752 9 -42091415.164 5
  21474770.861    21474778.198    62089681.344 6 -93529336.451 5
  24584172.898    24584168.390     -839282.647 1   5389971.106 1
 86  6 19  2 40  5.0800000  0  4G12G13G 9G11
  21065580.285    21065585.921     5241411.817 1 -16973344.835 1
  20847197.274    20847204.130    29823598.052 8 -42087032.586 7
  21478258.823    21478267.990    62108013.788 8 -93515051.436 7
                  24587274.134                     5402596.642 3
 86  6 19  2 40 11.0800000  0  3G12G13G 9
  21064184.389    21064191.223     5234069.929 9 -16979065.796 7
  20848270.311    20848275.726    29829232.602 8 -42082642.042 7
  21481750.427    21481759.714    62126364.593 8 -93500752.109 7
 86  6 19  2 40 17.0800000  0  3G12G13G 9
  21062792.739    21062798.774     5226751.543 9 -16984768.428 7
  20849345.857    20849351.280    29834877.322 9 -42078243.548 8
  21485247.276    21485256.019    62144733.841 7 -93486438.424 7
 86  6 19  2 40 23.0800000  0  3G12G13G 9
  21061404.032    21061406.083     5219456.627 9 -16990452.765 2
  20850421.359    20850426.140    29840532.226 9 -42073837.142 1
  21488746.092    21488754.479    62163121.565 7 -93472110.338 1
 86  6 19  2 40 29.0800000  0  3G12G13G 9
  21060019.703    21060026.704     5212185.244 9 -16996118.786 6
  20851497.712    20851503.125    29846197.390 9 -42069422.721 6
  21492249.226    21492257.164    62181527.619 7 -93457767.957 6
 86  6 19  2 40 35.0800000  0  3G12G13G 9
  21058639.896    21058646.132     5204937.292 8 -17001766.520 7
  20852578.208    20852582.878    29851872.769 9 -42065000.334 7
  21495755.111    21495760.801    62199952.084 8 -93443411.231 7
 86  6 19  2 40 41.0800000  0  3G12G13G 9
  21057264.836    21057273.621     5197712.826 9 -17007395.988 8
  20853659.511    20853663.566    29857558.316 8 -42060570.048 7
  21499265.500    21499271.870    62218394.974 8 -93429040.164 7
 86  6 19  2 40 47.0800000  0  3G12G13G 9
  21055895.195    21055904.060     5190511.828 9 -17013007.169 3
  20854742.626    20854748.757    29863253.956 8 -42056131.853 4
  21502778.573    21502784.522    62236856.002 8 -93414654.949 6
 86  6 19  2 40 53.0800000  0  3G12G13G 9
  21054528.848    21054536.820     5183334.424 8 -17018599.924 1
  20855828.684    20855833.220    29868959.874 9 -42051685.703 1
  21506295.382    21506304.498    62255335.418 8 -93400255.438 4
 86  6 19  2 40 59.0800000  0  3G12G13G 9
  21053168.134    21053175.619     5176180.588 9 -17024174.355 6
  20856917.074    20856924.221    29874675.998 9 -42047231.603 5
  21509816.546    21509824.631    62273833.154 9 -93385841.600 6
 86  6 19  2 41  5.0800000  0  3G12G13G 9
  21051811.682    21051819.230     5169050.430 9 -17029730.312 8
  20858006.819    20858013.751    29880402.335 8 -42042769.513 7
  21513339.552    21513346.153    62292349.058 9 -93371413.616 7
 86  6 19  2 41 11.0800000  0  3G12G13G 9
  21050460.093    21050467.135     5161944.055 9 -17035267.742 9
  20859098.424    20859104.350    29886138.997 9 -42038299.397 7
  21516864.997    21516873.996    62310883.377 9 -93356971.311 8
 86  6 19  2 41 17.0800000  0  3G12G13G 9
  21049112.535    21049115.830     5154861.414 9 -17040786.670 1
  20860191.299    20860193.278    29891885.858 9 -42033821.310 1
  21520396.105    21520401.645    62329436.105 7 -93342514.648 1
 86  6 19  2 41 23.0800000  0  3G12G13G 9
  21047769.199    21047775.017     5147802.559 8 -17046287.084 7
  20861287.659    20861294.144    29897642.932 8 -42029335.290 7
  21523929.687    21523936.731    62348007.188 9 -93328043.685 7
 86  6 19  2 41 29.0800000  0  3G12G13G 9
  21046429.999    21046436.495     5140767.450 9 -17051769.000 5
  20862385.279    20862390.026    29903410.196 9 -42024841.302 5
  21527466.831    21527474.246    62366596.518 9 -93313558.517 6
 86  6 19  2 41 35.0800000  0  3G12G13G 9
  21045094.635    21045100.922     5133756.034 9 -17057232.441 6
  20863483.891    20863488.656    29909187.461 9 -42020339.561 6
  21531008.855    21531014.343    62385204.039 9 -93299059.140 8
 86  6 19  2 41 41.0800000  0  3G12G13G 9
  21043764.444    21043773.849     5126768.354 9 -17062677.381 4
  20864585.612    20864589.730    29914974.734 9 -42015829.984 3
  21534552.524    21534561.196    62403829.734 8 -93284545.632 3
 86  6 19  2 41 47.0800000  0  3G12G13G 9
  21042440.099    21042446.600     5119804.354 9 -17068103.867 6
  20865687.111    20865693.713    29920771.943 9 -42011312.669 6
  21538101.003    21538108.149    62422473.423 9 -93270018.067 6
 86  6 19  2 41 53.0800000  0  3G12G13G 9
  21041117.829    21041127.076     5112864.042 9 -17073511.907 7
  20866793.845    20866799.089    29926579.251 9 -42006787.491 7
  21541651.759    21541657.994    62441135.218 9 -93255476.421 7
 86  6 19  2 41 59.0800000  0  3G12G13G 9
  21039802.942    21039810.848     5105947.377 9 -17078901.486 1
  20867900.948    20867905.933    29932396.490 9 -42002254.587 1
  21545206.162    21545210.283    62459815.082 8 -93240920.701 1
 86  6 19  2 42  5.0800000  0  3G12G13G 9
  21038492.165    21038499.616     5099054.483 9 -17084272.598 8
  20869009.228    20869015.286    29938223.717 9 -41997713.887 6
  21548765.371    21548770.418    62478512.924 8 -93226350.947 6
 86  6 19  2 42 11.0800000  0  3G12G13G 9
  21037185.650    21037193.187     5092185.308 9 -17089625.209 5
  20870120.571    20870126.081    29944060.805 9 -41993165.520 6
  21552326.729    21552331.534    62497228.741 8 -93211767.200 5
 86  6 19  2 42 17.0800000  0  3G12G13G 9
  21035883.632    21035890.023     5085339.913 9 -17094959.282 7
  20871232.905    20871240.881    29949907.835 9 -41988609.395 7
  21555892.488    21555896.614    62515962.540 9 -93197169.441 7
 86  6 19  2 42 23.0800000  0  3G12G13G 9
  21034585.414    21034592.839     5078518.241 9 -17100274.883 3
  20872348.697    20872353.288    29955764.844 9 -41984045.467 1
  21559460.667    21559465.908    62534714.274 8 -93182557.703 1
 86  6 19  2 42 29.0800000  0  3G12G13G 9
  21033290.727    21033297.492     5071720.469 9 -17105571.840 7
  20873465.010    20873471.208    29961631.966 9 -41979473.709 6
  21563032.257    21563037.927    62553484.096 8 -93167931.864 7
 86  6 19  2 42 35.0800000  0  3G12G13G 9
  21032000.906    21032007.119     5064946.531 9 -17110850.253 7
  20874583.716    20874587.191    29967509.017 8 -41974894.199 3
  21566607.950    21566611.562    62572271.903 8 -93153292.050 1
 86  6 19  2 42 41.0800000  0  3G12G13G 9
  21030716.046    21030722.083     5058196.491 9 -17116109.994 7
  20875703.769    20875709.756    29973396.055 9 -41970306.907 7
  21570186.494    21570191.124    62591077.702 9 -93138638.174 8
 86  6 19  2 42 47.0800000  0  3G12G13G 9
  21029436.126    21029439.816     5051470.393 9 -17121351.125 2
  20876826.148    20876830.338    29979293.044 8 -41965711.826 1
  21573767.591    21573774.649    62609901.503 8 -93123970.262 1
 86  6 19  2 42 53.0800000  0  3G12G13G 9
  21028162.014    21028166.034     5044768.243 8 -17126573.560 7
  20877949.530    20877955.127    29985200.035 9 -41961108.990 7
  21577353.890    21577360.514    62628743.181 8 -93109288.444 7
 86  6 19  2 42 59.0800000  0  3G12G13G 9
  21026891.384    21026896.003     5038090.011 9 -17131777.387 6
  20879075.205    20879081.059    29991116.891 9 -41956498.461 5
  21580941.569    21580944.387    62647602.648 9 -93094592.770 5
 86  6 19  2 43  5.0800000  0  3G12G13G 9
  21025625.544    21025627.179     5031435.656 9 -17136962.565 3
  20880202.493    20880207.174    29997043.431 8 -41951880.355 2
  21584532.900    21584541.706    62666479.983 8 -93079883.136 4
 86  6 19  2 43 11.0800000  0  3G12G13G 9
  21024364.090    21024370.835     5024805.082 9 -17142129.288 5
  20881332.780    20881336.482    30002979.696 9 -41947254.694 2
  21588129.032    21588136.956    62685374.920 9 -93065159.854 2
 86  6 19  2 43 17.0800000  0  3G12G13G 9
  21023106.862    21023111.991     5018198.309 9 -17147277.418 8
  20882463.469    20882467.538    30008925.772 9 -41942621.381 7
  21591727.091    21591733.599    62704287.609 8 -93050422.692 7
 86  6 19  2 43 23.0800000  0  3G12G13G 9
  21021852.171    21021855.823     5011615.453 9 -17152406.963 1
  20883597.124    20883603.011    30014881.638 8 -41937980.451 2
  21595331.140    21595336.085    62723218.084 8 -93035671.652 1
 86  6 19  2 43 29.0800000  0  3G12G13G 9
  21020604.101    21020612.241     5005056.571 9 -17157517.753 3
  20884732.563    20884736.985    30020847.363 8 -41933331.828 1
  21598935.969    21598938.109    62742166.359 9 -93020906.769 3
 86  6 19  2 43 35.0800000  0  3G12G13G 9
  21019360.753    21019367.886     4998521.776 8 -17162609.792 7
  20885869.567    20885873.670    30026822.992 9 -41928675.484 7
  21602545.613    21602551.060    62761132.443 9 -93006128.051 6
 86  6 19  2 43 41.0800000  0  3G12G13G 9
  21018122.238    21018128.402     4992011.103 9 -17167683.040 7
  20887008.511    20887013.865    30032808.492 8 -41924011.464 6
  21606158.403    21606163.962    62780116.239 9 -92991335.495 5
 86  6 19  2 43 47.0800000  0  3G12G13G 9
  21016887.319    21016893.809     4985524.486 8 -17172737.566 7
  20888150.695    20888155.576    30038803.721 9 -41919339.871 6
  21609774.489    21609778.182    62799117.591 9 -92976529.230 4
 86  6 19  2 43 53.0800000  0  3G12G13G 9
  21015659.232    21015660.780     4979061.932 9 -17177773.342 1
  20889292.721    20889294.379    30044808.677 9 -41914660.666 1
  21613394.023    21613396.389    62818136.645 9 -92961709.203 1
 86  6 19  2 43 59.0800000  0  3G12G13G 9
  21014435.259    21014437.118     4972623.456 9 -17182790.319 7
  20890437.575    20890441.155    30050823.454 9 -41909973.847 7
  21617016.921    21617020.033    62837173.436 9 -92946875.322 5
 86  6 19  2 44  5.0800000  0  3G12G13G 9
  21013214.170    21013216.131     4966209.130 9 -17187788.480 6
  20891582.421    20891588.923    30056848.044 8 -41905279.375 6
  21620641.694    21620644.773    62856227.868 9 -92932027.728 6
 86  6 19  2 44 11.0800000  0  3G12G13G 9
  21011998.463    21012002.429     4959818.880 9 -17192767.898 4
  20892731.401    20892736.979    30062882.323 9 -41900577.353 5
  21624271.704    21624271.700    62875299.848 8 -92917166.434 3
 86  6 19  2 44 17.0800000  0  3G12G13G 9
  21010786.443    21010789.776     4953452.596 9 -17197728.628 5
  20893880.873    20893888.230    30068926.175 8 -41895867.847 4
                  21627904.264    62894389.396 9
 86  6 19  2 44 23.0800000  0  3G12G13G 9
  21009577.974    21009583.832     4947110.389 9 -17202670.631 7
  20895032.647    20895038.709    30074979.675 9 -41891150.842 7
  21631539.885    21631544.768    62913496.499 8 -92856380.291 3
 86  6 19  2 44 29.0800000  0  3G12G13G 9
  21008375.059    21008382.098     4940792.299 9 -17207593.814 7
  20896186.903    20896192.031    30081042.792 8 -41886426.328 7
  21635179.228    21635183.958    62932621.157 9 -92841478.010 6
 86  6 19  2 44 35.0800000  0  4G12G13G 9G11
  21007178.192    21007183.196     4934498.288 9 -17212498.220 2
  20897341.874    20897349.235    30087115.532 9 -41881694.398 1
  21638821.026    21638827.474    62951763.075 9 -92826562.746 1
                  24726235.088    -4648003.272 7
 86  6 19  2 44 41.0800000  0  4G12G13G 9G11
  21005985.488    21005991.159     4928228.348 9 -17217383.905 6
  20898500.084    20898505.559    30093197.763 9 -41876954.917 6
  21642467.024    21642473.014    62970922.472 9 -92811633.343 6
                  24729319.671    -4631842.979 8
 86  6 19  2 44 47.0800000  0  4G12G13G 9G11
  21004797.079    21004803.484     4921982.498 9 -17222250.795 6
  20899660.182    20899664.023    30099289.454 9 -41872208.154 5
  21646116.425    21646121.787    62990099.200 9 -92796690.448 5
                  24732379.657    -4615686.054 6
 86  6 19  2 44 53.0800000  0  4G12G13G 9G11
  21003613.797    21003617.966     4915760.765 9 -17227098.885 7
  20900820.825    20900826.137    30105390.696 9 -41867453.934 5
  21649767.803    21649773.817    63009293.349 9 -92781733.977 6
  24735455.529    24735464.043    -4599532.025 6   8969433.867 2
 86  6 19  2 44 59.0800000  0  4G12G13G 9G11
  21002435.263    21002439.953     4909563.137 9 -17231928.225 3
  20901983.194    20901988.998    30111501.491 9 -41862692.293 3
  21653423.666    21653430.672    63028504.789 9 -92766764.044 3
                  24738530.329    -4583381.017 6
 86  6 19  2 45  5.0800000  0  4G12G13G 9G11
  21001260.857    21001265.090     4903389.659 9 -17236738.698 8
  20903147.457    20903154.712    30117621.809 9 -41857923.199 7
  21657083.310    21657089.948    63047733.506 9 -92751780.613 7
  24741601.567    24741607.826    -4567233.118 7   9028057.736 1
 86  6 19  2 45 11.0800000  0  4G12G13G 9G11
  21000090.057    21000093.560     4897240.432 9 -17241530.304 7
  20904313.107    20904320.004    30123751.722 8 -41853146.640 7
  21660745.833    21660752.330    63066979.604 9 -92736783.669 6
  24744673.395    24744681.181    -4551088.279 7   9040638.289 1
 86  6 19  2 45 17.0800000  0  4G12G13G 9G11
  20998924.783    20998926.244     4891115.504 9 -17246303.006 1
  20905481.691    20905487.657    30129891.181 9 -41848362.627 1
  21664411.333    21664414.748    63086243.179 9 -92721773.083 1
                  24747744.768    -4534946.384 6
 86  6 19  2 45 23.0800000  0  4G12G13G 9G11
  20997762.669    20997768.240     4885014.897 9 -17251056.697 6
  20906652.340    20906660.377    30136040.237 9 -41843571.180 7
  21668080.267    21668088.080    63105524.072 8 -92706749.047 6
  24750817.118    24750868.256    -4518807.472 6   9099256.862 1
 86  6 19  2 45 29.0800000  0  4G12G13G 9G11
  20996605.967    20996610.887     4878938.555 9 -17255791.516 7
  20907824.506    20907831.957    30142198.855 9 -41838772.253 6
  21671753.510    21671759.416    63124822.125 9 -92691711.602 5
  24753887.339    24753897.094    -4502671.671 7   9111830.009 1
 86  6 19  2 45 35.0800000  0  4G12G13G 9G11
  20995454.999    20995459.349     4872886.483 9 -17260507.428 6
  20908998.489    20909004.968    30148366.981 9 -41833965.920 5
  21675428.797    21675434.595    63144137.509 9 -92676660.649 5
                  24756955.506    -4486538.930 5
 86  6 19  2 45 41.0800000  0  4G12G13G 9G11
  20994307.664    20994311.220     4866858.791 9 -17265204.332 8
  20910173.779    20910179.847    30154544.596 9 -41829152.177 8
  21679107.846    21679113.759    63163470.150 9 -92661596.265 7
  24760022.017    24760031.476    -4470409.203 5   9170439.988 1
 86  6 19  2 45 47.0800000  0  4G12G13G 9G11
  20993165.564    20993170.651     4860855.478 9 -17269882.229 6
  20911352.867    20911359.067    30160731.719 9 -41824331.057 7
  21682790.502    21682795.752    63182820.133 9 -92646518.366 6
  24763093.232    24763101.986    -4454282.476 6   9183006.330 1
 86  6 19  2 45 53.0800000  0  3G12G13G 9
  20992027.234    20992032.652     4854876.485 8 -17274541.175 6
  20912530.804    20912537.507    30166928.443 9 -41819502.442 7
  21686475.332    21686481.846    63202187.394 9 -92631426.974 6
 86  6 19  2 45 59.0800000  0  3G12G13G 9
  20990893.660    20990897.879     4848921.806 9 -17279181.192 3
  20913712.529    20913717.087    30173134.622 9 -41814666.473 2
  21690163.864    21690170.654    63221571.845 9 -92616322.243 1
 86  6 19  2 46  5.0800000  0  3G12G13G 9
  20989765.778    20989771.753     4842991.558 9 -17283802.162 7
  20914894.821    20914901.985    30179350.294 9 -41809823.104 7
  21693855.281    21693863.303    63240973.482 8 -92601204.058 6
 86  6 19  2 46 11.0800000  0  3G12G13G 9
  20988640.852    20988647.264     4837085.688 8 -17288404.149 6
  20916080.280    20916086.347    30185575.392 9 -41804972.365 6
  21697552.015    21697555.684    63260392.226 9 -92586072.537 3
 86  6 19  2 46 17.0800000  0  3G12G13G 9
  20987522.046    20987528.071     4831204.281 9 -17292987.068 2
  20917266.131    20917269.432    30191809.908 9 -41800114.314 3
  21701249.527    21701256.347    63279828.144 9 -92570927.733 3
 86  6 19  2 46 23.0800000  0  3G12G13G 9
  20986407.811    20986413.851     4825347.201 9 -17297551.021 6
  20918454.394    20918461.530    30198053.780 9 -41795248.976 7
  21704951.058    21704957.314    63299281.087 8 -92555769.588 5
 86  6 19  2 46 29.0800000  0  3G12G13G 9
  20985297.639    20985303.085     4819514.445 9 -17302096.019 7
  20919642.482    20919649.422    30204306.916 9 -41790376.395 7
  21708656.240    21708662.377    63318751.103 8 -92540598.138 6
 86  6 19  2 46 35.0800000  0  3G12G13G 9
  20984192.548    20984198.202     4813706.061 9 -17306622.049 6
  20920834.433    20920843.333    30210569.366 9 -41785496.576 8
  21712363.289    21712370.161    63338238.173 9 -92525413.421 6
 86  6 19  2 46 41.0800000  0  3G12G13G 9
  20983092.168    20983096.348     4807922.090 9 -17311129.033 1
  20922027.223    20922035.614    30216841.096 9 -41780609.538 1
  21716075.213    21716074.256    63357742.250 8 -92510215.460 1
 86  6 19  2 46 47.0800000  0  3G12G13G 9
  20981995.552    20982001.113     4802162.521 9 -17315617.036 6
  20923227.628    20923232.640    30223122.174 1 -41775715.169 1
  21719790.341    21719795.638    63377263.136 8 -92495004.359 5
 86  6 19  2 46 53.0800000  0  3G12G13G 9
  20980902.782    20980910.307     4796427.254 9 -17320086.034 6
  20924421.244    20924419.598    30229412.472 1 -41770813.696 1
  21723508.439    21723514.364    63396800.799 7 -92479780.192 6
 86  6 19  2 46 59.0800000  0  3G12G13G 9
  20979816.348    20979823.808     4790716.221 9 -17324536.202 7
                  20925619.243    30235751.377 1
  21727229.556    21727235.851    63416355.256 8 -92464542.988 6
 86  6 19  2 47  5.0800000  0  3G12G13G 9
  20978734.963    20978741.035     4785029.512 9 -17328967.388 5
  20926819.106    20926825.055    30242059.466 1 -41696292.884 1
  21730953.031    21730961.040    63435926.509 7 -92449292.679 5
 86  6 19  2 47 11.0800000  0  3G12G13G 9
  20977656.434    20977661.925     4779367.242 9 -17333379.600 2
  20928020.882    20928033.952    30248377.091 1 -41691369.973 1
  21734682.125    21734682.980    63455514.510 8 -92434029.277 1
 86  6 19  2 47 17.0800000  0  3G12G13G 9
  20976584.318    20976591.787     4773729.452 9 -17337772.652 7
                  20929225.943    30254704.113 1
  21738411.554    21738418.899    63475119.335 8 -92418752.789 6
 86  6 19  2 47 23.0800000  0  3G12G13G 9
  20975516.232    20975524.328     4768116.131 8 -17342146.677 7
  20930433.832    20930440.695    30261039.759 1 -41640291.520 1
  21742146.479    21742152.368    63494740.985 8 -92403463.197 7
 86  6 19  2 47 29.0800000  0  3G12G13G 9
  20974452.887    20974458.804     4762527.322 8 -17346501.595 8
  20931643.576    20931648.890    30267385.592 1 -41635347.629 1
  21745883.568    21745888.403    63514379.532 8 -92388160.452 8
 86  6 19  2 47 35.0800000  0  3G12G13G 9
  20973391.220    20973400.074     4756963.025 1 -17350837.435 1
  20932850.529    20932852.262    30273740.058 8 -41630396.059 1
  21749623.871    21749627.286    63534034.787 7 -92372844.645 1
 86  6 19  2 47 41.0800000  0  3G12G13G 9
  20972341.124    20972346.394     4751423.229 1 -17355154.119 1
  20934062.006    20934065.252    30280103.669 9 -41625437.404 7
  21753367.599    21753372.497    63553706.784 8 -92357515.840 7
 86  6 19  2 47 47.0800000  0  3G12G13G 9
  20971292.410    20971296.337     4745908.122 1 -17359451.629 1
  20935274.108    20935277.273    30286476.428 9 -41620471.583 4
  21757114.216    21757121.342    63573395.606 7 -92342173.876 3
 86  6 19  2 47 53.0800000  0  3G12G13G 9
  20970242.875    20970250.170     4740417.655 1 -17363729.908 1
  20936488.960    20936490.893    30292858.424 9 -41615498.606 7
  21760864.079    21760868.058    63593101.165 7 -92326818.927 6
 86  6 19  2 47 59.0800000  0  3G12G13G 9
  20969203.603    20969208.400     4734951.892 1 -17367988.970 1
  20937704.266    20937707.825    30299249.687 9 -41610518.416 8
  21764617.380    21764621.151    63612823.514 8 -92311450.856 6
 86  6 19  2 48  5.0800000  0  3G12G13G 9
  20968169.312    20968176.317     4729510.723 1 -17372228.823 1
  20938921.370    20938925.257    30305650.175 9 -41605531.021 6
  21768373.579    21768377.847    63632562.544 8 -92296069.798 5
 86  6 19  2 48 11.0800000  0  3G12G13G 9
  20967141.210    20967146.810     4724094.190 1 -17376449.517 1
  20940141.204    20940146.280    30312059.843 9 -41600536.475 7
  21772132.720    21772137.902    63652318.246 8 -92280675.747 6
 86  6 19  2 48 17.0800000  0  3G12G13G 9
  20966114.990    20966120.233     4718702.206 1 -17380651.057 1
  20941361.805    20941366.308    30318478.579 9 -41595534.851 6
  21775895.320    21775901.570    63672090.556 8 -92265268.743 7
 86  6 19  2 48 23.0800000  0  3G12G13G 9
  20965090.730    20965098.678     4713334.808 7 -17384833.425 6
  20942584.662    20942592.643    30324906.314 1 -41590526.257 1
  21779660.503    21779667.025    63691879.409 8 -92249848.881 7
 86  6 19  2 48 29.0800000  0  3G12G13G 9
  20964074.005    20964082.568     4707992.021 9 -17388996.676 1
                  20943808.058    30331343.042 1
  21783429.754    21783430.271    63711684.820 8 -92234416.125 1
 86  6 19  2 48 35.0800000  0  3G12G13G 9
  20963061.475    20963070.064     4702673.784 8 -17393140.737 5
  20945038.145    20945041.556    30337788.762 1 -41539365.439 1
  21787201.333    21787209.254    63731506.727 7 -92218970.453 4
 86  6 19  2 48 41.0800000  0  3G12G13G 9
  20962055.768    20962062.314     4697380.215 9 -17397265.602 7
  20946264.636    20946268.104    30344243.427 1 -41534335.826 1
  21790976.829    21790983.377    63751345.073 8 -92203512.010 6
 86  6 19  2 48 47.0800000  0  3G12G13G 9
  20961052.086    20961059.648     4692111.291 9 -17401371.247 4
  20947492.833    20947496.276    30350706.983 1 -41529298.846 1
  21794756.125    21794759.161    63771199.832 7 -92188040.796 1
 86  6 19  2 48 53.0800000  0  3G12G13G 9
  20960055.733    20960061.471     4686867.007 9 -17405457.704 7
  20948727.865    20948729.156    30357179.534 1 -41524255.288 1
  21798535.934    21798542.640    63791070.899 7 -92172556.836 6
 86  6 19  2 48 59.0800000  0  3G12G13G 9
  20959060.427    20959070.877     4681647.367 9 -17409525.005 1
                  20949960.047    30363661.033 1
  21802321.892    21802323.247    63810958.404 8 -92157060.064 2
 86  6 19  2 49  5.0800000  0  3G12G13G 9
                  20958079.960                   -17413572.945 6
  20951196.928    20951189.706    30370151.446 1 -41473062.462 1
  21806109.347    21806115.015    63830862.400 9 -92141550.489 6
 86  6 19  2 49 11.0800000  0  3G12G13G 9
  20957089.971    20957098.700     4640063.300 8 -17417601.646 7
  20952432.217    20952439.130    30376650.883 1 -41467997.784 1
  21809900.596    21809905.162    63850782.775 7 -92126028.110 8
 86  6 19  2 49 17.0800000  0  3G12G13G 9
  20956110.312    20956118.297     4634917.854 9 -17421611.081 7
  20953665.224    20953674.254    30383159.294 1 -41462926.309 1
  21813693.779    21813699.480    63870719.524 7 -92110492.984 7
 86  6 19  2 49 23.0800000  0  3G12G13G 9
  20955135.684    20955143.512     4629797.210 9 -17425601.202 7
                  20954976.735                   -41457594.697 4
  21817491.592    21817495.446    63890672.629 8 -92094945.121 7
 86  6 19  2 49 29.0800000  0  3G12G13G 9
  20954165.579    20954173.261     4624701.349 8 -17429572.004 6
                  21331501.118                    -8720425.790 5
  21821291.634    21821293.087    63910642.082 7 -92079384.488 5
 86  6 19  2 49 35.0800000  0  3G12G13G 9
  20953201.339    20953211.973     4619630.238 1 -17433523.523 1
                  20579904.423                    -8746795.518 5
  21825093.852    21825098.178    63930627.816 6 -92063811.225 2
 86  6 19  2 49 41.0800000  0  3G12G13G 9
                  20952241.281     4614584.038 3
                  21333367.487                    -8805616.369 1
  21828899.201    21828904.959    63950629.955 5 -92048225.197 2
 86  6 19  2 49 47.0800000  0  3G12G13G 9
  20951284.268    20951290.153     4609562.710 9 -17391220.828 7
                  20585706.374                    -8830509.766 1
  21832708.924    21832714.645    63970648.465 7 -92032626.331 8
 86  6 19  2 49 53.0800000  0  3G12G13G 9
  20950335.349    20950341.396     4604566.315 9 -17395114.149 7
                  20961137.692                    -8855219.418 8
  21836521.751    21836527.965    63990683.218 7 -92017014.853 7
 86  6 19  2 49 59.0800000  0  3G12G13G 9
  20949388.534    20949393.084     4599594.832 9 -17398987.509 4
                  20962388.933                    -8848648.386 9
  21840336.818    21840340.013    64010734.285 7 -92001390.660 2
 86  6 19  2 50  5.0800000  0  3G12G13G 9
  20948447.982    20948453.239     4594648.190 9 -17402842.058 6
  20963641.664    20963647.147    -8842068.617 9  11337147.401 1
  21844157.003    21844161.098    64030801.559 7 -91985753.839 6
 86  6 19  2 50 11.0800000  0  3G12G13G 9
  20947511.759    20947514.018     4589726.361 8 -17406677.221 6
  20964894.435    20964898.566    -8835480.108 9  11342281.305 5
  21847977.783    21847982.920    64050884.966 8 -91970104.425 5
 86  6 19  2 50 17.0800000  0  3G12G13G 9
  20946579.318    20946583.807     4584829.334 9 -17410493.115 7
  20966148.836    20966154.650    -8828882.790 8  11347422.057 8
  21851800.756    21851807.944    64070984.478 7 -91954442.487 7
 86  6 19  2 50 23.0800000  0  3G12G13G 9
  20945651.440    20945656.467     4579957.104 9 -17414289.655 3
  20967404.815    20967409.887    -8822276.768 8  11352569.632 5
  21855628.591    21855631.554    64091100.026 6 -91938768.029 1
 86  6 19  2 50 29.0800000  0  3G12G13G 9
  20944729.514    20944736.193     4575109.726 8 -17418066.836 7
  20968663.476    20968671.826    -8815661.916 9  11357724.026 6
  21859460.944    21859466.367    64111231.635 7 -91923081.099 5
 86  6 19  2 50 35.0800000  0  3G12G13G 9
  20943810.638    20943818.360     4570287.242 9 -17421824.614 7
  20969924.447    20969931.673    -8809038.343 8  11362885.270 8
  21863294.912    21863300.079    64131379.430 7 -91907381.512 7
 86  6 19  2 50 41.0800000  0  3G12G13G 9
  20942897.399    20942906.101     4565489.677 8 -17425562.975 8
  20971186.710    20971192.346    -8802405.986 8  11368053.334 8
  21867130.064    21867136.683    64151543.198 7 -91891669.479 7
 86  6 19  2 50 47.0800000  0  3G12G13G 9
  20941990.844    20941995.984     4560716.963 8 -17429281.927 5
  20972449.905    20972456.578    -8795764.943 8  11373228.165 6
  21870970.755    21870977.688    64171722.854 7 -91875945.062 5
 86  6 19  2 50 53.0800000  0  3G12G13G 9
  20941088.135    20941093.760     4555969.140 8 -17432981.553 8
  20973714.919    20973722.167    -8789115.288 9  11378409.721 7
  21874812.012    21874822.505    64191918.388 7 -91860208.311 6
 86  6 19  2 50 59.0800000  0  3G12G13G 9
  20940188.906    20940192.777     4551246.299 9 -17436661.687 7
  20974982.039    20974990.230    -8782456.973 8  11383598.024 6
  21878659.845    21878666.331    64212129.857 8 -91844459.092 5
 86  6 19  2 51  5.0800000  0  3G12G13G 9
  20939295.250    20939299.848     4546548.376 9 -17440322.422 6
  20976251.982    20976258.478    -8775789.966 9  11388793.067 7
  21882507.944    21882518.458    64232357.310 7 -91828697.464 4
 86  6 19  2 51 11.0800000  0  3G12G13G 9
  20938405.666    20938410.713     4541875.410 9 -17443963.698 4
  20977522.280    20977527.050    -8769114.274 8  11393994.931 3
  21886361.739    21886365.226    64252600.694 7 -91812923.374 3
 86  6 19  2 51 17.0800000  0  3G12G13G 9
  20937520.666    20937526.112     4537227.415 9 -17447585.506 7
  20978793.774    20978801.646    -8762429.881 9  11399203.534 9
  21890218.395    21890223.878    64272859.889 8 -91797137.002 7
 86  6 19  2 51 23.0800000  0  3G12G13G 9
  20936641.111    20936646.099     4532604.485 9 -17451187.797 8
  20980068.572    20980073.958    -8755736.775 9  11404418.932 7
  21894075.675    21894083.267    64293135.064 8 -91781338.176 7
 86  6 19  2 51 29.0800000  0  3G12G13G 9
  20935766.224    20935771.835     4528006.580 8 -17454770.577 8
  20981343.901    20981348.856    -8749035.067 9  11409641.066 7
  21897936.888    21897945.221    64313426.060 7 -91765527.019 7
 86  6 19  2 51 35.0800000  0  3G12G13G 9
  20934895.478    20934902.411     4523433.642 8 -17458333.906 6
  20982620.763    20982625.696    -8742324.727 9  11414869.886 6
  21901801.056    21901809.773    64333732.758 8 -91749703.627 6
 86  6 19  2 51 41.0800000  0  3G12G13G 9
  20934029.210    20934036.421     4518885.728 8 -17461877.734 8
  20983899.553    20983904.282    -8735605.839 8  11420105.397 7
  21905668.897    21905675.665    64354055.411 9 -91733867.793 7
 86  6 19  2 51 47.0800000  0  3G12G13G 9
  20933169.935    20933176.751     4514362.811 8 -17465402.094 7
  20985181.030    20985184.658    -8728878.499 9  11425347.476 8
  21909538.397    21909547.045    64374393.753 7 -91718019.745 7
 86  6 19  2 51 53.0800000  0  3G12G13G 9
  20932312.867    20932320.209     4509864.905 8 -17468906.946 5
  20986462.671    20986466.715    -8722142.706 9  11430596.188 3
  21913412.485    21913418.311    64394747.708 8 -91702159.502 3
 86  6 19  2 51 59.0800000  0  3G12G13G 9
  20931463.117    20931470.156     4505391.968 8 -17472392.354 7
  20987744.958    20987750.184    -8715398.407 8  11435851.442 8
  21917288.239    21917295.283    64415117.357 7 -91686287.063 7
 86  6 19  2 52  5.0800000  0  3G12G13G 9
  20930615.536    20930623.225     4500944.087 9 -17475858.241 6
  20989028.951    20989036.380    -8708645.589 9  11441113.388 8
  21921168.041    21921175.180    64435502.654 8 -91670402.424 8
 86  6 19  2 52 11.0800000  0  3G12G13G 9
  20929775.873    20929781.479     4496521.314 9 -17479304.564 8
  20990315.714    20990323.091    -8701884.270 9  11446381.950 9
  21925050.019    21925056.703    64455903.601 8 -91654505.571 9
 86  6 19  2 52 17.0800000  0  3G12G13G 9
  20928938.994    20928943.670     4492123.617 9 -17482731.353 5
  20991603.587    20991610.752    -8695114.443 8  11451657.121 5
  21928934.012    21928942.794    64476320.229 9 -91638596.524 5
 86  6 19  2 52 23.0800000  0  3G12G13G 9
  20928106.399    20928112.103     4487750.984 9 -17486138.589 8
  20992893.704    20992902.001    -8688335.995 8  11456939.036 9
  21932823.101    21932829.153    64496752.534 8 -91622675.246 8
 86  6 19  2 52 29.0800000  0  3G12G13G 9
  20927278.061    20927284.642     4483403.512 8 -17489526.236 8
  20994185.206    20994193.780    -8681548.954 9  11462227.620 9
  21936714.211    21936720.647    64517200.500 9 -91606741.773 8
 86  6 19  2 52 35.0800000  0  3G12G13G 9
  20926455.004    20926461.086     4479081.139 8 -17492894.323 8
  20995477.624    20995487.216    -8674753.475 9  11467522.787 8
  21940607.951    21940614.470    64537663.837 7 -91590796.316 8
 86  6 19  2 52 41.0800000  0  3G12G13G 9
  20925637.322    20925645.062     4474783.816 8 -17496242.893 8
  20996772.296    20996782.467    -8667949.639 9  11472824.455 9
  21944504.444    21944512.860    64558142.742 8 -91574838.756 8
 86  6 19  2 52 47.0800000  0  3G12G13G 9
  20924823.678    20924831.989     4470511.603 9 -17499571.895 8
  20998069.327    20998078.897    -8661137.498 9  11478132.616 8
  21948404.366    21948411.566    64578637.021 7 -91558869.205 7
 86  6 19  2 52 53.0800000  0  3G12G13G 9
  20924016.338    20924024.043     4466264.484 9 -17502881.334 8
  20999367.128    20999376.021    -8654316.948 9  11483447.326 8
  21952307.760    21952314.020    64599146.792 8 -91542887.555 8
 86  6 19  2 52 59.0800000  0  3G12G13G 9
  20923213.519    20923220.597     4462042.534 8 -17506171.155 3
  21000666.779    21000672.447    -8647487.979 9  11488768.595 4
  21956213.399    21956218.547    64619672.088 8 -91526893.816 5
 86  6 19  2 53  5.0800000  0  3G12G13G 9
  20922415.082    20922422.090     4457845.722 8 -17509441.400 9
  21001969.426    21001975.417    -8640650.714 9  11494096.329 8
  21960122.727    21960128.522    64640212.825 8 -91510888.047 9
 86  6 19  2 53 11.0800000  0  3G12G13G 9
  20921620.464    20921628.256     4453674.133 9 -17512691.981 8
  21003272.507    21003277.787    -8633805.138 9  11499430.542 8
  21964034.532    21964040.094    64660768.979 8 -91494870.272 8
 86  6 19  2 53 17.0800000  0  3G12G13G 9
  20920830.802    20920840.108     4449527.770 8 -17515922.945 8
  21004577.153    21004581.718    -8626951.175 9  11504771.302 8
  21967947.995    21967954.333    64681340.506 8 -91478840.512 8
 86  6 19  2 53 23.0800000  0  3G12G13G 9
  20920048.113    20920054.731     4445406.694 7 -17519134.166 8
  21005883.420    21005886.906    -8620088.768 9  11510118.633 8
  21971866.515    21971873.409    64701927.415 7 -91462798.782 7
 86  6 19  2 53 29.0800000  0  3G12G13G 9
  20919268.012    20919276.721     4441310.896 9 -17522325.703 8
  21007190.107    21007194.211    -8613217.961 9  11515472.512 8
  21975786.273    21975793.063    64722529.809 8 -91446744.988 6
 86  6 19  2 53 35.0800000  0  3G12G13G 9
  20918493.271    20918500.581     4437240.398 9 -17525497.529 8
  21008499.398    21008503.454    -8606338.683 9  11520832.990 8
  21979709.934    21979717.164    64743147.579 7 -91430679.189 8
 86  6 19  2 53 41.0800000  0  3G12G13G 9
  20917723.884    20917730.208     4433195.113 8 -17528649.698 3
  21009809.490    21009811.221    -8599451.051 9  11526200.011 3
  21983635.780    21983643.130    64763780.723 7 -91414601.402 4
 86  6 19  2 53 47.0800000  0  3G12G13G 9
  20916958.467    20916966.594     4429175.142 9 -17531782.143 8
  21011121.769    21011127.130    -8592555.027 9  11531573.498 7
  21987565.576    21987572.144    64784429.184 8 -91398511.715 7
 86  6 19  2 53 53.0800000  0  3G12G13G 9
  20916197.767    20916205.472     4425180.508 9 -17534894.838 7
  21012434.892    21012438.035    -8585650.747 9  11536953.449 6
  21991498.825    21991503.812    64805092.937 8 -91382410.105 4
 86  6 19  2 53 59.0800000  0  3G12G13G 9
  20915441.745    20915450.617     4421211.130 9 -17537987.851 8
  21013750.621    21013755.468    -8578738.134 9  11542339.907 8
  21995433.102    21995439.681    64825771.922 7 -91366296.607 8
 86  6 19  2 54  5.0800000  0  3G12G13G 9
  20914692.396    20914696.829     4417266.963 8 -17541061.210 5
  21015067.034    21015072.768    -8571817.278 8  11547732.794 3
  21999372.082    21999375.808    64846466.076 8 -91350171.286 5
 86  6 19  2 54 11.0800000  0  3G12G13G 9
  20913945.602    20913954.307     4413348.078 8 -17544114.894 9
  21016385.540    21016390.958    -8564888.136 9  11553132.116 8
  22003311.575    22003318.654    64867175.377 9 -91334034.181 8
 86  6 19  2 54 17.0800000  0  3G12G13G 9
  20913205.587    20913213.033     4409454.508 8 -17547148.872 7
  21017705.433    21017711.177    -8557950.808 9  11558537.829 7
  22007255.168    22007262.227    64887899.814 7 -91317885.282 7
 86  6 19  2 54 23.0800000  0  3G12G13G 9
  20912468.997    20912476.510     4405586.198 8 -17550163.121 6
  21019027.835    21019033.606    -8551005.310 9  11563949.923 7
  22011201.085    22011209.252    64908639.310 7 -91301724.630 6
 86  6 19  2 54 29.0800000  0  3G12G13G 9
  20911738.560    20911744.773     4401743.128 8 -17553157.738 6
  21020352.670    21020356.422    -8544051.791 9  11569368.236 6
  22015151.822    22015159.522    64929393.835 8 -91285552.290 7
 86  6 19  2 54 35.0800000  0  3G12G13G 9
  20911011.281    20911018.816     4397925.264 9 -17556132.691 7
  21021676.728    21021681.306    -8537090.199 9  11574792.850 8
  22019104.521    22019111.114    64950163.339 8 -91269368.269 8
 86  6 19  2 54 41.0800000  0  3G12G13G 9
  20910290.425    20910295.629     4394132.603 8 -17559088.027 8
  21023003.468    21023009.067    -8530120.609 9  11580223.717 8
  22023060.040    22023066.386    64970947.736 9 -91253172.652 8
 86  6 19  2 54 47.0800000  0  3G12G13G 9
  20909574.087    20909579.532     4390365.169 8 -17562023.685 7
  21024330.604    21024336.366    -8523143.035 9  11585660.787 8
  22027016.932    22027024.898    64991746.961 7 -91236965.459 8
 86  6 19  2 54 53.0800000  0  3G12G13G 9
  20908860.687    20908867.714     4386622.962 9 -17564939.690 8
  21025659.618    21025666.134    -8516157.466 8  11591104.083 8
  22030978.543    22030984.887    65012561.092 7 -91220746.687 9
 86  6 19  2 54 59.0800000  0  3G12G13G 9
  20908153.150    20908160.364     4382906.028 8 -17567835.965 5
  21026990.168    21026997.867    -8509163.854 9  11596553.656 5
  22034943.429    22034947.652    65033389.991 8 -91204516.375 4
 86  6 19  2 55  5.0800000  0  3G12G13G 9
  20907450.946    20907458.182     4379214.391 9 -17570712.585 6
  21028321.406    21028328.586    -8502162.162 9  11602009.511 5
  22038909.556    22038913.845    65054233.814 8 -91188274.438 4
 86  6 19  2 55 11.0800000  0  3G12G13G 9
  20906753.438    20906760.351     4375548.076 8 -17573569.452 9
  21029655.231    21029662.126    -8495152.478 9  11607471.600 7
  22042877.687    22042884.743    65075092.566 8 -91172020.876 8
 86  6 19  2 55 17.0800000  0  3G12G13G 9
  20906059.749    20906064.638     4371907.018 8 -17576406.659 5
  21030991.369    21030993.068    -8488134.795 9  11612939.940 6
  22046849.973    22046858.056    65095966.206 8 -91155755.721 5
 86  6 19  2 55 23.0800000  0  3G12G13G 9
  20905371.693    20905378.316     4368291.267 8 -17579224.123 5
  21032328.215    21032333.813    -8481109.060 9  11618414.540 5
  22050824.769    22050829.378    65116854.563 8 -91139479.062 3
 86  6 19  2 55 29.0800000  0  3G12G13G 9
  20904688.507    20904695.788     4364700.844 7 -17582021.844 7
  21033667.372    21033672.898    -8474075.300 8  11623895.384 7
  22054802.329    22054809.171    65137757.710 8 -91123190.907 8
 86  6 19  2 55 35.0800000  0  3G12G13G 9
  20904010.392    20904017.426     4361135.825 7 -17584799.789 7
  21035007.351    21035013.365    -8467033.460 9  11629382.549 9
  22058783.206    22058791.115    65158675.657 8 -91106891.215 8
 86  6 19  2 55 41.0800000  0  3G12G13G 9
  20903338.050    20903342.714     4357596.174 8 -17587557.958 7
  21036349.079    21036354.942    -8459983.577 9  11634875.957 8
  22062767.515    22062773.152    65179608.350 8 -91090580.032 7
 86  6 19  2 55 47.0800000  0  3G12G13G 9
  20902669.988    20902674.395     4354082.035 8 -17590296.235 8
  21037693.055    21037698.241    -8452925.689 9  11640375.609 8
  22066752.679    22066758.915    65200555.809 8 -91074257.335 8
 86  6 19  2 55 53.0800000  0  3G12G13G 9
  20902005.763    20902011.166     4350593.382 8 -17593014.675 7
  21039038.201    21039042.439    -8445859.778 9  11645881.513 9
  22070742.033    22070748.695    65221518.120 8 -91057923.068 8
 86  6 19  2 55 59.0800000  0  3G12G13G 9
  20901345.898    20901351.952     4347130.344 7 -17595713.128 6
  21040384.009    21040388.477    -8438785.799 9  11651393.711 6
  22074733.766    22074739.426    65242495.236 8 -91041577.271 6
 86  6 19  2 56  5.0800000  0  3G12G13G 9
  20900690.855    20900697.678     4343692.903 8 -17598391.684 4
  21041731.191    21041733.305    -8431703.717 9  11656912.219 5
  22078728.394    22078733.082    65263487.149 9 -91025219.941 3
 86  6 19  2 56 11.0800000  0  3G12G13G 9
  20900041.329    20900049.949     4340281.108 9 -17601050.229 8
  21043080.605    21043084.025    -8424613.529 9  11662437.021 8
  22082725.584    22082731.894    65284493.811 8 -91008851.116 7
 86  6 19  2 56 17.0800000  0  3G12G13G 9
  20899397.574    20899405.203     4336894.981 8 -17603688.777 7
  21044431.188    21044435.414    -8417515.281 9  11667968.127 7
  22086725.927    22086731.840    65305515.259 8 -90992470.773 7
 86  6 19  2 56 23.0800000  0  3G12G13G 9
  20898757.737    20898766.442     4333534.395 8 -17606307.406 5
  21045782.634    21045786.702    -8410409.038 9  11673505.460 6
  22090728.644    22090734.913    65326551.482 9 -90976078.920 4
 86  6 19  2 56 29.0800000  0  4G12G13G 9G 7
  20898122.511    20898131.547     4330199.357 8 -17608906.153 6
  21047136.136    21047140.481    -8403294.863 9  11679048.972 6
  22094736.124    22094740.547    65347602.367 8 -90959675.628 6
                  26481457.751   -11194828.622 9
 86  6 19  2 56 35.0800000  0  4G12G13G 9G 7
  20897495.011    20897500.454     4326889.833 9 -17611485.015 8
  21048491.846    21048496.062    -8396172.706 9  11684598.695 8
  22098743.575    22098750.163    65368667.858 9 -90943260.966 9
                  26477740.600   -11214368.663 9
 86  6 19  2 56 41.0800000  0  4G12G13G 9G 7
  20896869.614    20896875.698     4323605.881 9 -17614043.921 8
  21049848.894    21049853.524    -8389042.747 9  11690154.502 8
  22102755.993    22102759.675    65389747.788 9 -90926835.044 6
                  26474026.321   -11233892.400 7
 86  6 19  2 56 47.0800000  0  4G12G13G 9G 7
  20896249.103    20896254.125     4320347.360 8 -17616583.021 2
  21051206.985    21051213.400    -8381905.003 9  11695716.388 6
  22106769.766    22106774.193    65410842.231 9 -90910397.830 3
                  26470314.546   -11253400.605 8
 86  6 19  2 56 53.0800000  0  4G12G13G 9G 7
  20895634.708    20895640.111     4317114.350 9 -17619102.259 7
  21052567.090    21052571.774    -8374759.334 9  11701284.444 8
  22110787.281    22110792.910    65431951.180 9 -90893949.324 8
                  26466606.754   -11272885.242 8
 86  6 19  2 56 59.0800000  0  4G12G13G 9G 7
  20895023.659    20895031.460     4313906.839 9 -17621601.624 8
  21053927.997    21053934.207    -8367605.822 9  11706858.592 7
  22114806.218    22114812.547    65453074.611 8 -90877489.509 7
                  26462902.705   -11292348.567 8
 86  6 19  2 57  5.0800000  0  4G12G13G 9G 7
  20894418.979    20894423.269     4310725.018 9 -17624080.969 6
  21055290.607    21055295.649    -8360444.573 9  11712438.794 6
  22118829.010    22118834.513    65474212.452 8 -90861018.488 3
                  26459202.942   -11311794.996 8
 86  6 19  2 57 11.0800000  0  4G12G13G 9G 7
  20893818.083    20893824.604     4307568.653 7 -17626540.495 4
  21056653.755    21056660.491    -8353275.583 8  11718025.034 6
  22122853.832    22122859.188    65495364.662 8 -90844536.259 4
                  26455504.252   -11331228.739 7
 86  6 19  2 57 17.0800000  0  4G12G13G 9G 7
  20893220.732    20893229.338     4304437.699 8 -17628980.204 8
  21058019.150    21058027.047    -8346098.931 8  11723617.211 7
  22126881.909    22126887.636    65516531.124 9 -90828042.910 7
  26451808.324    26451814.839   -11350653.461 9  14613766.100 1
 86  6 19  2 57 23.0800000  0  4G12G13G 9G 7
  20892630.845    20892638.288     4301332.297 8 -17631399.983 8
  21059386.904    21059393.377    -8338914.589 9  11729215.402 8
  22130912.016    22130917.534    65537711.836 9 -90811538.467 7
  26448112.456    26448119.055   -11370071.115 9  14598635.456 7
 86  6 19  2 57 29.0800000  0  4G12G13G 9G 7
  20892043.341    20892053.435     4298252.415 8 -17633799.881 7
  21060755.484    21060761.884    -8331722.490 8  11734819.654 7
  22134944.967    22134952.841    65558906.867 8 -90795022.866 6
  26444418.331    26444421.143   -11389482.939 8  14583509.357 4
 86  6 19  2 57 35.0800000  0  4G12G13G 9G 7
  20891462.385    20891470.112     4295198.111 7 -17636179.857 4
  21062126.382    21062131.524    -8324522.676 8  11740429.880 6
  22138980.560    22138985.149    65580116.175 8 -90778496.139 5
  26440724.499    26440731.649   -11408887.364 8  14568389.035 3
 86  6 19  2 57 41.0800000  0  4G12G13G 9G 7
  20890885.586    20890895.286     4292169.393 9 -17638539.915 7
  21063499.248    21063503.492    -8317315.114 9  11746046.168 8
  22143020.112    22143024.743    65601339.760 8 -90761958.284 6
                  26437044.323                    14553279.039 5
 86  6 19  2 57 47.0800000  0  4G12G13G 9G 7
  20890314.983    20890323.666     4289166.241 8 -17640880.040 5
  21064872.099    21064875.693    -8310099.787 9  11751668.504 5
  22147061.686    22147066.412    65622577.633 9 -90745409.271 7
  26433349.361    26433355.928   -11464434.693 7  14538185.050 4
 86  6 19  2 57 53.0800000  0  4G12G13G 9G 7
  20889749.070    20889756.053     4286188.687 8 -17643200.211 7
  21066246.734    21066251.117    -8302876.791 8  11757296.801 8
  22151105.578    22151111.268    65643829.696 8 -90728849.245 7
  26429666.284    26429675.164   -11483781.700 7  14523109.429 6
 86  6 19  2 57 59.0800000  0  4G12G13G 9G 7
  20889188.501    20889194.849     4283236.685 8 -17645500.467 8
  21067622.097    21067626.523    -8295646.237 9  11762930.978 7
  22155151.817    22155157.172    65665095.935 9 -90712278.154 7
  26425986.950    26425999.273   -11503107.922 7  14508050.450 7
 86  6 19  2 58  5.0800000  0  4G12G13G 9G 7
  20888631.673    20888638.012     4280310.324 9 -17647780.758 8
  21068998.551    21069004.216    -8288408.052 9  11768571.141 8
  22159202.015    22159205.515    65686376.270 9 -90695696.077 8
  26422314.272    26422324.131   -11522416.816 6  14493004.548 6
 86  6 19  2 58 11.0800000  0  4G12G13G 9G 7
  20888079.309    20888086.108     4277409.581 8 -17650041.076 8
  21070377.339    21070383.693    -8281162.190 9  11774217.253 8
  22163253.997    22163259.792    65707670.731 8 -90679102.992 7
  26418642.939    26418652.132   -11541713.603 7  14477968.115 6
 86  6 19  2 58 17.0800000  0  4G12G13G 9G 7
  20887530.994    20887535.666     4274534.402 8 -17652281.450 4
  21071756.713    21071762.945    -8273908.832 8  11779869.226 3
  22167309.623    22167313.238    65728979.264 9 -90662498.931 3
  26414973.078    26414977.835   -11561001.083 6  14462938.909 1
 86  6 19  2 58 23.0800000  0  4G12G13G 9G 7
  20886987.354    20886996.355     4271684.748 8 -17654501.969 7
  21073137.821    21073144.370    -8266647.903 8  11785527.084 7
  22171366.516    22171371.877    65750301.830 8 -90645883.970 7
  26411302.919    26411312.298   -11580281.478 8  14447915.240 6
 86  6 19  2 58 29.0800000  0  4G12G13G 9G 7
  20886449.917    20886456.407     4268860.719 8 -17656702.487 5
  21074521.649    21074529.330    -8259379.452 9  11791190.826 4
  22175426.053    22175429.431    65771638.351 9 -90629258.103 3
  26407635.432    26407640.707   -11599555.842 7  14432896.246 5
 86  6 19  2 58 35.0800000  0  4G12G13G 9G 7
  20885916.116    20885925.490     4266062.389 8 -17658883.022 7
  21075906.440    21075913.075    -8252103.366 9  11796860.485 7
  22179489.826    22179496.089    65792988.892 9 -90612621.345 7
  26403970.623    26403979.726   -11618822.104 8  14417883.562 6
 86  6 19  2 58 41.0800000  0  4G12G13G 9G 7
  20885390.187    20885398.574     4263289.816 9 -17661043.470 3
  21077292.469    21077298.114    -8244819.624 8  11802536.123 2
  22183554.705    22183562.460    65814353.516 9 -90595973.587 2
                  21104686.796   -12054436.614 7
 86  6 19  2 58 47.0800000  0  4G12G13G 9G 7
  20884868.385    20884877.514     4260542.888 8 -17663183.944 7
  21078681.083    21078684.796    -8237528.283 9  11808217.687 7
  22187623.830    22187628.981    65835732.176 9 -90579314.893 8
                  21098336.296   -12075001.585 1
 86  6 19  2 58 53.0800000  0  4G12G13G 9G 7
  20884352.258    20884358.908     4257821.620 8 -17665304.411 8
  21080069.332    21080075.593    -8230229.440 9  11813905.097 7
  22191694.174    22191698.629    65857124.745 8 -90562645.376 7
                  21097854.893   -12128519.016 1
 86  6 19  2 58 59.0800000  0  4G12G13G 9G 7
  20883840.532    20883844.104     4255125.998 8 -17667404.896 6
  21081459.490    21081465.306    -8222923.058 8  11819598.398 7
  22195768.155    22195773.138    65878531.255 9 -90545964.985 7
                  21094356.918   -12160707.893 1
 86  6 19  2 59  5.0800000  0  4G12G13G 9G 7
  20883331.157    20883336.723     4252456.127 8 -17669485.324 8
  21082850.156    21082856.503    -8215609.111 8  11825297.578 8
  22199844.824    22199849.041    65899951.689 9 -90529273.743 7
                  21091169.367   -12192199.383 1
 86  6 19  2 59 11.0800000  0  4G12G13G 9G 7
  20882826.638    20882835.193     4249811.944 8 -17671545.731 7
  21084242.715    21084250.561    -8208287.498 8  11831002.715 6
  22203922.962    22203927.252    65921386.051 8 -90512571.640 6
                  21174461.536   -12223848.377 1
 86  6 19  2 59 17.0800000  0  4G12G13G 9G 7
  20882327.258    20882336.361     4247193.434 8 -17673586.125 8
  21085637.594    21085645.503    -8200958.319 8  11836713.756 8
  22208004.287    22208010.048    65942834.254 9 -90495858.774 8
                  21281959.143   -12243466.092 8
 86  6 19  2 59 23.0800000  0  4G12G13G 9G 7
  20881833.712    20881842.690     4244600.708 6 -17675606.445 6
  21087036.356    21087041.788    -8193621.619 6  11842430.658 6
  22212087.281    22212094.070    65964296.410 6 -90479135.016 6
                  21278291.633   -12262591.776 8
 86  6 19  2 59 29.0800000  0  4G12G13G 9G 7
  20881345.764    20881353.542     4242033.742 7 -17677606.659 9
  21088434.629    21088439.900    -8186277.449 8  11848153.382 8
  22216174.524    22216181.078    65985772.367 8 -90462400.518 9
                  20375272.601   -12281725.275 8
 86  6 19  2 59 35.0800000  0  4G12G13G 9G 7
  20880862.425    20880870.153     4239492.551 8 -17679586.809 7
  21089833.185    21089836.951    -8178925.806 9  11853881.937 7
  22220262.995    22220270.439    66007262.091 8 -90445655.277 7
                  26367480.385   -12300849.939 8
 86  6 19  2 59 41.0800000  0  4G12G13G 9G 7
  20880384.351    20880391.406     4236977.130 6 -17681546.878 7
  21091233.094    21091238.641    -8171566.689 7  11859616.309 7
  22224355.983    22224362.994    66028765.627 7 -90428899.280 7
                  26363845.309   -12319961.948 8
 86  6 19  2 59 47.0800000  0  4G12G13G 9G 7
  20879911.700    20879917.719     4234487.493 9 -17683486.846 8
  21092634.267    21092641.283    -8164200.102 9  11865356.499 7
  22228449.309    22228457.370    66050282.901 8 -90412132.573 8
                  20364362.619   -12339048.861 8
 86  6 19  2 59 53.0800000  0  4G12G13G 9G 7
  20879442.765    20879449.004     4232023.675 9 -17685406.698 7
  21094037.532    21094043.240    -8156826.082 9  11871102.495 8
  22232547.586    22232553.799    66071813.985 8 -90395355.117 9
                  26356584.540   -12358111.687 9
 86  6 19  2 59 59.0800000  0  4G12G13G 9G 7
  20878979.980    20878984.386     4229585.662 9 -17687306.457 7
  21095443.373    21095447.771    -8149444.613 9  11876854.289 8
  22236647.529    22236655.260    66093358.792 9 -90378566.956 8
                  26352958.116   -12377153.632 8
 86  6 19  3  0  5.0800000  0  4G12G13G 9G 7
  20878520.943    20878526.135     4227173.484 8 -17689186.080 7
  21096848.953    21096854.283    -8142055.697 8  11882611.892 9
  22240750.858    22240756.560    66114917.235 9 -90361768.169 9
                  26349342.398   -12396179.008 7
 86  6 19  3  0 11.0800000  0  4G12G13G 9G 7
  20878065.927    20878071.816     4224787.179 9 -17691045.547 8
  21098256.692    21098262.765    -8134659.286 9  11888375.332 8
  22244855.086    22244861.060    66136489.391 9 -90344958.707 7
  26345723.661    26345731.953   -12415192.537 7  15935123.253 2
 86  6 19  3  0 17.0800000  0  4G12G13G 9G 7
  20877615.871    20877622.790     4222426.718 9 -17692884.876 7
  21099665.231    21099670.948    -8127255.480 9  11894144.532 7
  22248962.363    22248969.721    66158075.175 9 -90328138.618 7
  26342109.010    26342112.766   -12434196.488 7  15920314.956 5
 86  6 19  3  0 23.0800000  0  4G12G13G 9G 7
  20877171.631    20877177.744     4220092.062 8 -17694704.094 8
  21101074.964    21101081.397    -8119844.288 9  11899919.468 8
  22253074.045    22253078.869    66179674.536 9 -90311307.948 8
  26338493.865    26338499.435   -12453193.228 7  15905512.311 6
 86  6 19  3  0 29.0800000  0  4G12G13G 9G 7
  20876732.963    20876738.598     4217783.184 8 -17696503.214 8
  21102486.517    21102492.899    -8112425.859 8  11905700.074 8
  22257185.522    22257192.035    66201287.510 9 -90294466.670 9
  26334881.395    26334885.067   -12472183.211 8  15890714.922 7
 86  6 19  3  0 35.0800000  0  4G12G13G 9G 7
  20876297.930    20876304.525     4215500.082 8 -17698282.270 8
  21103898.654    21103906.707    -8105000.167 9  11911486.320 8
  22261301.067    22261308.292    66222913.968 8 -90277614.889 8
  26331268.004    26331272.321   -12491163.620 8  15875924.979 7
 86  6 19  3  0 41.0800000  0  4G12G13G 9G 7
  20875870.429    20875872.607     4213242.725 9 -17700041.228 3
  21105313.139    21105319.863    -8097567.304 9  11917278.210 4
  22265419.186    22265425.692    66244553.846 8 -90260752.681 4
                  26327659.660   -12510127.569 7
 86  6 19  3  0 47.0800000  0  4G12G13G 9G 7
  20875445.342    20875449.116     4211011.105 8 -17701780.171 7
  21106729.422    21106736.940    -8090127.103 9  11923075.714 8
  22269540.545    22269547.107    66266207.133 9 -90243879.991 7
  26324052.954    26324060.451   -12529068.681 8  15907568.058 7
 86  6 19  3  0 53.0800000  0  4G12G13G 9G 7
  20875024.782    20875029.344     4208805.327 8 -17703498.956 7
  21108145.949    21108153.046    -8082679.660 9  11928878.926 8
  22273663.041    22273668.458    66287873.922 8 -90226996.782 8
  26320455.870    26320459.113   -12547985.605 9  15892827.625 7
 86  6 19  3  0 59.0800000  0  4G12G13G 9G 7
  20874610.112    20874614.121     4206625.518 9 -17705197.529 6
  21109565.209    21109573.189    -8075224.911 9  11934687.814 7
  22277788.741    22277795.149    66309554.113 9 -90210103.157 6
  26316858.424    26316863.700   -12566881.596 7  15878102.946 5
 86  6 19  3  1  5.0800000  0  4G12G13G 9G 7
  20874198.738    20874202.785     4204471.589 8 -17706875.891 2
  21110985.845    21110993.198    -8067762.866 9  11940502.415 3
  22281916.665    22281921.112    66331247.695 8 -90193199.052 5
  26313264.757    26313267.972   -12585761.539 7  15863391.358 1
 86  6 19  3  1 11.0800000  0  4G12G13G 9G 7
  20873794.576    20873796.282     4202343.557 9 -17708534.126 4
  21112407.374    21112411.243    -8060293.500 9  11946322.708 4
  22286046.559    22286051.907    66352954.710 9 -90176284.491 6
  26309676.301    26309682.708   -12604629.516 6  15848689.013 4
 86  6 19  3  1 17.0800000  0  4G12G13G 9G 7
  20873393.630    20873400.309     4200241.335 8 -17710172.234 7
  21113830.026    21113836.991    -8052816.933 9  11952148.565 8
  22290180.130    22290187.756    66374675.092 9 -90159359.552 8
  26306086.197    26306091.883   -12623488.109 7  15833994.009 6
 86  6 19  3  1 23.0800000  0  4G12G13G 9G 7
  20872999.316    20873006.344     4198164.954 7 -17711790.175 5
  21115254.265    21115260.038    -8045333.243 9  11957980.037 6
  22294317.252    22294321.881    66396408.808 9 -90142424.197 7
  26302499.628    26302505.807   -12642339.199 8  15819304.853 6
 86  6 19  3  1 29.0800000  0  4G12G13G 9G 7
  20872608.854    20872613.714     4196114.374 9 -17713388.053 3
  21116679.756    21116682.088    -8037842.389 9  11963817.054 6
  22298455.708    22298460.437    66418155.737 8 -90125478.549 4
  26298913.262    26298915.174   -12661183.150 7  15804621.288 4
 86  6 19  3  1 35.0800000  0  4G12G13G 9G 7
  20872223.302    20872229.926     4194089.560 8 -17714965.821 5
  21118105.981    21118113.187    -8030344.432 8  11969659.603 4
  22302595.340    22302601.798    66439915.807 9 -90108522.640 4
  26295330.474    26295335.138   -12680016.641 7  15789945.822 4
 86  6 19  3  1 41.0800000  0  4G12G13G 9G 7
  20871844.254    20871850.371     4192090.554 8 -17716523.504 8
  21119534.509    21119539.453    -8022839.314 9  11975507.768 8
  22306739.479    22306744.320    66461689.025 9 -90091556.503 8
                  26291747.972   -12698832.701 6
 86  6 19  3  1 47.0800000  0  4G12G13G 9G 7
  20871467.236    20871473.865     4190117.362 8 -17718061.045 7
  21120963.200    21120967.519    -8015327.019 8  11981361.485 6
  22310884.655    22310889.728    66483475.481 8 -90074580.053 8
  26288172.205    26288178.784   -12717625.162 6  15821705.487 8
 86  6 19  3  1 53.0800000  0  4G12G13G 9G 7
  20871096.157    20871103.571     4188170.090 9 -17719578.405 7
  21122394.507    21122398.267    -8007807.621 9  11987220.761 7
  22315034.175    22315038.822    66505275.159 9 -90057593.278 8
  26284599.548    26284607.381   -12736393.441 8  15807080.887 7
 86  6 19  3  1 59.0800000  0  4G12G13G 9G 7
  20870731.512    20870736.762     4186248.760 9 -17721075.560 4
  21123825.814    21123831.836    -8000281.119 8  11993085.559 4
  22319184.859    22319189.014    66527088.060 8 -90040596.230 5
  26281033.589    26281039.137   -12755141.140 7  15792472.280 6
 86  6 19  3  2  5.0800000  0  4G12G13G 9G 7
  20870370.764    20870375.866     4184353.366 8 -17722552.478 8
  21125259.424    21125265.629    -7992747.467 8  11998955.937 7
  22323338.094    22323342.451    66548914.130 9 -90023588.911 8
  26277469.168    26277475.870   -12773873.021 9  15777876.036 7
 86  6 19  3  2 11.0800000  0  4G12G13G 9G 7
  20870013.586    20870018.431     4182483.974 8 -17724009.133 3
  21126695.645    21126700.532    -7985206.573 9  12004831.968 2
  22327493.752    22327499.375    66570753.331 9 -90006571.333 5
  26273906.633    26273914.054   -12792592.877 7  15763289.157 5
 86  6 19  3  2 17.0800000  0  4G12G13G 9G 7
  20869664.283    20869669.914     4180640.598 9 -17725445.551 6
  21128131.536    21128137.100    -7977658.503 9  12010713.594 7
  22331651.955    22331658.295    66592605.650 9 -89989543.574 8
  26270346.344    26270353.192   -12811303.172 7  15748709.691 7
 86  6 19  3  2 23.0800000  0  4G12G13G 9G 7
  20869319.426    20869323.722     4178823.235 9 -17726861.688 8
  21129569.586    21129575.511    -7970103.216 9  12016600.825 8
  22335812.495    22335818.138    66614471.126 9 -89972505.535 7
  26266786.393    26266795.127   -12830006.010 8  15734136.062 7
 86  6 19  3  2 29.0800000  0  4G12G13G 9G 7
  20868978.503    20868985.009     4177031.814 9 -17728257.602 5
  21131007.839    21131011.744    -7962540.781 9  12022493.638 3
  22339975.889    22339977.739    66636349.737 9 -89955457.267 5
  26263230.855    26263235.133   -12848701.115 8  15719568.459 6
 86  6 19  3  2 35.0800000  0  4G12G13G 9G 7
  20868643.413    20868648.396     4175266.398 9 -17729633.253 4
  21132449.016    21132453.484    -7954971.308 9  12028391.930 4
  22344141.964    22344144.908    66658241.355 9 -89938398.868 5
                  26259674.973   -12867385.910 6
 86  6 19  3  2 41.0800000  0  4G12G13G 9G 7
  20868311.958    20868317.246     4173527.063 9 -17730988.578 8
  21133891.554    21133897.409    -7947394.676 9  12034295.789 8
  22348308.807    22348315.614    66680146.033 9 -89921330.301 9
                  26256123.417   -12886046.800 8
 86  6 19  3  2 47.0800000  0  4G12G13G 9G 7
  20867984.993    20867990.911     4171813.749 9 -17732323.611 7
  21135334.415    21135342.366    -7939810.995 9  12040205.170 7
  22352480.855    22352488.357    66702063.693 9 -89904251.614 7
  26252576.764    26252582.282   -12904687.488 8  15766554.399 7
 86  6 19  3  2 53.0800000  0  4G12G13G 9G 7
  20867663.280    20867669.610     4170126.446 9 -17733638.408 8
  21136779.006    21136785.343    -7932220.120 9  12046120.111 8
  22356652.800    22356659.069    66723994.440 9 -89887162.739 7
  26249033.681    26249040.253   -12923303.820 9  15752048.128 7
 86  6 19  3  2 59.0800000  0  4G12G13G 9G 7
  20867346.829    20867355.056     4168465.235 8 -17734932.835 3
  21138225.754    21138231.412    -7924622.164 9  12052040.599 5
  22360829.090    22360836.151    66745938.136 8 -89870063.721 5
  26245495.165    26245500.340   -12941899.709 8  15737557.829 4
 86  6 19  3  3  5.0800000  0  4G12G13G 9G 7
  20867035.997    20867040.898     4166830.080 9 -17736206.992 3
  21139671.915    21139677.457    -7917017.259 8  12057966.489 6
  22365007.259    22365011.088    66767894.878 9 -89852954.596 6
  26241958.696    26241966.303   -12960479.906 8  15723079.757 5
 86  6 19  3  3 11.0800000  0  4G12G13G 9G 7
  20866730.262    20866735.317     4165220.856 9 -17737460.953 6
  21141120.088    21141126.327    -7909405.374 9  12063897.854 7
  22369189.487    22369193.722    66789864.428 9 -89835835.487 7
  26238425.608    26238432.935   -12979048.286 8  15708610.879 5
 86  6 19  3  3 17.0800000  0  4G12G13G 9G 7
  20866430.148    20866433.392     4163637.501 8 -17738694.738 8
  21142570.278    21142577.246    -7901786.601 9  12069834.549 8
  22373372.112    22373377.202    66811846.697 9 -89818706.463 7
  26234893.480    26234900.815   -12997607.177 8  15694149.418 8
 86  6 19  3  3 23.0800000  0  4G12G13G 9G 7
  20866134.323    20866137.561     4162080.015 9 -17739908.366 7
  21144021.387    21144028.473    -7894161.026 9  12075776.549 8
  22377556.996    22377563.923    66833841.632 9 -89801567.571 7
  26231364.180    26231371.577   -13016158.510 9  15679693.827 8
 86  6 19  3  3 29.0800000  0  4G12G13G 9G 7
  20865842.519    20865847.630     4160548.324 8 -17741101.892 4
  21145474.187    21145480.883    -7886528.726 9  12081723.810 6
  22381744.953    22381749.516    66855849.123 8 -89784418.875 4
  26227834.260    26227839.897   -13034701.991 9  15665244.393 3
 86  6 19  3  3 35.0800000  0  4G12G13G 9G 7
  20865555.035    20865559.618     4159042.546 9 -17742275.227 7
  21146927.591    21146935.060    -7878889.637 9  12087676.351 8
  22385935.314    22385940.324    66877869.220 9 -89767260.368 6
                  26224307.683   -13053233.378 8
 86  6 19  3  3 41.0800000  0  4G12G13G 9G 7
  20865273.856    20865279.365     4157562.621 8 -17743428.424 8
  21148382.223    21148388.750    -7871243.703 9  12093634.222 9
  22390129.043    22390134.325    66899902.048 8 -89750091.941 7
  26220785.718    26220800.394   -13071745.543 9  15697208.025 3
 86  6 19  3  3 47.0800000  0  4G12G13G 9G 7
  20864997.395    20865004.177     4156108.570 9 -17744561.465 7
  21149838.923    21149845.765    -7863591.020 9  12099597.356 8
  22394323.436    22394328.109    66921947.424 9 -89732913.729 7
  26217267.814    26217275.812   -13090232.823 8  15682802.103 7
 86  6 19  3  3 53.0800000  0  4G12G13G 9G 7
  20864724.152    20864730.460     4154680.500 9 -17745674.232 7
  21151295.885    21151301.115    -7855931.545 9  12105565.781 7
  22398520.048    22398524.709    66944005.378 9 -89715725.701 7
  26213753.352    26213761.902   -13108695.925 8  15668415.765 7
 86  6 19  3  3 59.0800000  0  4G12G13G 9G 7
  20864457.028    20864461.679     4153278.395 8 -17746766.780 3
  21152755.136    21152760.061    -7848265.245 9  12111539.523 4
  22402720.729    22402725.120    66966075.938 9 -89698527.879 3
  26210244.357    26210253.089   -13127138.915 7  15654044.607 5
 86  6 19  3  4  5.0800000  0  4G12G13G 9G 7
  20864195.664    20864202.086     4151902.335 9 -17747839.044 7
  21154215.189    21154220.871    -7840592.060 9  12117518.624 8
  22406923.341    22406928.509    66988159.139 9 -89681320.204 7
  26206739.153    26206745.496   -13145566.417 8  15639685.525 8
 86  6 19  3  4 11.0800000  0  4G12G13G 9G 7
  20863938.965    20863945.637     4150552.381 8 -17748890.962 7
  21155677.891    21155681.520    -7832911.971 9  12123503.112 7
  22411127.691    22411132.075    67010254.982 8 -89664102.672 7
  26203233.908    26203242.006   -13163981.999 8  15625335.723 7
 86  6 19  3  4 17.0800000  0  4G12G13G 9G 7
  20863686.892    20863692.591     4149228.527 9 -17749922.527 6
  21157139.043    21157144.741    -7825224.990 9  12129492.956 8
  22415333.970    22415338.668    67032363.432 9 -89646875.302 8
  26199731.159    26199739.373   -13182387.971 9  15610993.408 8
 86  6 19  3  4 23.0800000  0  4G12G13G 9G 7
  20863439.317    20863444.526     4147930.748 8 -17750933.791 1
  21158603.494    21158607.171    -7817531.186 8  12135488.147 5
  22419543.972    22419550.137    67054484.537 8 -89629638.076 4
  26196231.318    26196237.913   -13200786.017 8  15596657.283 4
 86  6 19  3  4 29.0800000  0  4G12G13G 9G 7
  20863198.007    20863204.191     4146658.982 8 -17751924.795 3
  21160067.694    21160075.607    -7809830.586 8  12141488.574 5
  22423755.192    22423760.154    67076618.131 8 -89612391.141 5
  26192730.592    26192737.417   -13219175.552 8  15582327.776 5
 86  6 19  3  4 35.0800000  0  4G12G13G 9G 7
  20862960.079    20862966.352     4145413.215 9 -17752895.531 7
  21161533.295    21161540.987    -7802123.263 8  12147494.256 8
  22427970.142    22427975.883    67098764.120 9 -89595134.513 7
                  26189241.490                    15568008.612 7
 86  6 19  3  4 41.0800000  0  4G12G13G 9G 7
  20862728.293    20862735.173     4144193.575 9 -17753845.905 6
  21163001.580    21163009.244    -7794409.204 8  12153505.219 7
  22432186.861    22432191.668    67120922.568 8 -89577868.205 7
  26185644.938    26185747.535   -13273721.705 8  15553705.331 7
 86  6 19  3  4 47.0800000  0  4G12G13G 9G 7
  20862500.054    20862508.063     4143000.090 9 -17754775.903 7
  21164471.093    21164477.031    -7786688.421 8  12159521.407 9
  22436406.064    22436412.661    67143093.573 8 -89560592.094 8
  26182254.747    26182262.064   -13292052.042 8  15539421.933 8
 86  6 19  3  4 53.0800000  0  4G12G13G 9G 7
  20862278.602    20862284.778     4141832.653 8 -17755685.608 5
  21165941.584    21165946.486    -7778960.858 8  12165542.911 4
  22440627.636    22440631.796    67165276.990 8 -89543306.297 5
  26178769.457    26178776.239   -13310358.345 9  15525157.289 6
 86  6 19  3  4 59.0800000  0  4G12G13G 9G 7
  20862061.878    20862067.656     4140691.378 9 -17756574.909 7
  21167412.712    21167420.031    -7771226.404 9  12171569.735 8
  22444850.753    22444857.758    67187472.846 9 -89526010.861 7
  26175289.977    26175297.899   -13328644.725 9  15510908.152 7
 86  6 19  3  5  5.0800000  0  4G12G13G 9G 7
  20861847.891    20861853.333     4139576.302 8 -17757443.791 3
  21168885.181    21168894.324    -7763485.188 8  12177601.847 6
  22449077.468    22449082.805    67209681.143 8 -89508705.697 6
  26171813.549    26171819.096   -13346915.758 8  15496670.978 6
 86  6 19  3  5 11.0800000  0  4G12G13G 9G 7
  20861640.501    20861649.293     4138487.454 8 -17758292.266 7
  21170360.401    21170368.724    -7755737.184 8  12183639.250 7
  22453306.599    22453311.903    67231901.836 8 -89491390.874 8
  26168338.982    26168344.868   -13365174.787 7  15482443.157 8
 86  6 19  3  5 17.0800000  0  4G12G13G 9G 7
  20861439.769    20861444.849     4137424.776 8 -17759120.303 4
  21171835.204    21171843.691    -7747982.363 8  12189681.975 4
  22457535.709    22457541.190    67254134.970 9 -89474066.334 5
  26164864.720    26164868.632   -13383424.089 8  15468222.958 5
 86  6 19  3  5 23.0800000  0  4G12G13G 9G 7
  20861242.974    20861244.896     4136388.300 9 -17759927.944 3
  21173313.556    21173320.123    -7740220.657 8  12195730.052 6
  22461769.132    22461772.517    67276380.525 8 -89456732.141 5
  26161396.114    26161399.754   -13401665.221 8  15454009.095 5
 86  6 19  3  5 29.0800000  0  4G12G13G 9G 7
  20861050.421    20861057.830     4135378.046 8 -17760715.151 7
  21174791.679    21174799.015    -7732452.167 9  12201783.414 8
  22466005.960    22466011.414    67298638.422 8 -89439388.352 8
  26157925.344    26157932.007   -13419897.096 8  15439802.430 9
 86  6 19  3  5 35.0800000  0  4G12G13G 9G 7
  20860863.114    20860868.784     4134393.908 8 -17761482.023 8
  21176272.877    21176278.286    -7724676.939 9  12207842.025 8
  22470242.935    22470249.671    67320908.617 8 -89422034.962 7
                  26154464.789                    15425606.846 7
 86  6 19  3  5 41.0800000  0  4G12G13G 9G 7
  20860680.256    20860687.065     4133435.896 8 -17762228.538 7
  21177753.045    21177759.069    -7716895.082 9  12213905.814 7
  22474484.057    22474489.983    67343191.049 9 -89404672.032 8
  26151001.980    26151001.951   -13474349.588 9  15411428.001 7
 86  6 19  3  5 47.0800000  0  4G12G13G 9G 7
  20860503.040    20860508.657     4132504.094 8 -17762954.627 3
  21179236.622    21179241.303    -7709106.503 9  12219974.830 3
  22478725.808    22478729.258    67365485.740 8 -89387299.530 5
  26147539.032    26147540.313   -13492520.298 7  15397269.330 4
 86  6 19  3  5 53.0800000  0  4G12G13G 9G 7
  20860330.466    20860337.680     4131598.421 7 -17763660.349 2
  21180720.567    21180725.045    -7701311.238 9  12226049.067 5
  22482970.083    22482975.791    67387792.652 8 -89369917.560 3
  26144086.233    26144091.517   -13510666.600 8  15383129.358 5
 86  6 19  3  5 59.0800000  0  4G12G13G 9G 7
  20860164.323    20860170.153     4130718.870 8 -17764345.702 7
  21182205.093    21182209.314    -7693509.386 9  12232128.441 8
  22487218.139    22487223.516    67410111.663 9 -89352526.123 7
  26140636.296    26140642.349   -13528793.007 8  15369004.882 8
 86  6 19  3  6  5.0800000  0  4G12G13G 9G 7
  20860002.377    20860007.693     4129865.477 9 -17765010.683 7
  21183690.158    21183694.887    -7685700.962 9  12238212.930 8
  22491467.622    22491472.092    67432442.850 8 -89335125.200 6
  26137189.594    26137194.545   -13546904.346 9  15354892.160 7
 86  6 19  3  6 11.0800000  0  4G12G13G 9G 7
  20859844.490    20859850.490     4129038.159 8 -17765655.339 7
  21185177.823    21185180.710    -7677885.963 8  12244302.547 8
  22495719.742    22495723.834    67454786.118 8 -89317714.871 7
  26133745.924    26133751.272   -13565003.709 8  15340788.752 8
 86  6 19  3  6 17.0800000  0  4G12G13G 9G 7
  20859690.767    20859699.323     4128236.909 8 -17766279.679 1
  21186665.104    21186670.145    -7670064.420 9  12250397.264 4
  22499972.514    22499980.984    67477141.365 9 -89300295.190 4
  26130303.018    26130305.457   -13583093.497 9  15326692.822 4
 86  6 19  3  6 23.0800000  0  4G12G13G 9G 7
  20859543.289    20859551.670     4127461.680 8 -17766883.759 7
  21188155.411    21188160.154    -7662236.440 9  12256496.971 9
  22504229.888    22504234.633    67499508.435 8 -89282866.321 7
  26126861.582    26126867.048   -13601175.134 8  15312603.255 8
 86  6 19  3  6 29.0800000  0  4G12G13G 9G 7
  20859399.289    20859406.594     4126712.444 8 -17767467.581 7
  21189646.641    21189651.177    -7654402.069 9  12262601.663 7
  22508488.767    22508493.128    67521887.377 8 -89265428.200 7
  26123423.599    26123427.704   -13619247.278 9  15298521.075 7
 86  6 19  3  6 35.0800000  0  4G12G13G 9G 7
  20859262.407    20859269.894     4125989.246 8 -17768031.103 6
  21191139.016    21191145.523    -7646561.242 8  12268711.421 6
  22512748.719    22512752.711    67544278.169 9 -89247980.831 4
                  26119989.998                    15284450.667 6
 86  6 19  3  6 41.0800000  0  4G12G13G 9G 7
  20859130.415    20859136.273     4125292.137 8 -17768574.300 3
  21192631.424    21192636.376    -7638714.050 8  12274826.121 5
  22517012.713    22517016.816    67566680.799 8 -89230524.267 3
  26116464.202    26116559.229   -13673537.079 9  15270397.560 6
 86  6 19  3  6 47.0800000  0  4G12G13G 9G 7
  20859004.152    20859011.470     4124621.071 8 -17769097.223 8
  21194125.859    21194131.616    -7630860.434 9  12280945.790 8
  22521276.692    22521282.632    67589095.258 8 -89213058.463 7
  26113128.750    26113133.620   -13691545.911 8  15256364.743 8
 86  6 19  3  6 53.0800000  0  4G12G13G 9G 7
  20858881.923    20858887.724     4123976.089 8 -17769599.800 6
  21195621.239    21195627.809    -7623000.523 9  12287070.395 8
  22525545.215    22525551.327    67611521.512 9 -89195583.457 6
  26109705.895    26109711.453   -13709531.027 8  15242350.373 7
 86  6 19  3  6 59.0800000  0  4G12G13G 9G 7
  20858764.994    20858770.444     4123357.257 9 -17770082.031 8
  21197118.847    21197124.839    -7615134.207 9  12293200.004 8
  22529815.411    22529819.742    67633959.576 8 -89178099.263 7
  26106285.770    26106293.167   -13727496.728 9  15228351.122 8
 86  6 19  3  7  5.0800000  0  4G12G13G 9G 7
  20858651.566    20858657.512     4122764.503 8 -17770543.910 4
  21198615.066    21198620.496    -7607261.457 9  12299334.625 5
  22534086.879    22534091.550    67656409.409 9 -89160605.891 2
  26102869.699    26102876.017   -13745447.450 9  15214363.588 4
 86  6 19  3  7 11.0800000  0  4G12G13G 9G 7
  20858542.718    20858549.371     4122197.892 9 -17770985.424 5
  21200114.636    21200121.580    -7599382.218 9  12305474.272 6
  22538361.298    22538367.320    67678871.061 7 -89143103.327 4
  26099456.345    26099463.252   -13763386.202 8  15200385.329 6
 86  6 19  3  7 17.0800000  0  4G12G13G 9G 7
  20858437.782    20858447.124     4121657.425 9 -17771406.562 8
  21201616.709    21201622.846    -7591496.697 9  12311618.834 8
  22542637.079    22542642.667    67701344.433 8 -89125591.640 7
  26096044.729    26096051.216   -13781315.251 8  15186414.642 8
 86  6 19  3  7 23.0800000  0  4G12G13G 9G 7
  20858340.675    20858348.017     4121143.127 8 -17771807.311 8
  21203117.228    21203124.620    -7583604.768 9  12317768.390 8
  22546916.165    22546921.865    67723829.477 9 -89108070.816 6
  26092634.152    26092641.679   -13799235.793 9  15172450.589 8
 86  6 19  3  7 29.0800000  0  4G12G13G 9G 7
  20858247.376    20858255.746     4120655.037 9 -17772187.670 7
  21204622.253    21204627.829    -7575706.489 9  12323922.900 6
  22551197.582    22551202.660    67746326.242 8 -89090540.900 8
  26089227.000    26089235.447   -13817146.078 9  15158494.515 8
 86  6 19  3  7 35.0800000  0  4G12G13G 9G 7
  20858161.485    20858166.793     4120193.020 9 -17772547.659 5
  21206126.078    21206131.604    -7567801.905 9  12330082.325 5
  22555481.015    22555486.242    67768834.621 8 -89073001.886 2
                  26085827.708                    15144550.873 4
 86  6 19  3  7 41.0800000  0  4G12G13G 9G 7
  20858078.793    20858083.380     4119757.165 9 -17772887.312 5
  21207630.759    21207635.901    -7559891.091 9  12336246.586 5
  22559767.187    22559770.650    67791354.659 8 -89055453.822 3
  26082421.204    26082424.749   -13871271.625 5  15130625.284 5
 86  6 19  3  7 47.0800000  0  4G12G13G 9G 7
  20858002.127    20858007.777     4119347.390 8 -17773206.605 8
  21209137.460    21209143.746    -7551973.890 8  12342415.818 8
  22564053.137    22564059.532    67813886.207 7 -89037896.770 7
  26079025.328    26079032.578   -13889116.562 8  15116720.138 8
 86  6 19  3  7 53.0800000  0  4G12G13G 9G 7
  20857928.760    20857935.427     4118963.843 9 -17773505.475 8
  21210645.011    21210650.876    -7544050.238 9  12348590.090 9
  22568343.482    22568349.582    67836429.371 8 -89020330.682 6
  26075634.021    26075640.737   -13906937.610 9  15102833.613 8
 86  6 19  3  7 59.0800000  0  4G12G13G 9G 7
  20857860.406    20857868.125     4118606.584 9 -17773783.865 8
  21212154.729    21212159.554    -7536120.253 9  12354769.309 8
  22572635.046    22572642.987    67858984.166 8 -89002755.522 7
  26072245.862    26072253.427   -13924739.376 9  15088962.113 8
 86  6 19  3  8  5.0800000  0  4G12G13G 9G 7
  20857796.431    20857802.985     4118275.613 9 -17774041.780 5
  21213664.480    21213669.182    -7528183.792 9  12360953.576 4
  22576929.747    22576936.786    67881550.757 8 -88985171.143 2
  26068861.003    26068868.345   -13942526.123 8  15075102.305 5
 86  6 19  3  8 11.0800000  0  4G12G13G 9G 7
  20857738.495    20857745.404     4117970.916 8 -17774279.186 5
  21215175.392    21215178.793    -7520241.010 9  12367142.716 6
  22581225.742    22581233.883    67904129.008 8 -88967577.732 4
  26065478.177    26065485.803   -13960300.858 9  15061251.897 5
 86  6 19  3  8 17.0800000  0  4G12G13G 9G 7
  20857685.249    20857692.560     4117692.489 8 -17774496.167 7
  21216687.423    21216693.373    -7512291.874 9  12373336.865 8
  22585525.802    22585532.278    67926718.832 8 -88949975.269 7
  26062098.413    26062104.691   -13978065.544 8  15047409.264 9
 86  6 19  3  8 23.0800000  0  4G12G13G 9G 7
  20857636.559    20857641.928     4117440.266 8 -17774692.673 7
  21218200.494    21218207.893    -7504336.352 9  12379535.958 6
  22589826.974    22589832.361    67949320.162 9 -88932363.837 3
  26058719.249    26058724.338   -13995821.418 9  15033573.523 6
 86  6 19  3  8 29.0800000  0  4G12G13G 9G 7
  20857595.736    20857600.387     4117214.340 9 -17774868.747 7
  21219716.916    21219723.313    -7496374.467 8  12385740.025 7
  22594129.018    22594133.940    67971932.954 9 -88914743.479 7
  26055342.786    26055349.463   -14013566.333 9  15019746.303 8
 86  6 19  3  8 35.0800000  0  4G12G13G 9G 7
  20857557.793    20857562.037     4117014.609 9 -17775024.362 4
  21221232.407    21221238.689    -7488406.329 8  12391948.954 5
  22598434.597    22598440.473    67994557.168 8 -88897114.228 4
                  26051976.796                    15005932.474 5
 86  6 19  3  8 41.0800000  0  4G12G13G 9G 7
  20857524.937    20857529.433     4116841.159 9 -17775159.524 8
  21222750.767    21222757.435    -7480431.842 9  12398162.833 8
  22602741.089    22602748.165    68017192.927 8 -88879475.994 7
  26048601.201    26048607.587   -14067520.264 9  14992137.382 8
 86  6 19  3  8 47.0800000  0  4G12G13G 9G 7
  20857496.651    20857502.234     4116694.022 9 -17775274.185 7
  21224270.187    21224275.578    -7472451.013 8  12404381.657 8
  22607052.285    22607058.644    68039840.129 8 -88861828.817 7
  26045236.719    26045242.973   -14085197.232 9  14978363.125 8
 86  6 19  3  8 53.0800000  0  4G12G13G 9G 7
  20857473.273    20857482.105     4116573.102 9 -17775368.424 5
  21225790.076    21225793.964    -7464463.937 9  12410605.353 5
  22611363.424    22611370.483    68062498.777 8 -88844172.745 1
  26041877.331    26041883.756   -14102850.960 8  14964607.359 5
 86  6 19  3  8 59.0800000  0  4G12G13G 9G 7
  20857455.631    20857461.242     4116478.430 9 -17775442.181 7
  21227310.587    21227318.051    -7456470.627 9  12416833.911 8
  22615677.445    22615683.526    68085168.827 7 -88826507.783 7
  26038521.158    26038530.435   -14120485.043 8  14950866.533 8
 86  6 19  3  9  5.0800000  0  4G12G13G 9G 7
  20857442.477    20857450.161     4116410.012 9 -17775495.509 6
  21228832.889    21228836.796    -7448471.156 9  12423067.268 7
  22619993.867    22619998.703    68107850.077 8 -88808834.070 4
  26035168.715    26035175.353   -14138104.373 9  14937137.167 6
 86  6 19  3  9 11.0800000  0  4G12G13G 9G 7
  20857434.542    20857442.935     4116367.876 9 -17775528.344 7
  21230357.320    21230361.907    -7440465.404 9  12429305.510 8
  22624310.401    22624318.328    68130542.640 8 -88791151.554 6
  26031818.388    26031824.160   -14155711.638 9  14923417.229 7
 86  6 19  3  9 17.0800000  0  4G12G13G 9G 7
  20857432.619    20857436.131     4116352.053 9 -17775540.663 5
  21231881.642    21231886.773    -7432453.405 9  12435548.640 4
  22628632.418    22628635.142    68153246.492 8 -88773460.227 3
  26028468.960    26028475.848   -14173308.980 8  14909705.023 4
 86  6 19  3  9 23.0800000  0  4G12G13G 9G 7
  20857434.401    20857439.154     4116362.505 8 -17775532.524 8
  21233407.648    21233412.017    -7424435.152 9  12441796.617 8
  22632953.613    22632961.601    68175961.787 7 -88755760.038 5
  26025121.926    26025128.408   -14190897.017 9  14896000.060 8
 86  6 19  3  9 29.0800000  0  4G12G13G 9G 7
  20857441.267    20857442.896     4116399.335 9 -17775503.795 3
  21234935.109    21234938.438    -7416410.680 9  12448049.453 5
  22637278.138    22637283.851    68198688.371 7 -88738050.997 2
  26021775.693    26021783.624   -14208473.323 8  14882304.230 4
 86  6 19  3  9 35.0800000  0  4G12G13G 9G 7
  20857453.349    20857456.734     4116462.467 9 -17775454.623 7
  21236463.715    21236468.954    -7408380.023 9  12454307.113 8
  22641605.629    22641613.344    68221426.135 7 -88720333.267 7
                  26018443.729                    14868622.537 7
 86  6 19  3  9 41.0800000  0  4G12G13G 9G 7
  20857469.652    20857473.793     4116551.905 9 -17775384.923 8
  21237992.550    21237997.602    -7400343.197 9  12460569.574 8
  22645933.522    22645941.417    68244175.074 9 -88702606.846 7
  26015098.501    26015103.623   -14262264.282 8  14854960.262 6
 86  6 19  3  9 47.0800000  0  4G12G13G 9G 7
  20857490.350    20857493.578     4116667.534 9 -17775294.797 6
  21239522.645    21239527.671    -7392300.213 9  12466836.840 7
  22650264.637    22650271.167    68266935.112 7 -88684871.767 4
  26011767.100    26011776.886   -14279770.781 8  14841318.818 6
 86  6 19  3  9 53.0800000  0  4G12G13G 9G 7
  20857516.482    20857522.534     4116809.438 8 -17775184.251 5
  21241054.071    21241060.018    -7384251.147 9  12473108.827 6
  22654598.473    22654604.396    68289706.276 8 -88667127.992 3
  26008440.623    26008447.969   -14297253.292 7  14827695.684 6
 86  6 19  3  9 59.0800000  0  4G12G13G 9G 7
  20857549.445    20857554.244     4116977.639 9 -17775053.186 8
  21242586.251    21242591.454    -7376195.975 9  12479385.586 8
  22658934.877    22658940.270    68312488.474 7 -88649375.617 5
  26005118.067    26005126.275   -14314717.475 8  14814087.220 9
 86  6 19  3 10  5.0800000  0  4G12G13G 9G 7
  20857584.510    20857592.220     4117172.052 8 -17774901.713 7
  21244120.327    21244125.450    -7368134.658 8  12485667.132 8
  22663272.834    22663279.212    68335281.774 7 -88631614.620 6
  26001796.579    26001805.188   -14332166.834 8  14800490.330 7
 86  6 19  3 10 11.0800000  0  4G12G13G 9G 7
  20857628.120    20857634.060     4117392.736 8 -17774729.731 3
  21245655.776    21245661.168    -7360067.286 9  12491953.404 4
  22667612.503    22667616.255    68358086.019 6 -88613845.044 2
  25998478.049    25998483.600   -14349604.125 8  14786902.852 4
 86  6 19  3 10 17.0800000  0  4G12G13G 9G 7
  20857675.652    20857680.142     4117639.732 8 -17774537.279 5
  21247193.022    21247198.519    -7351993.906 9  12498244.324 6
  22671953.901    22671957.565    68380901.210 7 -88596067.010 3
  25995162.742    25995168.999   -14367031.578 7  14773323.007 5
 86  6 19  3 10 23.0800000  0  4G12G13G 9G 7
  20857728.287    20857734.435     4117912.906 9 -17774324.411 8
  21248729.281    21248735.095    -7343914.607 9  12504539.888 8
  22676298.096    22676304.292    68403727.327 7 -88578280.432 6
  25991847.951    25991857.404   -14384449.708 8  14759750.433 8
 86  6 19  3 10 29.0800000  0  4G12G13G 9G 7
  20857785.682    20857791.356     4118212.335 9 -17774091.084 6
  21250267.633    21250274.825    -7335829.305 9  12510840.115 7
  22680643.000    22680649.512    68426564.308 7 -88560485.373 4
  25988536.098    25988543.816   -14401855.597 8  14746187.400 7
 86  6 19  3 10 35.0800000  0  4G12G13G 9G 7
  20857847.735    20857853.488     4118538.005 9 -17773837.319 6
  21251806.808    21251813.196    -7327738.096 9  12517144.957 8
  22684991.005    22684995.014    68449412.204 6 -88542681.825 3
                  25985236.231                    14732639.343 7
 86  6 19  3 10 41.0800000  0  4G12G13G 9G 7
  20857915.040    20857921.282     4118889.819 9 -17773563.148 4
  21253348.161    21253353.224    -7319640.969 9  12523454.409 5
  22689340.757    22689340.172    68472270.835 7 -88524869.912 1
  25981923.848    25981928.690   -14455470.067 6  14719111.075 5
 86  6 19  3 10 47.0800000  0  4G12G13G 9G 7
  20857986.732    20857992.958     4119267.789 9 -17773268.644 6
  21254890.627    21254893.905    -7311537.990 9  12529768.416 5
  22693691.512    22693695.906    68495140.109 6 -88507049.710 1
  25978626.334    25978631.844   -14472804.636 9  14705603.605 6
 86  6 19  3 10 53.0800000  0  4G12G13G 9G 7
  20858062.274    20858068.331     4119671.827 9 -17772953.810 8
  21256433.803    21256440.011    -7303429.272 9  12536086.881 8
  22698046.606    22698051.305    68518020.055 6 -88489221.171 6
  25975332.444    25975339.646   -14490116.558 9  14692114.183 8
 86  6 19  3 10 59.0800000  0  4G12G13G 9G 7
  20858143.488    20858150.005     4120101.945 9 -17772618.668 7
  21257978.387    21257983.526    -7295314.745 9  12542409.899 8
  22702402.605    22702410.124    68540910.689 6 -88471384.310 5
  25972041.951    25972049.100   -14507409.460 9  14678639.200 8
 86  6 19  3 11  5.0800000  0  4G12G13G 9G 7
  20858230.313    20858236.720     4120558.239 9 -17772263.114 8
  21259523.780    21259529.997    -7287194.389 9  12548737.454 8
  22706759.616    22706765.992    68563811.975 6 -88453539.163 5
  25968752.887    25968760.862   -14524687.862 9  14665175.510 9
 86  6 19  3 11 11.0800000  0  4G12G13G 9G 7
  20858322.064    20858327.405     4121040.749 9 -17771887.136 4
  21261069.483    21261075.399    -7279068.116 9  12555069.621 5
  22711120.812    22711127.880    68586724.039 7 -88435685.623 2
  25965467.496    25965474.724   -14541954.174 8  14651721.232 5
 86  6 19  3 11 17.0800000  0  4G12G13G 9G 7
  20858418.640    20858426.896     4121549.562 8 -17771490.667 8
  21262616.695    21262621.884    -7270935.922 9  12561406.401 7
  22715482.446    22715489.424    68609646.698 7 -88417823.811 5
  25962183.155    25962190.138   -14559210.380 8  14638274.851 8
 86  6 19  3 11 23.0800000  0  4G12G13G 9G 7
  20858521.812    20858527.656     4122084.635 9 -17771073.748 5
  21264165.251    21264170.240    -7262797.814 9  12567747.785 6
  22719845.842    22719852.314    68632580.070 7 -88399953.651 2
  25958901.533    25958908.989   -14576456.814 8  14624836.050 6
 86  6 19  3 11 29.0800000  0  4G12G13G 9G 7
  20858628.689    20858634.897     4122646.024 9 -17770636.292 7
  21265715.542    21265722.681    -7254653.763 9  12574093.796 8
  22724212.696    22724217.116    68655524.181 7 -88382075.125 5
  25955621.714    25955628.453   -14593690.185 8  14611407.470 8
 86  6 19  3 11 35.0800000  0  4G12G13G 9G 7
  20858741.854    20858746.047     4123233.705 9 -17770178.330 7
  21267266.241    21267273.126    -7246503.834 9  12580444.382 9
  22728580.084    22728586.096    68678478.888 8 -88364188.329 6
                  25952353.328                    14597994.580 7
 86  6 19  3 11 41.0800000  0  4G12G13G 9G 7
  20858858.976    20858863.614     4123847.709 9 -17769699.895 8
  21268818.151    21268825.568    -7238347.991 8  12586799.583 8
  22732949.462    22732957.834    68701444.195 6 -88346293.272 5
  25949076.047    25949083.065   -14647134.504 9  14584602.044 8
 86  6 19  3 11 47.0800000  0  4G12G13G 9G 7
  20858980.417    20858984.186     4124487.992 9 -17769200.971 8
  21270372.693    21270379.203    -7230186.326 8  12593159.325 8
  22737320.851    22737328.148    68724420.159 7 -88328389.916 5
  25945810.727    25945816.837   -14664294.652 8  14571230.491 8
 86  6 19  3 11 53.0800000  0  4G12G13G 9G 7
  20859107.082    20859112.023     4125154.645 9 -17768681.510 7
  21271926.615    21271932.228    -7222018.739 8  12599523.677 7
  22741695.990    22741704.677    68747406.674 7 -88310478.346 5
  25942550.406    25942555.858   -14681431.542 9  14557877.082 7
 86  6 19  3 11 59.0800000  0  4G12G13G 9G 7
  20859239.330    20859242.842     4125847.699 9 -17768141.474 5
  21273481.668    21273487.545    -7213845.271 9  12605892.620 6
  22746072.070    22746075.162    68770403.885 6 -88292558.437 3
  25939291.964    25939298.286   -14698549.903 8  14544538.090 3
 86  6 19  3 12  5.0800000  0  4G12G13G 9G 7
  20859374.498    20859380.066     4126567.084 9 -17767580.923 9
  21275037.592    21275045.882    -7205665.884 8  12612266.150 8
  22750450.788    22750456.089    68793411.597 6 -88274630.334 5
  25936037.930    25936042.699   -14715653.565 8  14531210.583 7
 86  6 19  3 12 11.0800000  0  4G12G13G 9G 7
  20859516.830    20859519.933     4127312.852 8 -17766999.818 7
  21276594.711    21276600.888    -7197480.583 9  12618644.307 6
  22754830.807    22754834.854    68816429.824 6 -88256694.034 2
  25932784.946    25932788.724   -14732745.019 9  14517892.560 5
 86  6 19  3 12 17.0800000  0  4G12G13G 9G 7
  20859663.450    20859669.749     4128084.920 8 -17766398.208 7
  21278153.116    21278160.819    -7189289.457 9  12625027.004 7
  22759213.214    22759217.944    68839458.550 6 -88238749.572 4
  25929535.490    25929540.050   -14749826.287 8  14504582.492 6
 86  6 19  3 12 23.0800000  0  4G12G13G 9G 7
  20859814.521    20859819.649     4128883.411 9 -17765776.021 5
  21279713.579    21279718.621    -7181092.477 9  12631414.271 5
  22763596.618    22763606.996    68862497.741 6 -88220796.933 1
  25926287.035    25926290.799   -14766897.306 8  14491280.404 3
 86  6 19  3 12 29.0800000  0  4G12G13G 9G 7
  20859973.025    20859978.079     4129708.272 9 -17765133.276 3
  21281274.156    21281279.056    -7172889.631 8  12637806.100 5
  22767980.622    22767989.908    68885547.505 6 -88202836.094 1
  25923039.994    25923044.918   -14783954.427 8  14477989.126 4
 86  6 19  3 12 35.0800000  0  4G12G13G 9G 7
  20860135.682    20860139.657     4130559.516 9 -17764469.958 8
  21282836.629    21282842.300    -7164680.967 9  12644202.448 7
  22772371.154    22772375.790    68908607.712 5 -88184867.089 5
                  25919803.074                    14464714.394 6
 86  6 19  3 12 41.0800000  0  4G12G13G 9G 7
  20860302.160    20860307.570     4131437.181 9 -17763786.069 6
  21284400.359    21284405.267    -7156466.457 9  12650603.372 7
  22776763.135    22776768.213    68931678.387 5 -88166889.957 5
  25916561.852    25916564.923   -14837217.316 8  14451460.621 6
 86  6 19  3 12 47.0800000  0  4G12G13G 9G 7
  20860473.738    20860480.604     4132341.271 9 -17763081.582 6
  21285964.397    21285969.774    -7148246.164 9  12657008.780 7
  22781153.174    22781159.934    68954759.466 5 -88148904.734 3
  25913331.360    25913335.271   -14854199.347 8  14438227.894 5
 86  6 19  3 12 53.0800000  0  4G12G13G 9G 7
  20860651.047    20860659.213     4133271.794 8 -17762356.490 3
  21287528.704    21287534.071    -7140019.985 9  12663418.784 4
  22785547.014    22785552.266    68977851.000 5 -88130911.361 2
  25910103.589    25910106.146   -14871158.241 9  14425013.171 4
 86  6 19  3 12 59.0800000  0  4G12G13G 9G 7
  20860832.090    20860839.242     4134228.642 9 -17761610.900 8
  21289095.416    21289101.990    -7131788.064 9  12669833.271 7
  22789940.855    22789951.827    69000952.684 4 -88112910.044 5
  25906878.401    25906883.676   -14888098.763 8  14411812.752 7
 86  6 19  3 13  5.0800000  0  4G12G13G 9G 7
  20861019.426    20861025.553     4135211.782 9 -17760844.792 7
  21290662.698    21290668.096    -7123550.373 9  12676252.258 7
  22794343.373    22794349.442    69024064.737 6 -88094900.662 5
  25903659.072    25903662.243   -14905024.613 9  14398623.783 7
 86  6 19  3 13 11.0800000  0  4G12G13G 9G 7
  20861210.435    20861219.656     4136221.117 9 -17760058.312 5
  21292231.558    21292236.483    -7115306.977 9  12682675.687 5
  22798742.970    22798748.198    69047186.864 6 -88076883.408 1
  25900439.972    25900444.914   -14921938.143 9  14385444.410 3
 86  6 19  3 13 17.0800000  0  4G12G13G 9G 7
  20861409.312    20861414.283     4137256.703 8 -17759251.356 7
  21293802.192    21293807.394    -7107057.975 9  12689103.478 6
  22803144.242    22803149.876    69070319.237 7 -88058858.244 3
  25897222.674    25897228.765   -14938841.322 8  14372273.110 6
 86  6 19  3 13 23.0800000  0  4G12G13G 9G 7
  20861611.873    20861617.989     4138318.564 9 -17758423.949 8
  21295372.483    21295378.070    -7098803.457 9  12695535.569 8
  22807550.863    22807556.122    69093461.653 7 -88040825.152 5
  25894008.696    25894013.485   -14955734.032 9  14359109.958 8
 86  6 19  3 13 29.0800000  0  4G12G13G 9G 7
  20861819.903    20861824.394     4139406.634 9 -17757576.098 5
  21296944.262    21296950.485    -7090543.346 9  12701972.014 6
  22811954.650    22811962.432    69116614.147 6 -88022784.281 2
                  25890800.555                    14345958.204 3
 86  6 19  3 13 35.0800000  0  4G12G13G 9G 7
  20862031.650    20862036.903     4140520.889 9 -17756707.849 7
  21298518.493    21298524.765    -7082277.643 9  12708412.837 8
  22816360.461    22816370.190    69139776.665 6 -88004735.582 5
  25887602.132    25887594.835   -15008865.013 9  14332823.363 7
 86  6 19  3 13 41.0800000  0  4G12G13G 9G 7
  20862247.350    20862253.266     4141661.348 9 -17755819.186 7
  21300091.732    21300099.410    -7074006.314 9  12714858.035 8
  22820772.094    22820777.862    69162949.085 7 -87986679.145 6
  25884386.561    25884393.215   -15025693.998 8  14319709.866 8
 86  6 19  3 13 47.0800000  0  4G12G13G 9G 7
  20862469.790    20862475.743     4142828.052 9 -17754910.055 6
  21301666.765    21301673.831    -7065729.538 9  12721307.471 6
  22825181.917    22825191.092    69186131.663 7 -87968614.759 2
  25881188.619    25881194.615   -15042496.151 9  14306617.291 6
 86  6 19  3 13 53.0800000  0  4G12G13G 9G 7
  20862694.731    20862700.145     4144020.996 9 -17753980.472 4
  21303242.354    21303249.026    -7057447.258 9  12727761.188 5
  22829598.060    22829610.485    69209324.058 7 -87950542.824 1
  25877996.525    25878000.883   -15059274.864 8  14293542.594 4
 86  6 19  3 13 59.0800000  0  4G12G13G 9G 7
  20862927.700    20862934.023     4145240.243 9 -17753030.426 7
  21304818.811    21304825.567    -7049159.477 9  12734219.212 7
  22834015.443    22834018.981    69232526.455 8 -87932463.019 3
  25874805.880    25874813.072   -15076036.012 9  14280481.947 7
 86  6 19  3 14  5.0800000  0  4G12G13G 9G 7
  20863164.311    20863171.521     4146485.663 9 -17752059.968 8
  21306397.344    21306404.034    -7040866.190 9  12740681.503 8
  22838430.881    22838434.153    69255738.650 7 -87914375.634 5
  25871619.108    25871625.872   -15092782.731 8  14267432.585 8
 86  6 19  3 14 11.0800000  0  4G12G13G 9G 7
  20863407.315    20863412.483     4147757.405 9 -17751069.005 7
  21307976.399    21307982.628    -7032567.315 8  12747148.168 7
  22842849.454    22842854.856    69278960.910 6 -87896280.346 4
  25868435.323    25868441.471   -15109517.181 8  14254392.755 8
 86  6 19  3 14 17.0800000  0  4G12G13G 9G 7
  20863655.109    20863660.721     4149055.577 9 -17750057.420 5
  21309556.846    21309562.587    -7024262.774 8  12753619.220 5
  22847269.371    22847275.847    69302193.256 6 -87878177.253 1
  25865252.710    25865255.539   -15126240.935 8  14241361.270 7
 86  6 19  3 14 23.0800000  0  4G12G13G 9G 7
  20863907.097    20863912.330     4150380.202 9 -17749025.267 5
  21311137.569    21311145.778    -7015952.579 9  12760094.706 5
  22851691.388    22851696.723    69325435.571 7 -87860066.355 1
  25862072.864    25862078.292   -15142953.581 7  14228338.420 5
 86  6 19  3 14 29.0800000  0  4G12G13G 9G 7
  20864164.121    20864170.021     4151731.287 9 -17747972.472 7
  21312720.660    21312726.821    -7007636.703 9  12766574.614 8
  22856117.206    22856122.219    69348687.900 6 -87841947.664 5
  25858896.100    25858901.295   -15159650.585 8  14215327.780 8
 86  6 19  3 14 35.0800000  0  4G12G13G 9G 7
  20864426.427    20864433.285     4153108.825 9 -17746899.068 8
  21314304.864    21314309.781    -6999315.161 9  12773058.920 8
  22860542.997    22860549.100    69371950.123 6 -87823821.256 6
                  25855729.328                    14202335.074 7
 86  6 19  3 14 41.0800000  0  4G12G13G 9G 7
  20864693.566    20864700.321     4154512.871 9 -17745805.007 8
  21315888.982    21315894.896    -6990987.947 9  12779547.654 8
  22864971.187    22864977.806    69395222.273 6 -87805687.147 6
  25852555.569    25852560.949   -15212555.053 8  14189364.163 9
 86  6 19  3 14 47.0800000  0  4G12G13G 9G 7
  20864965.345    20864976.086     4155943.355 9 -17744690.366 5
  21317475.111    21317480.536    -6982655.137 8  12786040.773 3
  22869401.201    22869406.398    69418504.415 6 -87787545.189 1
  25849391.252    25849396.671   -15229174.054 9  14176414.354 4
 86  6 19  3 14 53.0800000  0  4G12G13G 9G 7
  20865242.935    20865249.916     4157400.203 9 -17743555.152 4
  21319061.420    21319066.324    -6974316.802 8  12792538.160 5
  22873833.663    22873838.288    69441796.416 7 -87769395.592 1
  25846233.682    25846239.139   -15245770.804 8  14163482.173 5
 86  6 19  3 14 59.0800000  0  4G12G13G 9G 7
  20865526.744    20865532.720     4158883.353 8 -17742399.441 7
  21320649.629    21320652.016    -6965972.950 9  12799039.875 4
  22878269.160    22878276.014    69465098.108 6 -87751238.451 2
  25843079.564    25843084.982   -15262348.932 9  14150564.156 6
 86  6 19  3 15  5.0800000  0  4G12G13G 9G 7
  20865813.071    20865818.880     4160392.827 9 -17741223.227 8
  21322238.564    21322242.216    -6957623.660 9  12805545.791 7
  22882704.824    22882710.352    69488409.445 7 -87733073.774 4
  25839927.907    25839933.631   -15278912.421 8  14137657.533 7
 86  6 19  3 15 11.0800000  0  4G12G13G 9G 7
  20866104.385    20866106.259     4161928.587 9 -17740026.525 6
  21323826.943    21323831.897    -6949269.046 9  12812055.875 6
  22887142.111    22887147.238    69511730.451 6 -87714901.583 1
  25836777.481    25836784.723   -15295463.717 8  14124760.423 6
 86  6 19  3 15 17.0800000  0  4G12G13G 9G 7
  20866402.232    20866408.106     4163490.611 8 -17738809.377 8
  21325418.241    21325423.673    -6940909.046 8  12818570.170 8
  22891582.716    22891587.912    69535060.965 7 -87696721.943 6
  25833630.242    25833636.513   -15312004.381 9  14111871.599 8
 86  6 19  3 15 23.0800000  0  4G12G13G 9G 7
  20866703.444    20866709.086     4165078.855 8 -17737571.794 5
  21327010.110    21327015.386    -6932543.688 8  12825088.610 4
  22896023.591    22896026.116    69558401.218 6 -87678534.765 2
  25830484.823    25830491.568   -15328533.554 8  14098991.714 5
 86  6 19  3 15 29.0800000  0  4G12G13G 9G 7
  20867011.211    20867015.832     4166693.366 8 -17736313.718 5
  21328603.238    21328607.405    -6924172.934 9  12831611.303 4
  22900467.903    22900470.240    69581750.873 6 -87660340.226 1
                  25827349.298                    14086124.626 5
 86  6 19  3 15 35.0800000  0  4G12G13G 9G 7
  20867322.030    20867329.274     4168334.163 8 -17735035.182 5
  21330196.636    21330204.123    -6915796.866 9  12838138.107 4
  22904911.908    22904916.593    69605109.983 5 -87642138.283 1
  25824208.803    25824208.667   -15381295.737 3  14073276.147 6
 86  6 19  3 15 41.0800000  0  4G12G13G 9G 7
  20867639.486    20867647.776     4170001.195 9 -17733736.214 8
  21331790.778    21331797.399    -6907415.466 8  12844669.064 8
  22909359.953    22909367.273    69628478.701 6 -87623928.943 5
  25821073.696    25821077.908   -15397756.488 9  14060449.547 8
 86  6 19  3 15 47.0800000  0  4G12G13G 9G 7
  20867961.802    20867969.557     4171694.443 7 -17732416.802 5
  21333386.744    21333394.153    -6899028.693 9  12851204.213 5
  22913806.548    22913815.554    69651856.839 6 -87605712.220 5
  25817946.213    25817952.329   -15414190.090 8  14047643.762 6
 86  6 19  3 15 53.0800000  0  4G12G13G 9G 7
  20868288.351    20868297.503     4173413.959 8 -17731076.918 6
  21334984.525    21334990.009    -6890636.570 8  12857743.527 6
  22918257.892    22918266.616    69675244.392 6 -87587488.184 2
  25814823.479    25814825.727   -15430601.708 9  14034855.508 6
 86  6 19  3 15 59.0800000  0  4G12G13G 9G 7
  20868621.245    20868629.227     4175159.724 8 -17729716.592 7
  21336582.305    21336589.955    -6882239.159 9  12864286.963 7
  22922711.886    22922715.424    69698641.353 7 -87569256.785 3
  25811703.694    25811708.689   -15446995.491 8  14022081.104 7
 86  6 19  3 16  5.0800000  0  4G12G13G 9G 7
  20868958.653    20868964.834     4176931.752 8 -17728335.779 7
  21338181.574    21338189.383    -6873836.397 9  12870834.573 7
  22927166.019    22927171.433    69722047.736 6 -87551018.046 4
  25808586.170    25808591.474   -15463374.707 9  14009318.088 7
 86  6 19  3 16 11.0800000  0  4G12G13G 9G 7
  20869300.492    20869305.987     4178730.130 8 -17726934.458 6
  21339781.685    21339789.763    -6865428.295 8  12877386.354 7
  22931622.065    22931626.336    69745463.596 6 -87532771.915 3
  25805470.668    25805477.301   -15479741.627 8  13996564.681 4
 86  6 19  3 16 17.0800000  0  4G12G13G 9G 7
  20869647.930    20869652.322     4180554.839 8 -17725512.602 4
  21341382.965    21341391.246    -6857014.762 9  12883942.334 6
  22936079.759    22936083.845    69768888.885 6 -87514518.450 1
  25802357.712    25802364.781   -15496097.503 9  13983819.814 4
 86  6 19  3 16 23.0800000  0  4G12G13G 9G 7
  20869998.799    20870006.145     4182405.949 8 -17724070.195 5
  21342984.864    21342992.744    -6848595.925 8  12890502.460 6
  22940538.792    22940546.064    69792323.593 7 -87496257.673 1
  25799247.944    25799254.498   -15512441.294 8  13971084.380 6
 86  6 19  3 16 29.0800000  0  4G12G13G 9G 7
  20870356.981    20870363.332     4184283.444 9 -17722607.210 7
  21344587.770    21344596.415    -6840171.735 9  12897066.758 8
  22945001.981    22945005.089    69815767.641 7 -87477989.548 5
                  25796148.706                    13958362.607 7
 86  6 19  3 16 35.0800000  0  4G12G13G 9G 7
  20870720.240    20870725.235     4186187.233 9 -17721123.729 7
  21346193.262    21346199.605    -6831742.230 9  12903635.200 8
  22949460.891    22949469.338    69839221.070 6 -87459714.183 3
  25793042.345    25793044.632   -15565021.135 8  13945660.062 7
 86  6 19  3 16 41.0800000  0  4G12G13G 9G 7
  20871087.611    20871093.159     4188117.296 8 -17719619.779 8
  21347798.026    21347803.408    -6823307.391 8  12910207.810 8
  22953927.542    22953934.492    69862683.827 6 -87441431.516 3
  25789943.865    25789948.753   -15581294.063 9  13932979.912 7
 86  6 19  3 16 47.0800000  0  4G12G13G 9G 7
  20871458.766    20871466.680     4190073.701 9 -17718095.296 7
  21349403.639    21349409.696    -6814867.290 9  12916784.504 8
  22958392.726    22958399.733    69886155.887 6 -87423141.638 5
  25786852.211    25786856.398   -15597540.356 8  13920320.465 8
 86  6 19  3 16 53.0800000  0  4G12G13G 9G 7
  20871837.712    20871843.763     4192056.561 7 -17716550.215 7
  21351011.486    21351016.392    -6806421.966 9  12923365.278 6
  22962862.557    22962865.031    69909637.108 6 -87404844.554 1
  25783765.231    25783768.465   -15613764.235 9  13907678.481 6
 86  6 19  3 16 59.0800000  0  4G12G13G 9G 7
  20872219.685    20872228.200     4194065.734 8 -17714984.625 9
  21352620.312    21352623.896    -6797971.436 9  12929950.115 8
  22967334.105    22967336.437    69933127.653 6 -87386540.244 2
  25780681.581    25780685.774   -15629970.327 9  13895050.348 8
 86  6 19  3 17  5.0800000  0  4G12G13G 9G 7
  20872606.483    20872613.768     4196101.218 8 -17713398.519 5
  21354228.200    21354231.511    -6789515.659 9  12936539.027 4
                  22971804.544    69956627.353 5
  25777600.422    25777605.035   -15646161.782 9  13882433.628 3
 86  6 19  3 17 11.0800000  0  4G12G13G 9G 7
  20872997.428    20873006.164     4198163.017 8 -17711791.949 7
  21355837.968    21355843.479    -6781054.621 9  12943132.046 8
  22976276.960    22976283.411    69980136.227 5 -87322261.769 1
  25774521.379    25774525.056   -15662340.813 9  13869826.572 6
 86  6 19  3 17 17.0800000  0  4G12G13G 9G 7
  20873394.167    20873402.721     4200251.177 8 -17710164.806 7
  21357448.603    21357453.893    -6772588.297 8  12949729.188 8
  22980751.729    22980760.308    70003654.231 6 -87303936.042 1
  25771444.951    25771448.600   -15678508.683 8  13857228.226 7
 86  6 19  3 17 23.0800000  0  4G12G13G 9G 7
  20873797.473    20873805.560     4202365.682 8 -17708517.156 8
  21359060.856    21359065.887    -6764116.711 8  12956330.421 7
  22985230.503    22985234.993    70027181.304 6 -87285602.723 4
  25768370.649    25768373.783   -15694663.832 9  13844639.807 7
 86  6 19  3 17 29.0800000  0  4G12G13G 9G 7
  20874206.032    20874210.834     4204506.511 8 -17706848.995 5
  21360673.322    21360679.121    -6755639.879 9  12962935.737 6
                  22989707.546    70050717.561 5
                  25765305.072                    13832065.710 5
 86  6 19  3 17 35.0800000  0  4G12G13G 9G 7
  20874619.370    20874624.972     4206673.587 8 -17705160.358 8
  21362286.508    21362293.607    -6747157.890 8  12969545.076 8
  22994189.732    22994188.644    70074262.861 5 -87221295.846 1
  25762233.013    25762235.125   -15747049.835 8  13819511.475 8
 86  6 19  3 17 41.0800000  0  4G12G13G 9G 7
  20875037.981    20875041.367     4208866.871 8 -17703451.301 7
  21363902.036    21363909.084    -6738670.811 8  12976158.366 7
  22998667.601    22998673.864    70097817.116 4 -87202941.849 1
  25759173.421    25759178.358   -15763132.269 7  13806979.723 8
 86  6 19  3 17 47.0800000  0  4G12G13G 9G 7
  20875459.130    20875465.573     4211086.424 9 -17701721.777 1
  21365518.251    21365520.231    -6730178.648 9  12982775.658 5
                  23003150.833    70121380.313 5
  25756117.961    25756123.656   -15779188.077 9  13794468.718 6
 86  6 19  3 17 53.0800000  0  4G12G13G 9G 7
  20875886.348    20875888.675     4213332.217 9 -17699971.805 4
  21367134.927    21367137.896    -6721681.405 8  12989396.875 5
  23007640.687    23007728.660    70144952.398 3 -87138617.326 1
  25753066.344    25753071.330   -15795221.756 9  13781974.941 5
 86  6 19  3 17 59.0800000  0  4G12G13G 9G 7
  20876318.634    20876325.254     4215604.208 9 -17698201.413 7
  21368752.619    21368759.680    -6713179.103 9  12996022.049 8
  23012126.601    23012133.561    70168533.480 6 -87120242.237 2
  25750019.306    25750025.202   -15811237.777 8  13769494.938 7
 86  6 19  3 18  5.0800000  0  4G12G13G 9G 7
  20876754.463    20876760.983     4217902.568 8 -17696410.479 7
  21370372.885    21370378.653    -6704671.684 9  13002651.206 7
  23016616.683    23016621.181    70192123.387 4 -87101860.479 2
  25746973.462    25746981.432   -15827239.161 9  13757026.329 7
 86  6 19  3 18 11.0800000  0  4G12G13G 9G 7
  20877197.075    20877205.704     4220227.189 8 -17694599.094 8
  21371993.478    21371997.870    -6696159.164 8  13009284.338 7
  23021106.511    23021116.820    70215722.161 6 -87083471.855 5
  25743931.595    25743936.894   -15843228.179 8  13744567.363 8
 86  6 19  3 18 17.0800000  0  4G12G13G 9G 7
  20877644.315    20877648.615     4222578.037 9 -17692767.223 5
  21373614.654    21373616.554    -6687641.624 8  13015921.375 5
  23025600.116    23025606.060    70239329.664 6 -87065076.352 1
  25740891.044    25740896.211   -15859205.789 8  13732117.295 6
 86  6 19  3 18 23.0800000  0  4G12G13G 9G 7
  20878095.596    20878105.958     4224955.201 8 -17690914.935 4
  21375237.414    21375238.581    -6679119.051 8  13022562.367 4
  23030092.262    23030098.781    70262946.064 5 -87046673.991 1
  25737852.115    25737858.211   -15875170.132 9  13719677.552 6
 86  6 19  3 18 29.0800000  0  4G12G13G 9G 7
  20878553.425    20878562.094     4227358.560 8 -17689042.186 7
  21376860.174    21376863.301    -6670591.428 9  13029207.250 6
  23034590.226    23034600.035    70286571.180 5 -87028264.811 4
                  25734825.054                    13707252.777 8
 86  6 19  3 18 35.0800000  0  4G12G13G 9G 7
  20879016.715    20879025.054     4229788.217 7 -17687148.964 8
  21378484.210    21378488.412    -6662058.647 9  13035856.165 7
  23039086.236    23039096.446    70310205.185 5 -87009848.745 5
  25731788.567    25731795.788   -15927371.673 8  13694848.480 9
 86  6 19  3 18 41.0800000  0  4G12G13G 9G 7
  20879484.277    20879491.457     4232244.112 9 -17685235.299 8
  21380109.195    21380113.176    -6653520.818 9  13042509.023 7
  23043585.438    23043595.199    70333847.939 4 -86991425.786 5
  25728764.996    25728771.550   -15943261.382 9  13682466.865 9
 86  6 19  3 18 47.0800000  0  4G12G13G 9G 7
  20879956.434    20879964.748     4234726.293 8 -17683301.138 6
  21381734.162    21381735.315    -6644977.974 9  13049165.788 5
  23048085.272    23048096.791    70357499.364 5 -86972996.068 1
  25725747.398    25725751.853   -15959125.076 8  13670105.955 6
 86  6 19  3 18 53.0800000  0  4G12G13G 9G 7
  20880435.284    20880441.468     4237234.763 8 -17681346.483 6
  21383360.030    21383365.519    -6636430.189 8  13055826.396 5
  23052589.110    23052594.049    70381159.410 5 -86954559.743 1
  25722733.091    25722738.193   -15974966.331 8  13657762.115 5
 86  6 19  3 18 59.0800000  0  4G12G13G 9G 7
  20880917.869    20880924.260     4239769.402 8 -17679371.437 7
  21384988.024    21384993.267    -6627877.474 9  13062490.843 7
  23057091.968    23057101.404    70404828.070 4 -86936116.629 4
  25719721.310    25719727.220   -15990790.114 8  13645431.907 8
 86  6 19  3 19  5.0800000  0  4G12G13G 9G 7
  20881404.371    20881410.900     4242330.242 8 -17677375.983 7
  21386615.355    21386620.458    -6619319.876 9  13069159.104 8
  23061599.437    23061610.425    70428505.243 6 -86917666.888 6
  25716712.613    25716719.161   -16006599.226 9  13633113.118 9
 86  6 19  3 19 11.0800000  0  4G12G13G 9G 7
  20881896.243    20881903.017     4244917.283 8 -17675360.099 8
  21388245.389    21388248.899    -6610757.236 9  13075831.305 8
  23066105.410    23066114.897    70452190.992 5 -86899210.473 6
  25713706.633    25713712.223   -16022395.883 9  13620804.044 8
 86  6 19  3 19 17.0800000  0  4G12G13G 9G 7
  20882391.741    20882399.889     4247530.516 9 -17673323.815 8
  21389875.541    21389880.034    -6602189.622 9  13082507.363 7
  23070613.755    23070623.271    70475885.337 5 -86880747.340 5
  25710703.391    25710710.304   -16038180.866 9  13608504.069 8
 86  6 19  3 19 23.0800000  0  4G12G13G 9G 7
  20882894.012    20882900.461     4250169.940 8 -17671267.135 5
  21391506.585    21391510.743    -6593617.077 9  13089187.270 5
  23075125.155    23075135.290    70499588.153 5 -86862277.596 1
  25707702.211    25707708.869   -16053952.037 8  13596214.853 6
 86  6 19  3 19 29.0800000  0  4G12G13G 9G 7
  20883402.436    20883408.616     4252835.701 9 -17669189.902 7
  21393138.724    21393143.680    -6585039.629 9  13095870.999 8
  23079638.167    23079645.113    70523299.488 6 -86843801.250 6
                  25704710.373                    13583941.238 8
 86  6 19  3 19 35.0800000  0  4G12G13G 9G 7
  20883913.769    20883921.599     4255527.733 8 -17667092.205 7
  21394772.584    21394776.948    -6576457.230 8  13102558.575 7
  23084151.794    23084157.626    70547019.360 6 -86825318.241 5
  25701713.560    25701718.047   -16105958.859 3  13571688.591 7
 86  6 19  3 19 41.0800000  0  4G12G13G 9G 7
  20884431.658    20884441.090     4258246.019 8 -17664974.054 6
  21396405.740    21396411.014    -6567869.844 9  13109250.053 6
  23088666.919    23088674.196    70570747.663 5 -86806828.646 3
  25698726.374    25698730.270   -16121653.766 9  13559458.849 7
 86  6 19  3 19 47.0800000  0  4G12G13G 9G 7
  20884955.809    20884962.041     4260990.522 8 -17662835.509 4
  21398042.325    21398045.885    -6559277.567 8  13115945.361 6
  23093183.570    23093190.796    70594484.529 7 -86788332.384 1
  25695744.863    25695747.256   -16137321.656 8  13547249.696 4
 86  6 19  3 19 53.0800000  0  4G12G13G 9G 7
  20885481.708    20885489.772     4263761.415 8 -17660676.376 8
  21399678.085    21399683.999    -6550680.273 9  13122644.520 8
  23097703.250    23097713.042    70618229.897 5 -86769829.475 5
  25692767.358    25692772.191   -16152968.123 9  13535057.649 8
 86  6 19  3 19 59.0800000  0  4G12G13G 9G 7
  20886013.115    20886023.163     4266558.717 7 -17658496.665 7
  21401314.811    21401320.170    -6542078.004 9  13129347.581 7
  23102221.081    23102229.860    70641983.729 7 -86751320.025 5
  25689792.936    25689797.562   -16168597.076 9  13522879.233 7
 86  6 19  3 20  5.0800000  0  4G12G13G 9G 7
  20886549.889    20886560.302     4269382.342 7 -17656296.434 9
  21402952.904    21402958.968    -6533470.772 9  13136054.510 8
  23106743.664    23106751.578    70665745.943 5 -86732804.023 4
  25686822.233    25686826.860   -16184211.111 9  13510712.447 7
 86  6 19  3 20 11.0800000  0  4G12G13G 9G 7
  20887092.502    20887102.105     4272232.316 8 -17654075.671 4
  21404590.991    21404596.162    -6524858.635 9  13142765.266 4
  23111267.251    23111272.652    70689516.558 5 -86714281.495 2
  25683853.953    25683854.436   -16199812.457 8  13498555.562 1
 86  6 19  3 20 17.0800000  0  4G12G13G 9G 7
  20887641.402    20887647.408     4275108.584 8 -17651834.437 6
  21406231.838    21406234.644    -6516241.573 9  13149479.883 3
  23115791.629    23115802.101    70713295.673 7 -86695752.296 1
  25680886.675    25680891.374   -16215401.895 9  13486407.933 5
 86  6 19  3 20 23.0800000  0  4G12G13G 9G 7
  20888192.910    20888200.677     4278011.071 8 -17649572.749 7
  21407871.643    21407877.615    -6507619.604 8  13156198.286 8
  23120320.692    23120327.807    70737083.069 7 -86677216.651 5
  25677923.080    25677927.697   -16230976.692 9  13474271.714 7
 86  6 19  3 20 29.0800000  0  4G12G13G 9G 7
  20888749.954    20888756.247     4280939.807 8 -17647290.608 5
  21409513.234    21409518.245    -6498992.823 9  13162920.453 7
  23124848.264    23124852.156    70760878.791 7 -86658674.557 5
                  25674966.167                    13462152.006 6
 86  6 19  3 20 35.0800000  0  4G12G13G 9G 7
  20889313.510    20889320.212     4283894.773 8 -17644988.041 8
  21411155.491    21411160.031    -6490361.190 9  13169646.406 8
  23129377.072    23129386.011    70784682.702 7 -86640126.051 5
  25672009.518    25672014.705   -16282782.231 8  13450053.883 7
 86  6 19  3 20 41.0800000  0  4G12G13G 9G 7
  20889880.679    20889886.513     4286875.993 8 -17642665.002 4
  21412799.193    21412802.174    -6481724.663 8  13176376.195 5
  23133907.759    23133914.738    70808494.758 6 -86621571.211 2
  25669058.821    25669063.730   -16298278.832 8  13437978.625 5
 86  6 19  3 20 47.0800000  0  4G12G13G 9G 7
  20890452.664    20890460.530     4289883.396 8 -17640321.592 5
  21414444.333    21414447.608    -6473083.330 9  13183109.690 5
  23138442.082    23138447.824    70832315.002 7 -86603009.934 2
  25666114.591    25666121.512   -16313749.108 9  13425923.861 4
 86  6 19  3 20 53.0800000  0  4G12G13G 9G 7
  20891029.902    20891037.102     4292917.007 8 -17637957.743 6
  21416087.956    21416093.237    -6464437.129 9  13189846.986 5
  23142976.056    23142981.222    70856143.482 6 -86584442.333 2
  25663174.653    25663181.025   -16329197.820 8  13413885.910 5
 86  6 19  3 20 59.0800000  0  4G12G13G 9G 7
  20891610.811    20891619.130     4295976.840 8 -17635573.458 7
  21417734.417    21417740.316    -6455786.199 9  13196587.964 8
  23147512.593    23147519.678    70879980.098 6 -86565868.363 6
  25660238.169    25660244.608   -16344629.027 9  13401861.601 8
 86  6 19  3 21  5.0800000  0  4G12G13G 9G 7
  20892197.905    20892207.106     4299062.875 8 -17633168.762 7
  21419381.417    21419388.171    -6447130.538 9  13203332.622 8
  23152049.843    23152056.516    70903824.748 7 -86547288.131 4
  25657305.023    25657311.261   -16360045.558 8  13389848.723 8
 86  6 19  3 21 11.0800000  0  4G12G13G 9G 7
  20892790.870    20892798.699     4302175.091 8 -17630743.650 7
  21421028.994    21421035.579    -6438470.212 8  13210080.922 7
  23156590.327    23156594.975    70927677.390 6 -86528701.652 5
  25654372.936    25654380.004   -16375449.353 8  13377845.772 8
 86  6 19  3 21 17.0800000  0  4G12G13G 9G 7
  20893388.084    20893393.765     4305313.431 8 -17628298.184 6
  21422678.550    21422681.682    -6429805.130 9  13216832.933 4
  23161128.301    23161135.070    70951538.022 7 -86510108.953 1
  25651445.418    25651450.718   -16390840.999 8  13365852.294 5
 86  6 19  3 21 23.0800000  0  4G12G13G 9G 7
  20893992.488    20893996.975     4308477.908 8 -17625832.377 7
  21424328.440    21424334.202    -6421135.353 9  13223588.593 6
  23165672.105    23165677.088    70975406.625 6 -86491510.096 4
  25648519.961    25648525.689   -16406217.547 9  13353870.574 8
 86  6 19  3 21 29.0800000  0  4G12G13G 9G 7
  20894599.526    20894603.175     4311668.530 8 -17623346.174 7
  21425979.001    21425983.585    -6412460.889 9  13230347.917 4
  23170216.501    23170219.272    70999283.255 7 -86472904.936 3
                  25645600.868                    13341906.021 6
 86  6 19  3 21 35.0800000  0  4G12G13G 9G 7
  20895211.918    20895218.684     4314885.352 8 -17620839.563 8
  21427631.329    21427634.974    -6403781.768 9  13237110.883 7
  23174760.666    23174766.378    71023167.836 8 -86454293.586 5
  25642681.163    25642688.641   -16457824.380 8  13329963.455 9
 86  6 19  3 21 41.0800000  0  4G12G13G 9G 7
  20895827.845    20895836.819     4318128.469 9 -17618312.474 6
  21429283.275    21429285.608    -6395097.922 8  13243877.546 3
  23179307.159    23179312.185    71047060.330 6 -86435676.040 2
  25639768.888    25639775.009   -16473121.128 9  13318043.921 5
 86  6 19  3 21 47.0800000  0  4G12G13G 9G 7
  20896449.637    20896457.108     4321397.830 8 -17615764.923 5
  21430936.437    21430939.592    -6386409.279 9  13250647.906 6
  23183854.970    23183860.963    71070960.770 6 -86417052.338 2
  25636863.484    25636868.377   -16488391.784 8  13306144.706 6
 86  6 19  3 21 53.0800000  0  4G12G13G 9G 7
  20897076.567    20897084.233     4324693.312 8 -17613197.022 7
  21432591.479    21432596.328    -6377715.877 9  13257421.967 7
  23188405.723    23188410.714    71094869.115 7 -86398422.499 5
  25633961.083    25633969.345   -16503640.968 8  13294262.223 7
 86  6 19  3 21 59.0800000  0  4G12G13G 9G 7
  20897708.063    20897715.434     4328015.020 8 -17610608.679 8
  21434245.900    21434251.892    -6369017.716 9  13264199.762 7
  23192955.499    23192962.250    71118785.362 7 -86379786.480 6
  25631062.614    25631071.571   -16518872.557 9  13282393.476 8
 86  6 19  3 22  5.0800000  0  4G12G13G 9G 7
  20898347.226    20898352.885     4331362.922 8 -17607999.937 7
  21435902.358    21435907.127    -6360314.917 8  13270981.158 8
  23197508.607    23197513.798    71142709.459 7 -86361144.315 6
  25628167.339    25628174.489   -16534089.180 9  13270536.361 8
 86  6 19  3 22 11.0800000  0  4G12G13G 9G 7
  20898988.431    20898995.072     4334737.052 8 -17605370.745 6
  21437558.887    21437562.071    -6351607.476 8  13277766.180 4
  23202062.960    23202067.270    71166641.427 7 -86342496.007 5
  25625274.803    25625282.039   -16549293.076 8  13258689.183 7
 86  6 19  3 22 17.0800000  0  4G12G13G 9G 7
  20899638.123    20899642.326     4338137.330 8 -17602721.177 4
  21439216.463    21439220.665    -6342895.404 9  13284554.800 3
  23206617.471    23206621.015    71190581.184 6 -86323841.669 2
  25622383.040    25622389.478   -16564484.442 8  13246851.731 6
 86  6 19  3 22 23.0800000  0  4G12G13G 9G 7
  20900288.515    20900295.709     4341563.811 8 -17600051.178 8
  21440876.121    21440880.897    -6334178.657 8  13291347.067 7
  23211175.979    23211181.864    71214528.632 8 -86305181.360 7
  25619495.340    25619502.357   -16579659.955 8  13235026.670 8
 86  6 19  3 22 29.0800000  0  4G12G13G 9G 7
  20900945.391    20900953.026     4345016.536 9 -17597360.736 8
  21442535.562    21442540.457    -6325457.252 9  13298142.957 6
  23215733.959    23215738.867    71238483.883 7 -86286514.948 6
                  25616618.801                    13223219.531 7
 86  6 19  3 22 35.0800000  0  4G12G13G 9G 7
  20901607.271    20901614.787     4348495.460 8 -17594649.880 7
  21444196.230    21444201.715    -6316731.228 9  13304942.463 8
  23220293.830    23220299.401    71262446.811 7 -86267842.543 6
  25613733.468    25613739.872   -16631063.463 8  13211434.959 9
 86  6 19  3 22 41.0800000  0  4G12G13G 9G 7
  20902273.400    20902281.979     4352000.516 8 -17591918.650 4
  21445858.492    21445863.632    -6308000.530 8  13311745.607 3
  23224854.328    23224860.346    71286417.532 6 -86249164.078 1
  25610862.252    25610868.963   -16646157.378 9  13199673.456 4
 86  6 19  3 22 47.0800000  0  4G12G13G 9G 7
  20902944.996    20902952.493     4355531.723 8 -17589167.090 8
  21447519.928    21447526.061    -6299265.274 8  13318552.310 8
  23229419.009    23229426.548    71310395.876 6 -86230479.657 7
  25607995.396    25608002.283   -16661225.769 8  13187932.248 7
 86  6 19  3 22 53.0800000  0  4G12G13G 9G 7
  20903621.566    20903628.636     4359089.049 8 -17586395.157 7
  21449183.474    21449189.822    -6290525.485 8  13325362.526 8
  23233983.089    23233989.519    71334381.720 6 -86211789.414 6
  25605131.764    25605137.849   -16676272.334 7  13176207.647 7
 86  6 19  3 22 59.0800000  0  4G12G13G 9G 7
  20904304.065    20904312.131     4362672.513 8 -17583602.849 8
  21450846.365    21450853.127    -6281781.191 9  13332176.270 7
  23238549.078    23238554.861    71358375.091 7 -86193093.290 7
  25602271.166    25602276.054   -16691301.559 9  13164496.584 6
 86  6 19  3 23  5.0800000  0  4G12G13G 9G 7
  20904992.093    20904997.431     4366282.024 8 -17580790.253 6
  21452511.485    21452517.871    -6273032.457 9  13338993.449 7
  23243115.785    23243121.864    71382375.979 7 -86174391.304 5
  25599414.792    25599421.987   -16706316.186 8  13152796.861 6
 86  6 19  3 23 11.0800000  0  4G12G13G 9G 7
  20905682.745    20905688.682     4369917.572 7 -17577957.351 8
  21454177.161    21454185.064    -6264279.261 9  13345814.134 8
  23247684.710    23247690.382    71406384.292 7 -86155683.523 7
  25596560.110    25596567.237   -16721317.906 9  13141107.217 7
 86  6 19  3 23 17.0800000  0  4G12G13G 9G 7
  20906379.515    20906385.654     4373579.127 8 -17575104.209 8
  21455843.683    21455849.705    -6255521.577 8  13352638.293 8
  23252254.882    23252261.700    71430400.053 7 -86136969.958 7
  25593707.401    25593714.503   -16736306.689 8  13129427.637 8
 86  6 19  3 23 23.0800000  0  4G12G13G 9G 7
  20907082.392    20907085.489     4377266.727 8 -17572230.769 4
  21457511.477    21457515.126    -6246759.472 9  13359465.914 3
  23256825.542    23256833.738    71454423.195 8 -86118250.635 3
  25590858.612    25590862.981   -16751278.907 7  13117760.980 4
 86  6 19  3 23 29.0800000  0  4G12G13G 9G 7
  20907788.811    20907793.646     4380980.493 9 -17569336.924 8
  21459180.243    21459185.704    -6237992.891 9  13366297.026 7
  23261398.493    23261404.381    71478453.819 8 -86099525.478 7
                  25588020.241                    13106112.771 7
 86  6 19  3 23 35.0800000  0  4G12G13G 9G 7
  20908500.147    20908507.423     4384720.396 8 -17566422.725 7
  21460849.513    21460855.420    -6229221.794 9  13373131.634 7
  23265972.969    23265980.941    71502491.739 7 -86080794.637 6
  25585174.152    25585181.765   -16802482.631 7  13094487.431 7
 86  6 19  3 23 41.0800000  0  4G12G13G 9G 7
  20909217.015    20909222.943     4388486.357 8 -17563488.196 5
  21462519.592    21462522.819    -6220446.253 9  13379969.722 5
  23270548.649    23270554.251    71526537.028 8 -86062058.088 5
  25582340.074    25582347.791   -16817372.100 8  13082885.260 6
 86  6 19  3 23 47.0800000  0  4G12G13G 9G 7
  20909936.384    20909946.011     4392278.445 8 -17560533.336 4
  21464189.949    21464193.219    -6211666.278 9  13386811.291 4
  23275125.545    23275134.715    71550589.696 8 -86043315.760 5
  25579513.694    25579516.805   -16832235.763 8  13071303.190 3
 86  6 19  3 23 53.0800000  0  4G12G13G 9G 7
  20910662.719    20910671.183     4396096.635 8 -17557558.131 7
  21465861.041    21465867.683    -6202881.804 9  13393656.316 7
  23279704.595    23279711.847    71574649.772 7 -86024567.620 8
  25576688.831    25576694.649   -16847078.206 8  13059737.644 8
 86  6 19  3 23 59.0800000  0  4G12G13G 9G 7
  20911394.294    20911401.279     4399940.920 8 -17554562.568 4
  21467534.501    21467537.095    -6194092.860 9  13400504.859 4
  23284284.393    23284289.998    71598717.219 7 -86005813.776 5
  25573867.659    25573872.973   -16861903.269 8  13048185.641 5
 86  6 19  3 24  5.0800000  0  4G12G13G 9G 7
  20912131.456    20912140.251     4403811.345 7 -17551546.666 6
  21469207.234    21469211.695    -6185299.450 9  13407356.859 7
  23288867.214    23288871.499    71622792.053 7 -85987054.169 7
  25571050.542    25571056.470   -16876713.472 9  13036645.226 6
 86  6 19  3 24 11.0800000  0  4G12G13G 9G 7
  20912872.891    20912880.093     4407708.020 8 -17548510.316 8
  21470881.463    21470886.947    -6176501.497 9  13414212.406 8
  23293448.451    23293455.368    71646874.301 8 -85968288.783 8
  25568234.550    25568238.929   -16891510.406 8  13025115.156 8
 86  6 19  3 24 17.0800000  0  4G12G13G 9G 7
  20913619.638    20913627.716     4411630.877 8 -17545453.543 5
  21472556.357    21472559.511    -6167698.969 9  13421071.507 4
  23298031.897    23298038.974    71670963.864 7 -85949517.696 4
  25565420.657    25565426.653   -16906293.932 8  13013595.540 5
 86  6 19  3 24 23.0800000  0  4G12G13G 9G 7
  20914371.495    20914378.061     4415579.918 9 -17542376.348 3
  21474232.266    21474237.666    -6158891.876 8  13427934.194 5
  23302619.856    23302626.066    71695060.746 7 -85930740.891 3
                  25562615.376                    13002089.665 5
 86  6 19  3 24 29.0800000  0  4G12G13G 9G 7
  20915129.084    20915135.861     4419555.161 7 -17539278.775 8
  21475909.757    21475912.526    -6150080.340 9  13434800.326 8
  23307205.477    23307212.225    71719164.953 8 -85911958.425 6
  25559833.757    25559811.778   -16957341.389 8  12990602.951 8
 86  6 19  3 24 35.0800000  0  4G12G13G 9G 7
  20915889.716    20915897.425     4423556.512 8 -17536160.843 8
  21477586.705    21477591.373    -6141264.307 8  13441669.962 8
  23311793.616    23311799.998    71743276.307 7 -85893170.352 7
  25557007.082    25557011.593   -16972052.648 9  12979139.796 8
 86  6 19  3 24 41.0800000  0  4G12G13G 9G 7
  20916657.022    20916663.772     4427583.944 9 -17533022.574 5
  21479264.249    21479268.353    -6132443.833 8  13448543.081 6
  23316382.362    23316388.773    71767394.956 7 -85874376.614 4
  25554213.851    25554216.388   -16986734.030 7  12967699.766 5
 86  6 19  3 24 47.0800000  0  4G12G13G 9G 7
  20917426.872    20917433.094     4431637.418 8 -17529864.012 4
  21480944.041    21480947.530    -6123618.943 9  13455419.617 6
  23320973.627    23320982.104    71791520.678 7 -85855577.396 3
  25551424.503    25551427.469   -17001389.313 9  12956279.668 6
 86  6 19  3 24 53.0800000  0  4G12G13G 9G 7
  20918203.877    20918211.830     4435716.963 8 -17526685.164 5
  21482623.614    21482629.614    -6114789.729 9  13462299.525 7
  23325565.447    23325572.539    71815653.473 8 -85836772.597 5
  25548639.067    25548645.544   -17016024.099 9  12944875.942 6
 86  6 19  3 24 59.0800000  0  4G12G13G 9G 7
  20918985.672    20918991.621     4439822.612 8 -17523485.955 8
  21484304.674    21484310.996    -6105956.128 9  13469182.842 8
  23330158.835    23330165.892    71839793.360 6 -85817962.304 7
  25545857.226    25545864.433   -17030641.444 9  12933485.789 8
 86  6 19  3 25  5.0800000  0  4G12G13G 9G 7
  20919771.725    20919777.590     4443954.296 8 -17520266.462 7
  21485986.625    21485993.867    -6097118.144 9  13476069.579 7
  23334755.047    23334760.596    71863940.234 8 -85799146.597 6
  25543079.335    25543084.534   -17045243.823 9  12922107.306 7
 86  6 19  3 25 11.0800000  0  4G12G13G 9G 7
  20920562.737    20920568.957     4448112.063 8 -17517026.638 6
  21487669.035    21487677.302    -6088275.816 9  13482959.718 6
  23339350.256    23339357.179    71888094.183 7 -85780325.367 2
  25540301.825    25540308.641   -17059832.910 8  12910739.203 6
 86  6 19  3 25 17.0800000  0  4G12G13G 9G 7
  20921358.516    20921363.790     4452295.997 8 -17513766.415 5
  21489351.976    21489358.961    -6079429.077 9  13489853.274 5
  23343947.988    23343953.886    71912255.108 8 -85761498.618 3
  25537528.875    25537534.298   -17074408.142 9  12899381.886 6
 86  6 19  3 25 23.0800000  0  4G12G13G 9G 7
  20922158.902    20922168.065     4456506.032 8 -17510485.891 8
  21491037.006    21491044.953    -6070577.988 9  13496750.225 8
  23348547.647    23348554.429    71936423.055 8 -85742666.496 6
                  25534764.554                    12888038.757 8
 86  6 19  3 25 29.0800000  0  4G12G13G 9G 7
  20922965.794    20922973.700     4460742.075 8 -17507185.076 7
  21492720.404    21492729.156    -6061722.549 8  13503650.577 8
  23353147.470    23353153.163    71960597.897 7 -85723828.945 6
  25531992.073    25531999.399   -17125247.956 8  12876715.383 7
 86  6 19  3 25 35.0800000  0  4G12G13G 9G 7
  20923776.147    20923785.639     4465004.048 8 -17503864.070 7
  21494408.120    21494413.757    -6052862.866 8  13510554.214 7
  23357750.498    23357755.412    71984779.648 8 -85704986.052 6
  25529231.668    25529239.570   -17139749.094 9  12865415.706 8
 86  6 19  3 25 41.0800000  0  4G12G13G 9G 7
  20924593.626    20924600.638     4469291.976 8 -17500522.809 5
  21496095.253    21496099.622    -6043999.024 9  13517461.113 5
  23362353.578    23362358.038    72008968.034 8 -85686137.971 2
  25526478.588    25526485.166   -17154221.050 8  12854138.852 5
 86  6 19  3 25 47.0800000  0  4G12G13G 9G 7
  20925413.977    20925422.045     4473605.764 8 -17497161.434 7
  21497783.139    21497789.624    -6035131.075 8  13524371.192 8
  23366958.253    23366962.455    72033163.189 9 -85667284.626 5
  25523729.679    25523734.486   -17168667.465 8  12842881.911 8
 86  6 19  3 25 53.0800000  0  4G12G13G 9G 7
  20926240.380    20926247.566     4477945.404 8 -17493779.879 7
  21499471.044    21499477.604    -6026258.963 9  13531284.525 8
  23371564.465    23371565.631    72057365.049 8 -85648426.031 5
  25520986.234    25520989.449   -17183093.163 8  12831641.119 8
 86  6 19  3 25 59.0800000  0  4G12G13G 9G 7
  20927070.443    20927076.582     4482310.943 9 -17490378.146 6
  21501160.252    21501166.619    -6017382.663 8  13538201.101 7
  23376169.730    23376176.138    72081573.622 8 -85629562.186 1
  25518243.486    25518244.641   -17197501.634 8  12820413.744 6
 86  6 19  3 26  5.0800000  0  4G12G13G 9G 7
  20927905.492    20927912.568     4486702.442 8 -17486956.224 4
  21502851.067    21502854.525    -6008502.165 9  13545121.005 4
  23380777.136    23380780.858    72105788.994 8 -85610693.096 1
  25515504.297    25515509.348   -17211895.099 8  12809198.069 4
 86  6 19  3 26 11.0800000  0  4G12G13G 9G 7
  20928745.811    20928753.801     4491119.815 8 -17483514.109 8
  21504540.999    21504547.745    -5999617.550 9  13552044.067 8
  23385387.068    23385390.737    72130010.909 7 -85591818.889 4
  25512767.435    25512773.512   -17226275.094 9  12797992.847 8
 86  6 19  3 26 17.0800000  0  4G12G13G 9G 7
  20929591.684    20929598.640     4495563.162 8 -17480051.767 8
  21506233.342    21506238.537    -5990728.747 9  13558970.400 7
  23389996.576    23390001.365    72154239.484 8 -85572939.471 4
  25510033.865    25510039.631   -17240641.002 9  12786798.637 7
 86  6 19  3 26 23.0800000  0  4G12G13G 9G 7
  20930443.458    20930449.955     4500032.525 8 -17476569.168 7
  21507923.987    21507929.890    -5981835.702 9  13565900.040 8
  23394609.353    23394612.880    72178474.872 8 -85554054.765 4
                  25507310.315                    12775619.213 8
 86  6 19  3 26 29.0800000  0  4G12G13G 9G 7
  20931297.114    20931304.249     4504527.829 7 -17473066.331 3
  21509618.308    21509620.327    -5972938.524 9  13572832.916 3
  23399222.563    23399228.915    72202716.783 8 -85535164.944 1
  25504490.292    25504585.520   -17291269.025 9  12764460.148 4
 86  6 19  3 26 35.0800000  0  4G12G13G 9G 7
  20932160.546    20932164.635     4509049.168 8 -17469543.219 7
  21511311.176    21511315.938    -5964037.068 9  13579769.126 7
  23403836.379    23403842.056    72226965.370 9 -85516269.986 3
  25501860.139    25501865.840   -17305558.865 9  12753325.365 8
 86  6 19  3 26 41.0800000  0  4G12G13G 9G 7
  20933023.380    20933030.104     4513596.556 7 -17465999.794 7
  21513005.401    21513011.533    -5955131.347 9  13586708.639 6
  23408452.069    23408456.994    72251220.703 7 -85497369.703 3
  25499147.155    25499152.344   -17319819.568 9  12742213.513 7
 86  6 19  3 26 47.0800000  0  4G12G13G 9G 7
  20933893.754    20933900.858     4518170.012 9 -17462436.060 7
  21514702.074    21514706.979    -5946221.366 9  13593651.486 8
  23413067.834    23413072.888    72275482.740 7 -85478464.243 3
  25496438.921    25496443.886   -17334054.215 9  12731121.582 8
 86  6 19  3 26 53.0800000  0  4G12G13G 9G 7
  20934767.582    20934775.028     4522769.559 8 -17458852.008 7
  21516398.654    21516402.382    -5937307.118 9  13600597.656 8
  23417686.337    23417691.762    72299751.342 8 -85459553.639 5
  25493733.463    25493739.201   -17348268.102 9  12720045.830 8
 86  6 19  3 26 59.0800000  0  4G12G13G 9G 7
  20935648.807    20935655.871     4527395.116 8 -17455247.696 6
  21518095.740    21518099.941    -5928388.637 9  13607547.118 6
  23422305.141    23422309.134    72324026.618 7 -85440637.854 1
  25491031.831    25491037.010   -17362464.565 8  12708983.641 6
 86  6 19  3 27  5.0800000  0  4G12G13G 9G 7
  20936534.505    20936540.728     4532046.649 8 -17451623.119 8
  21519793.751    21519797.557    -5919465.871 9  13614499.949 7
  23426926.773    23426933.772    72348308.459 8 -85421716.951 3
  25488332.306    25488338.956   -17376645.875 8  12697933.283 8
 86  6 19  3 27 11.0800000  0  4G12G13G 9G 7
  20937425.213    20937432.684     4536724.167 8 -17447978.328 7
  21521492.694    21521497.747    -5910538.928 9  13621455.995 7
  23431548.004    23431552.952    72372596.763 7 -85402790.989 3
  25485635.978    25485642.908   -17390813.554 8  12686893.537 8
 86  6 19  3 27 17.0800000  0  4G12G13G 9G 7
  20938320.459    20938327.464     4541427.652 9 -17444313.270 8
  21523192.130    21523196.889    -5901607.864 9  13628415.262 8
  23436171.292    23436174.426    72396891.576 7 -85383860.000 3
  25482941.805    25482948.950   -17404966.541 8  12675865.235 8
 86  6 19  3 27 23.0800000  0  4G12G13G 9G 7
  20939220.137    20939226.048     4546157.052 8 -17440628.034 4
  21524892.157    21524897.424    -5892672.770 8  13635377.674 3
  23440795.988    23440798.275    72421192.726 8 -85364923.988 1
                  25480260.758                    12664852.382 5
 86  6 19  3 27 29.0800000  0  4G12G13G 9G 7
  20940125.857    20940131.718     4550912.215 9 -17436922.713 7
  21526592.735    21526598.838    -5883733.615 8  13642343.236 8
  23445422.122    23445428.232    72445500.205 8 -85345983.111 5
  25477568.107    25477575.735   -17455377.988 8  12653860.473 8
 86  6 19  3 27 35.0800000  0  4G12G13G 9G 7
  20941035.485    20941042.272     4555693.242 9 -17433197.246 8
  21528294.621    21528300.359    -5874790.433 9  13649311.954 8
  23450050.195    23450055.138    72469814.012 8 -85327037.298 5
  25474890.572    25474896.634   -17469453.144 9  12642892.810 8
 86  6 19  3 27 41.0800000  0  4G12G13G 9G 7
  20941950.271    20941955.850     4560500.091 9 -17429451.644 5
  21529996.732    21530002.012    -5865843.163 9  13656283.841 6
  23454676.388    23454680.539    72494134.109 8 -85308086.595 1
  25472218.444    25472222.650   -17483498.824 8  12631948.124 4
 86  6 19  3 27 47.0800000  0  4G12G13G 9G 7
  20942870.098    20942873.084     4565332.809 8 -17425685.858 3
  21531699.558    21531704.278    -5856891.881 8  13663258.868 3
  23459304.133    23459310.816    72518460.518 7 -85289130.932 1
  25469549.103    25469555.690   -17497519.268 7  12621023.110 4
 86  6 19  3 27 53.0800000  0  4G12G13G 9G 7
  20943793.129    20943799.943     4570191.355 9 -17421900.007 7
  21533405.337    21533412.071    -5847936.529 9  13670237.066 8
  23463936.213    23463944.618    72542793.184 8 -85270170.441 6
  25466885.695    25466892.053   -17511519.103 9  12610114.150 8
 86  6 19  3 27 59.0800000  0  4G12G13G 9G 7
  20944722.149    20944728.745     4575075.820 8 -17418093.942 7
  21535109.759    21535115.590    -5838977.096 8  13677218.437 8
  23468567.624    23468573.579    72567132.209 7 -85251204.986 6
  25464224.271    25464231.096   -17525501.525 9  12599218.747 8
 86  6 19  3 28  5.0800000  0  4G12G13G 9G 7
  20945656.768    20945659.268     4579986.185 7 -17414267.670 3
  21536814.285    21536818.784    -5830013.568 9  13684202.993 3
  23473201.541    23473202.116    72591477.487 8 -85232234.628 4
  25461565.556    25461574.153   -17539468.709 8  12588335.251 5
 86  6 19  3 28 11.0800000  0  4G12G13G 9G 7
  20946597.419    20946601.495     4584922.509 8 -17410421.200 3
  21538521.200    21538526.106    -5821045.934 8  13691190.802 4
  23477833.816    23477838.902    72615829.009 7 -85213259.397 2
  25458911.707    25458918.308   -17553421.964 8  12577462.578 5
 86  6 19  3 28 17.0800000  0  4G12G13G 9G 7
  20947542.283    20947546.813     4589884.834 9 -17406554.461 7
  21540229.636    21540235.179    -5812074.170 8  13698181.757 7
  23482468.987    23482475.188    72640186.705 9 -85194279.414 7
  25456259.680    25456266.773   -17567360.014 9  12566601.766 8
 86  6 19  3 28 23.0800000  0  4G12G13G 9G 7
  20948491.724    20948497.113     4594873.046 8 -17402667.544 7
  21541936.719    21541944.264    -5803098.336 8  13705175.920 8
  23487106.547    23487114.891    72664550.635 8 -85175294.550 6
                  25453617.382                    12555757.023 7
 86  6 19  3 28 29.0800000  0  4G12G13G 9G 7
  20949446.824    20949451.451     4599887.152 8 -17398760.448 7
  21543645.215    21543653.629    -5794118.437 9  13712173.250 8
  23491743.690    23491748.839    72688920.737 8 -85156304.873 6
  25450968.819    25450974.962   -17617558.638 8  12544933.874 9
 86  6 19  3 28 35.0800000  0  4G12G13G 9G 7
  20950404.036    20950410.591     4604927.091 9 -17394833.208 4
  21545354.346    21545361.612    -5785134.525 9  13719173.721 7
  23496381.439    23496383.397    72713296.996 8 -85137310.357 2
  25448330.203    25448336.209   -17631416.836 8  12534135.329 6
 86  6 19  3 28 41.0800000  0  4G12G13G 9G 7
  20951367.237    20951374.605     4609992.818 8 -17390885.886 7
  21547064.802    21547072.416    -5776146.705 9  13726177.189 8
  23501021.507    23501028.407    72737679.257 8 -85118311.252 5
  25445698.886    25445706.518   -17645245.174 9  12523359.606 8
 86  6 19  3 28 47.0800000  0  4G12G13G 9G 7
  20952334.994    20952344.030     4615084.284 8 -17386918.484 5
  21548777.333    21548785.931    -5767155.014 9  13733183.710 6
  23505661.858    23505668.752    72762067.350 8 -85099307.532 7
  25443071.938    25443078.545   -17659049.097 8  12512603.323 6
 86  6 19  3 28 53.0800000  0  4G12G13G 9G 7
  20953309.200    20953319.489     4620201.545 8 -17382931.044 5
  21550489.003    21550495.426    -5758159.354 8  13740193.329 6
  23510304.166    23510308.136    72786461.583 8 -85080299.052 4
  25440449.435    25440456.909   -17672832.592 8  12501862.949 7
 86  6 19  3 28 59.0800000  0  4G12G13G 9G 7
  20954288.339    20954295.333     4625344.544 8 -17378923.534 3
  21552200.874    21552208.166    -5749159.826 9  13747205.933 6
  23514948.323    23514951.874    72810861.710 8 -85061285.979 3
  25437830.195    25437837.421   -17686598.577 9  12491136.208 6
 86  6 19  3 29  5.0800000  0  4G12G13G 9G 7
  20955272.720    20955280.220     4630513.309 8 -17374895.925 9
  21553914.026    21553921.617    -5740156.302 9  13754221.657 8
  23519591.478    23519598.515    72835267.726 7 -85042268.327 7
  25435212.376    25435220.179   -17700349.367 8  12480421.305 8
 86  6 19  3 29 11.0800000  0  4G12G13G 9G 7
  20956262.198    20956268.846     4635707.845 8 -17370848.243 8
  21555627.790    21555636.323    -5731148.796 9  13761240.492 8
  23524237.435    23524243.011    72859679.780 9 -85023245.950 6
  25432597.982    25432605.442   -17714086.194 9  12469717.289 8
 86  6 19  3 29 17.0800000  0  4G12G13G 9G 7
  20957256.126    20957261.145     4640928.239 8 -17366780.387 5
  21557342.878    21557349.362    -5722137.389 8  13768262.374 5
  23528883.143    23528887.540    72884097.768 8 -85004218.938 4
  25429988.205    25429993.712   -17727807.386 8  12459025.461 5
 86  6 19  3 29 23.0800000  0  4G12G13G 9G 7
  20958253.776    20958259.513     4646174.350 8 -17362692.532 6
  21559059.360    21559062.943    -5713122.158 9  13775287.214 7
  23533531.676    23533537.820    72908521.559 8 -84985187.421 6
                  25427387.161                    12448350.273 7
 86  6 19  3 29 29.0800000  0  4G12G13G 9G 7
  20959256.598    20959262.598     4651446.159 8 -17358584.610 7
  21560776.397    21560779.912    -5704103.018 9  13782315.125 8
  23538179.460    23538187.095    72932951.092 8 -84966151.427 7
  25424779.203    25424784.146   -17777792.573 9  12437697.293 8
 86  6 19  3 29 35.0800000  0  4G12G13G 9G 7
  20960265.084    20960270.537     4656743.720 8 -17354456.647 7
  21562492.208    21562498.267    -5695080.010 9  13789346.041 9
  23542830.256    23542835.888    72957386.607 8 -84947110.794 7
  25422185.197    25422191.775   -17791432.179 9  12427068.981 7
 86  6 19  3 29 41.0800000  0  4G12G13G 9G 7
  20961277.246    20961281.085     4662067.087 8 -17350308.543 5
  21564209.753    21564215.117    -5686053.099 8  13796379.998 4
  23547481.118    23547484.899    72981827.878 7 -84928065.641 4
  25419594.719    25419597.967   -17805042.417 9  12416463.600 5
 86  6 19  3 29 47.0800000  0  4G12G13G 9G 7
  20962295.050    20962302.016     4667416.236 8 -17346140.398 8
  21565927.885    21565934.257    -5677022.249 9  13803417.033 7
  23552132.358    23552139.124    73006274.894 8 -84909016.023 6
  25417009.239    25417015.964   -17818627.798 9  12405877.577 7
 86  6 19  3 29 53.0800000  0  4G12G13G 9G 7
  20963318.017    20963323.125     4672791.209 8 -17341952.108 6
  21567648.276    21567652.801    -5667987.442 9  13810457.130 6
  23556787.736    23556792.233    73030727.779 8 -84889961.843 4
  25414427.718    25414433.932   -17832192.697 9  12395307.510 6
 86  6 19  3 29 59.0800000  0  4G12G13G 9G 7
  20964346.097    20964352.981     4678191.999 8 -17337743.708 8
  21569366.949    21569373.856    -5658948.729 9  13817500.288 8
  23561441.149    23561447.105    73055186.466 9 -84870903.141 7
  25411848.924    25411856.309   -17845740.004 9  12384751.175 8
 86  6 19  3 30  5.0800000  0  4G12G13G 9G 7
  20965378.486    20965383.492     4683618.610 8 -17333515.187 6
  21571088.643    21571093.647    -5649906.149 9  13824546.454 5
  23566096.699    23566100.369    73079651.001 7 -84851839.853 5
  25409273.413    25409281.636   -17859272.050 8  12374206.713 5
 86  6 19  3 30 11.0800000  0  4G12G13G 9G 7
  20966416.434    20966422.007     4689070.991 9 -17329266.587 8
  21572809.614    21572814.832    -5640859.769 9  13831595.579 8
  23570752.478    23570759.578    73104121.178 8 -84832772.200 7
  25406701.393    25406709.306   -17872789.884 8  12363673.348 8
 86  6 19  3 30 17.0800000  0  4G12G13G 9G 7
  20967459.548    20967465.149     4694549.150 9 -17324997.905 7
  21574532.408    21574537.588    -5631809.523 9  13838647.721 7
  23575409.616    23575417.758    73128596.941 7 -84813700.190 6
  25404131.653    25404139.895   -17886291.542 8  12353152.574 7
 86  6 19  3 30 23.0800000  0  4G12G13G 9G 7
  20968506.970    20968512.098     4700053.078 9 -17320709.130 3
  21576255.500    21576258.876    -5622755.330 8  13845702.940 6
  23580067.596    23580076.051    73153078.420 8 -84794623.707 5
                  25401574.457                    12342649.309 5
 86  6 19  3 30 29.0800000  0  4G12G13G 9G 7
  20969559.898    20969564.412     4705582.677 9 -17316400.363 5
  21577978.658    21577984.549    -5613697.362 9  13852761.091 7
  23584728.305    23584736.894    73177565.448 7 -84775542.929 6
  25399009.702    25399015.022   -17936054.213 6  12332168.825 7
 86  6 19  3 30 35.0800000  0  4G12G13G 9G 7
  20970617.852    20970622.880     4711137.926 9 -17312071.599 7
  21579703.390    21579709.797    -5604635.646 9  13859822.171 8
  23589389.385    23589397.856    73202058.004 7 -84756457.817 7
  25396455.807    25396462.585   -17949472.275 8  12321713.231 9
 86  6 19  3 30 41.0800000  0  4G12G13G 9G 7
  20971678.431    20971684.080     4716718.860 8 -17307722.811 7
  21581427.867    21581434.673    -5595570.186 9  13866886.177 8
  23594052.407    23594058.120    73226556.204 7 -84737368.327 8
  25393907.521    25393914.823   -17962861.738 9  12311280.277 9
 86  6 19  3 30 47.0800000  0  4G12G13G 9G 7
  20972744.760    20972751.326     4722325.348 8 -17303354.116 5
  21583154.235    21583160.861    -5586501.003 9  13873953.077 6
  23598712.794    23598721.823    73251059.814 7 -84718274.632 5
  25391363.547    25391372.327   -17976225.983 8  12300866.607 6
 86  6 19  3 30 53.0800000  0  4G12G13G 9G 7
  20973815.746    20973822.500     4727957.378 9 -17298965.525 7
  21584880.930    21584887.431    -5577428.124 9  13881022.844 7
  23603378.426    23603385.063    73275568.655 7 -84699176.846 7
  25388824.076    25388832.219   -17989570.022 9  12290468.639 8
 86  6 19  3 30 59.0800000  0  4G12G13G 9G 7
  20974892.112    20974896.672     4733614.960 7 -17294557.023 6
  21586608.372    21586615.222    -5568351.683 9  13888095.395 7
  23608041.766    23608050.592    73300082.914 9 -84680074.831 6
  25386287.581    25386296.625   -18002896.666 8  12280084.249 7
 86  6 19  3 31  5.0800000  0  4G12G13G 9G 7
  20975974.376    20975979.137     4739298.134 9 -17290128.580 7
  21588336.910    21588342.357    -5559271.526 9  13895170.833 8
  23612708.595    23612715.961    73324602.422 7 -84660968.733 7
  25383755.111    25383763.664   -18016208.031 8  12269711.751 8
 86  6 19  3 31 11.0800000  0  4G12G13G 9G 7
  20977060.241    20977066.664     4745006.846 9 -17285680.226 7
  21590065.878    21590071.473    -5550187.719 9  13902249.124 9
  23617373.760    23617382.555    73349127.325 7 -84641858.435 8
  25381225.247    25381232.440   -18029504.993 9  12259350.484 9
 86  6 19  3 31 17.0800000  0  4G12G13G 9G 7
  20978151.965    20978156.193     4750741.154 8 -17281211.941 8
  21591794.469    21591799.913    -5541100.157 8  13909330.350 9
  23622042.169    23622051.175    73373657.553 8 -84622743.995 8
  25378697.843    25378705.346   -18042785.244 9  12249002.237 8
 86  6 19  3 31 23.0800000  0  4G12G13G 9G 7
  20979248.189    20979251.106     4756501.119 9 -17276723.651 4
  21593523.098    21593527.882    -5532008.807 9  13916414.533 6
  23626711.461    23626720.688    73398193.216 7 -84603625.323 3
                  25376181.471                    12238672.128 4
 86  6 19  3 31 29.0800000  0  4G12G13G 9G 7
  20980350.114    20980352.196     4762286.807 9 -17272215.316 5
  21595254.640    21595260.327    -5522913.696 9  13923501.610 5
  23631383.078    23631391.562    73422734.202 8 -84584502.481 5
  25373659.400    25373663.497   -18092322.815 7  12228365.363 4
 86  6 19  3 31 35.0800000  0  4G12G13G 9G 7
  20981455.075    20981460.361     4768098.161 8 -17267687.011 8
  21596985.636    21596992.688    -5513814.870 8  13930591.591 8
  23636053.500    23636060.309    73447280.617 8 -84565375.405 8
  25371147.995    25371154.056   -18105517.784 8  12218083.535 8
 86  6 19  3 31 41.0800000  0  4G12G13G 9G 7
  20982565.578    20982571.046     4773935.146 9 -17263138.695 7
  21598718.315    21598725.014    -5504712.230 9  13937684.546 9
  23640726.726    23640732.695    73471832.306 8 -84546244.237 8
  25368642.846    25368649.295   -18118683.181 8  12207824.405 9
 86  6 19  3 31 47.0800000  0  4G12G13G 9G 7
  20983681.274    20983687.757     4779797.858 7 -17258570.374 8
  21600451.092    21600457.807    -5495605.818 9  13944780.456 8
  23645398.665    23645406.094    73496389.413 8 -84527108.845 8
  25366141.275    25366148.244   -18131824.495 8  12197584.425 8
 86  6 19  3 31 53.0800000  0  4G12G13G 9G 7
  20984800.908    20984808.339     4785686.201 8 -17253982.059 7
  21602183.355    21602190.956    -5486495.683 9  13951879.260 7
  23650073.635    23650080.427    73520951.821 8 -84507969.311 7
  25363645.303    25363652.821   -18144945.469 8  12187360.288 8
 86  6 19  3 31 59.0800000  0  4G12G13G 9G 7
  20985926.568    20985933.101     4791600.198 8 -17249373.741 7
  21603918.038    21603924.004    -5477381.794 8  13958980.993 7
  23654748.243    23654754.885    73545519.373 9 -84488825.779 8
  25361150.945    25361159.049   -18158048.775 9  12177149.927 8
 86  6 19  3 32  5.0800000  0  4G12G13G 9G 7
  20987056.859    20987063.500     4797539.760 8 -17244745.516 6
  21605653.968    21605659.960    -5468264.229 8  13966085.589 6
  23659423.399    23659430.780    73570092.082 8 -84469678.205 7
  25358660.296    25358666.593   -18171136.798 9  12166951.486 7
 86  6 19  3 32 11.0800000  0  4G12G13G 9G 7
  20988192.645    20988197.622     4803504.848 8 -17240097.392 7
  21607389.306    21607394.861    -5459143.007 9  13973193.046 8
  23664098.908    23664108.020    73594669.968 7 -84450526.627 9
  25356172.910    25356178.487   -18184210.085 8  12156764.507 8
 86  6 19  3 32 17.0800000  0  4G12G13G 9G 7
  20989332.544    20989337.783     4809495.486 9 -17235429.361 7
  21609126.409    21609130.758    -5450018.176 9  13980303.301 7
  23668778.194    23668786.010    73619252.989 8 -84431371.030 8
  25353688.853    25353694.506   -18197266.110 9  12146590.987 7
 86  6 19  3 32 23.0800000  0  4G12G13G 9G 7
  20990477.321    20990482.207     4815511.659 9 -17230741.430 8
  21610862.611    21610866.509    -5440889.725 9  13987416.371 7
  23673457.740    23673466.186    73643841.062 8 -84412211.506 8
                  25351213.173                    12136436.187 8
 86  6 19  3 32 29.0800000  0  4G12G13G 9G 7
  20991626.721    20991631.076     4821553.306 8 -17226033.629 1
  21612600.406    21612603.011    -5431757.706 8  13994532.259 3
  23678137.762    23678145.102    73668434.164 8 -84393048.069 4
  25348733.838    25348738.798   -18246580.606 7  12126305.163 4
 86  6 19  3 32 35.0800000  0  4G12G13G 9G 7
  20992780.916    20992786.072     4827620.512 8 -17221305.967 5
  21614338.318    21614343.623    -5422622.060 9  14001650.934 5
  23682818.125    23682825.691    73693032.231 7 -84373880.752 6
  25346266.238    25346270.502   -18259549.920 9  12116199.180 6
 86  6 19  3 32 41.0800000  0  4G12G13G 9G 7
  20993940.489    20993947.129     4833713.104 8 -17216558.510 8
  21616077.127    21616084.001    -5413482.921 9  14008772.346 7
  23687501.028    23687507.785    73717635.185 9 -84354709.632 8
  25343804.207    25343808.800   -18272490.485 8  12106115.640 8
 86  6 19  3 32 47.0800000  0  4G12G13G 9G 7
  20995104.081    20995111.216     4839831.180 9 -17211791.193 6
  21617817.436    21617823.772    -5404340.278 8  14015896.477 6
  23692183.078    23692191.091    73742243.131 8 -84335534.611 8
  25341345.945    25341351.116   -18285406.708 9  12096051.060 6
 86  6 19  3 32 53.0800000  0  4G12G13G 9G 7
  20996274.136    20996280.214     4845974.718 7 -17207004.025 7
  21619557.260    21619564.516    -5395194.120 7  14023023.382 8
  23696866.617    23696874.771    73766855.899 8 -84316355.823 7
  25338892.730    25338898.601   -18298302.703 9  12086002.224 8
 86  6 19  3 32 59.0800000  0  4G12G13G 9G 7
  20997447.292    20997453.204     4852143.665 8 -17202197.049 5
  21621299.106    21621303.158    -5386044.385 8  14030153.035 2
  23701550.545    23701556.469    73791473.598 8 -84297173.187 5
  25336442.205    25336448.387   -18311181.154 8  12075967.083 6
 86  6 19  3 33  5.0800000  0  4G12G13G 9G 7
  20998627.160    20998633.096     4858338.102 9 -17197370.245 6
  21623042.134    21623046.025    -5376891.103 8  14037285.486 5
  23706236.276    23706244.131    73816096.152 8 -84277986.805 5
  25333994.675    25334002.039   -18324044.212 9  12065943.908 6
 86  6 19  3 33 11.0800000  0  4G12G13G 9G 7
  20999810.341    20999816.507     4864558.007 8 -17192523.564 6
  21624782.876    21624791.556    -5367734.209 8  14044420.727 4
  23710922.565    23710928.138    73840723.636 8 -84258796.539 5
  25331550.187    25331556.608   -18336892.216 9  12055932.502 5
 86  6 19  3 33 17.0800000  0  4G12G13G 9G 7
  21001000.356    21001004.649     4870803.409 9 -17187657.012 8
  21626526.413    21626533.773    -5358573.792 8  14051558.688 8
  23715609.562    23715618.313    73865356.010 8 -84239602.500 7
  25329109.183    25329115.932   -18349722.343 9  12045935.000 9
 86  6 19  3 33 23.0800000  0  4G12G13G 9G 7
  21002192.712    21002198.909     4877074.350 9 -17182770.552 7
  21628270.153    21628277.168    -5349409.737 8  14058699.508 6
  23720299.273    23720306.072    73889993.267 8 -84220404.653 7
                  25326679.044                    12035956.959 7
 86  6 19  3 33 29.0800000  0  4G12G13G 9G 7
  21003390.925    21003394.346     4883370.807 8 -17177864.202 5
  21630016.144    21630019.771    -5340242.100 9  14065843.115 5
  23724988.361    23724993.941    73914635.306 9 -84201203.064 6
  25324241.592    25324244.106   -18398810.017 9  12026003.185 6
 86  6 19  3 33 35.0800000  0  4G12G13G 9G 7
  21004592.184    21004599.138     4889693.158 8 -17172937.699 4
  21631762.271    21631765.665    -5331070.464 9  14072989.856 6
  23729678.184    23729685.571    73939282.609 7 -84181997.379 5
  25321817.157    25321821.802   -18411551.247 9  12016074.978 5
 86  6 19  3 33 41.0800000  0  4G12G13G 9G 7
  21005800.570    21005806.537     4896041.191 7 -17167991.205 5
  21633507.639    21633513.203    -5321894.963 9  14080139.585 5
  23734369.187    23734376.238    73963934.895 8 -84162787.795 5
  25319397.072    25319402.324   -18424263.934 9  12006169.375 5
 86  6 19  3 33 47.0800000  0  4G12G13G 9G 7
  21007012.079    21007018.874     4902414.638 7 -17163024.867 7
  21635254.793    21635260.401    -5312715.930 9  14087292.068 7
  23739060.353    23739068.692    73988591.994 9 -84143574.487 6
  25316982.300    25316986.718   -18436951.924 9  11996282.623 6
 86  6 19  3 33 53.0800000  0  4G12G13G 9G 7
  21008229.154    21008237.136     4908813.519 8 -17158038.739 8
  21637002.313    21637008.108    -5303533.355 8  14094447.319 8
  23743753.770    23743762.988    74013253.823 8 -84124357.498 8
  25314571.822    25314576.157   -18449619.626 9  11986411.692 8
 86  6 19  3 33 59.0800000  0  4G12G13G 9G 7
  21009452.752    21009460.600     4915237.842 9 -17153032.801 8
  21638750.046    21638756.227    -5294347.215 9  14101605.360 8
  23748448.035    23748455.671    74037920.331 8 -84105136.850 8
  25312164.186    25312168.268   -18462269.763 8  11976554.447 8
 86  6 19  3 34  5.0800000  0  4G12G13G 9G 7
  21010680.805    21010685.742     4921687.694 8 -17148006.915 6
  21640498.727    21640502.651    -5285157.539 9  14108766.149 6
  23753141.974    23753149.086    74062591.577 9 -84085912.505 6
  25309759.803    25309762.126   -18474904.183 8  11966709.478 5
 86  6 19  3 34 11.0800000  0  4G12G13G 9G 7
  21011912.728    21011921.589     4928162.951 7 -17142961.275 5
  21642247.572    21642254.948    -5275964.480 9  14115929.560 7
  23757838.594    23757847.096    74087267.416 7 -84066684.600 5
  25307358.052    25307360.957   -18487523.177 8  11956876.484 6
 86  6 19  3 34 17.0800000  0  4G12G13G 9G 7
  21013149.461    21013157.173     4934663.563 8 -17137895.890 7
  21643997.259    21644004.719    -5266767.985 8  14123095.653 8
  23762535.412    23762543.894    74111947.849 8 -84047453.091 6
  25304960.938    25304966.529   -18500123.671 8  11947057.915 7
 86  6 19  3 34 23.0800000  0  4G12G13G 9G 7
  21014392.834    21014400.252     4941189.414 8 -17132810.794 6
  21645748.426    21645754.323    -5257568.118 9  14130264.388 9
  23767232.385    23767241.791    74136632.717 8 -84028218.127 6
                  25302573.039                    11937259.315 7
 86  6 19  3 34 29.0800000  0  4G12G13G 9G 7
  21015639.750    21015645.295     4947740.497 8 -17127706.062 7
  21647499.339    21647504.874    -5248364.730 9  14137435.843 7
  23771931.972    23771938.686    74161322.182 8 -84008979.582 7
  25300182.604    25300187.116   -18548982.446 8  11927485.255 8
 86  6 19  3 34 35.0800000  0  4G12G13G 9G 7
  21016890.009    21016895.224     4954316.888 9 -17122581.571 4
  21649251.545    21649255.419    -5239157.909 9  14144610.004 5
  23776631.569    23776636.807    74186016.101 8 -83989737.599 5
  25297800.830    25297805.605   -18561493.491 9  11917736.392 6
 86  6 19  3 34 41.0800000  0  4G12G13G 9G 7
  21018146.994    21018152.658     4960918.569 8 -17117437.429 6
  21651002.842    21651010.263    -5229947.601 9  14151786.871 5
  23781330.078    23781339.430    74210714.428 8 -83970492.130 6
  25295426.229    25295429.935   -18573975.462 9  11908009.795 5
 86  6 19  3 34 47.0800000  0  4G12G13G 9G 7
  21019406.993    21019414.311     4967545.552 8 -17112273.522 7
  21652756.005    21652763.083    -5220733.901 9  14158966.377 8
  23786031.171    23786039.788    74235417.167 8 -83951243.272 7
  25293054.747    25293058.936   -18586434.026 8  11898301.834 8
 86  6 19  3 34 53.0800000  0  4G12G13G 9G 7
  21020672.657    21020681.047     4974197.842 8 -17107089.924 6
  21654510.877    21654516.312    -5211516.880 9  14166148.485 8
  23790734.185    23790740.805    74260124.412 8 -83931990.876 8
  25290687.626    25290692.023   -18598872.450 9  11888609.558 7
 86  6 19  3 34 59.0800000  0  4G12G13G 9G 7
  21021941.841    21021950.233     4980875.378 8 -17101886.670 8
  21656265.518    21656270.910    -5202296.569 9  14173333.129 9
  23795437.084    23795443.750    74284835.866 8 -83912735.205 6
  25288325.455    25288328.292   -18611293.279 9  11878930.976 8
 86  6 19  3 35  5.0800000  0  4G12G13G 9G 7
  21023216.530    21023226.915     4987578.273 8 -17096663.637 8
  21658021.053    21658027.506    -5193072.870 9  14180520.425 8
  23800138.922    23800147.146    74309551.817 9 -83893476.040 6
  25285963.961    25285968.154   -18623698.359 9  11869264.669 8
 86  6 19  3 35 11.0800000  0  4G12G13G 9G 7
  21024497.660    21024505.982     4994306.492 7 -17091420.879 8
  21659777.387    21659783.189    -5183845.748 9  14187710.412 9
  23804843.269    23804851.711    74334272.079 9 -83874213.493 6
  25283605.234    25283609.570   -18636087.838 9  11859610.545 8
 86  6 19  3 35 17.0800000  0  4G12G13G 9G 7
  21025783.950    21025792.661     5001060.142 8 -17086158.293 5
  21661534.172    21661538.428    -5174615.115 9  14194903.115 5
  23809548.082    23809552.064    74358996.729 8 -83854947.523 3
                  25281255.343                    11849971.488 4
 86  6 19  3 35 23.0800000  0  4G12G13G 9G 7
  21027074.511    21027082.160     5007839.115 9 -17080875.988 7
  21663292.378    21663296.434    -5165381.035 9  14202098.514 7
  23814254.679    23814262.587    74383725.726 8 -83835678.189 6
  25278921.077    25278906.381   -18684770.984 9  11840352.886 6
 86  6 19  3 35 29.0800000  0  4G12G13G 9G 7
  21028369.519    21028375.902     5014643.354 8 -17075573.997 7
  21665049.294    21665055.227    -5156143.470 9  14209296.615 9
  23818959.725    23818968.010    74408459.080 8 -83816405.446 7
  25276559.632    25276565.141   -18697082.937 8  11830759.442 8
 86  6 19  3 35 35.0800000  0  4G12G13G 9G 7
  21029670.360    21029677.108     5021472.787 9 -17070252.355 6
  21666808.032    21666813.317    -5146902.550 9  14216497.324 7
  23823667.941    23823674.727    74433196.571 7 -83797129.476 7
  25274223.752    25274227.448   -18709362.182 9  11821191.184 7
 86  6 19  3 35 41.0800000  0  4G12G13G 9G 7
  21030975.947    21030979.306     5028327.472 8 -17064911.016 2
  21668567.126    21668570.158    -5137658.352 9  14223700.623 5
  23828375.940    23828382.383    74457938.442 7 -83777850.079 3
  25271891.163    25271896.738   -18721613.378 9  11811645.206 3
 86  6 19  3 35 47.0800000  0  4G12G13G 9G 7
  21032284.868    21032289.197     5035207.385 8 -17059550.054 6
  21670327.051    21670332.521    -5128410.803 9  14230906.478 6
  23833084.628    23833091.915    74482684.432 8 -83758567.529 5
  25269564.230    25269571.381   -18733840.183 9  11802117.817 6
 86  6 19  3 35 53.0800000  0  4G12G13G 9G 7
  21033598.049    21033604.518     5042112.441 8 -17054169.495 8
  21672086.903    21672092.600    -5119159.945 8  14238114.946 8
  23837795.713    23837801.992    74507434.583 8 -83739281.688 8
  25267241.792    25267248.040   -18746046.872 9  11792606.124 8
 86  6 19  3 35 59.0800000  0  4G12G13G 9G 7
  21034916.340    21034923.221     5049042.643 8 -17048769.347 6
  21673848.665    21673853.118    -5109905.772 9  14245325.985 8
  23842506.559    23842512.126    74532188.901 8 -83719992.624 6
  25264923.903    25264929.021   -18758235.897 9  11783108.175 8
 86  6 19  3 36  5.0800000  0  4G12G13G 9G 7
  21036238.868    21036247.031     5055998.011 8 -17043349.579 7
  21675610.022    21675615.168    -5100648.331 9  14252539.575 8
  23847216.315    23847223.765    74556947.276 8 -83700700.381 6
  25262607.569    25262611.952   -18770409.198 9  11773622.498 8
 86  6 19  3 36 11.0800000  0  4G12G13G 9G 7
  21037567.541    21037575.297     5062978.536 8 -17037910.225 7
  21677371.703    21677377.366    -5091387.665 9  14259755.692 7
  23851928.988    23851936.388    74581709.672 8 -83681405.015 6
  25260293.783    25260298.877   -18782566.552 8  11764149.229 7
 86  6 19  3 36 17.0800000  0  4G12G13G 9G 7
  21038900.058    21038908.030     5069984.227 8 -17032451.254 8
  21679133.820    21679138.995    -5082123.726 9  14266974.347 7
  23856642.370    23856648.635    74606476.094 9 -83662106.515 7
  25257983.879    25257988.915   -18794704.050 9  11754691.441 7
 86  6 19  3 36 23.0800000  0  4G12G13G 9G 7
  21040239.356    21040246.713     5077015.056 9 -17026972.695 8
  21680898.370    21680903.569    -5072856.533 9  14274195.537 8
  23861354.415    23861362.488    74631246.487 8 -83642804.907 6
                  25255684.258                    11745254.756 8
 86  6 19  3 36 29.0800000  0  4G12G13G 9G 7
  21041582.745    21041587.848     5084070.963 9 -17021474.572 3
  21682661.372    21682666.765    -5063586.163 8  14281419.220 4
  23866070.619    23866074.230    74656020.908 7 -83623500.181 3
  25253377.492    25253386.268   -18843100.856 8  11735843.430 6
 86  6 19  3 36 35.0800000  0  4G12G13G 9G 7
  21042929.997    21042937.645     5091151.986 7 -17015956.914 7
  21684425.767    21684431.567    -5054312.589 9  14288645.355 8
  23870784.485    23870793.271    74680799.217 7 -83604192.413 7
  25251086.829    25251094.871   -18855146.520 9  11726457.198 9
 86  6 19  3 36 41.0800000  0  4G12G13G 9G 7
  21044280.811    21044289.669     5098258.138 8 -17010419.656 7
  21686190.949    21686197.651    -5045035.762 8  14295874.052 7
  23875499.904    23875508.727    74705581.489 7 -83584881.562 6
  25248800.965    25248808.157   -18867163.296 8  11717093.101 7
 86  6 19  3 36 47.0800000  0  4G12G13G 9G 7
  21045639.979    21045646.723     5105389.379 9 -17004862.845 7
  21687956.744    21687964.099    -5035755.632 9  14303105.303 7
  23880216.833    23880224.889    74730367.780 7 -83565567.563 7
  25246519.011    25246526.309   -18879156.721 8  11707747.578 9
 86  6 19  3 36 53.0800000  0  4G12G13G 9G 7
  21047000.010    21047008.189     5112545.719 9 -16999286.473 8
  21689723.586    21689731.462    -5026472.323 9  14310339.061 8
  23884934.745    23884943.848    74755157.844 7 -83546250.634 8
  25244240.033    25244246.692   -18891130.031 9  11698417.733 9
 86  6 19  3 36 59.0800000  0  4G12G13G 9G 7
  21048366.273    21048373.602     5119727.126 9 -16993690.578 5
  21691489.843    21691496.244    -5017185.862 9  14317575.243 4
  23889652.640    23889659.460    74779951.804 6 -83526930.687 5
  25241965.989    25241970.300   -18903085.629 9  11689101.666 5
 86  6 19  3 37  5.0800000  0  4G12G13G 9G 7
  21049737.023    21049745.513     5126933.592 8 -16988075.146 8
  21693258.009    21693266.060    -5007896.191 8  14324813.955 7
  23894370.816    23894379.971    74804749.631 7 -83507607.712 7
  25239693.975    25239699.795   -18915025.260 8  11679798.064 9
 86  6 19  3 37 11.0800000  0  4G12G13G 9G 7
  21051113.703    21051121.593     5134165.137 8 -16982440.192 8
  21695026.766    21695033.710    -4998603.285 8  14332055.170 7
  23899091.787    23899100.522    74829551.169 6 -83488281.835 7
  25237425.176    25237431.654   -18926948.569 9  11670507.178 7
 86  6 19  3 37 17.0800000  0  4G12G13G 9G 7
  21052495.107    21052503.440     5141421.794 8 -16976785.649 8
  21696795.957    21696802.372    -4989307.186 8  14339298.883 8
  23903811.605    23903820.747    74854356.540 7 -83468952.995 7
                  25235166.152                    11661232.377 7
 86  6 19  3 37 23.0800000  0  4G12G13G 9G 7
  21053881.970    21053889.920     5148703.558 8 -16971111.567 8
  21698563.716    21698571.871    -4980007.775 9  14346545.173 8
  23908533.304    23908541.635    74879165.860 7 -83449621.060 8
  25232883.200    25232905.150   -18975168.374 9  11651979.190 8
 86  6 19  3 37 29.0800000  0  4G12G13G 9G 7
  21055271.624    21055278.934     5156010.440 8 -16965417.890 8
  21700335.372    21700341.867    -4970705.006 9  14353794.087 7
  23913253.787    23913263.743    74903978.965 8 -83430286.193 7
  25230645.186    25230651.129   -18987010.335 8  11642751.880 8
 86  6 19  3 37 35.0800000  0  4G12G13G 9G 7
  21056667.460    21056673.264     5163342.425 8 -16959704.633 4
  21702106.003    21702112.234    -4961399.000 9  14361045.538 5
  23917976.355    23917984.929    74928795.826 7 -83410948.394 2
  25228399.120    25228402.734   -18998820.134 9  11633549.860 3
 86  6 19  3 37 41.0800000  0  4G12G13G 9G 7
  21058067.424    21058074.876     5170699.502 8 -16953971.869 7
  21703878.594    21703884.832    -4952089.821 9  14368299.435 8
  23922699.315    23922709.441    74953616.395 7 -83391607.717 6
  25226157.910    25226162.217   -19010601.208 9  11624369.783 7
 86  6 19  3 37 47.0800000  0  4G12G13G 9G 7
  21059471.552    21059477.403     5178081.518 8 -16948219.685 6
  21705650.449    21705656.413    -4942777.479 9  14375555.795 7
  23927424.100    23927431.469    74978440.612 8 -83372264.186 4
  25223921.068    25223925.203   -19022358.710 8  11615208.070 6
 86  6 19  3 37 53.0800000  0  4G12G13G 9G 7
  21060880.741    21060888.606     5185488.491 8 -16942447.994 8
  21707424.225    21707429.210    -4933461.901 8  14382814.698 8
  23932149.264    23932157.131    75003268.498 8 -83352917.797 7
  25221686.335    25221691.534   -19034096.191 8  11606061.991 9
 86  6 19  3 37 59.0800000  0  4G12G13G 9G 7
  21062295.585    21062302.381     5192920.497 8 -16936656.820 7
  21709195.857    21709202.706    -4924143.135 9  14390076.074 8
  23936875.630    23936882.667    75028099.965 7 -83333568.612 7
  25219456.067    25219462.014   -19045815.912 9  11596929.762 8
 86  6 19  3 38  5.0800000  0  4G12G13G 9G 7
  21063715.484    21063720.370     5200377.580 8 -16930846.099 8
  21710969.698    21710977.751    -4914821.173 9  14397339.948 8
  23941601.839    23941609.577    75052935.106 6 -83314216.571 8
  25217229.337    25217234.630   -19057519.396 9  11587810.155 8
 86  6 19  3 38 11.0800000  0  4G12G13G 9G 7
  21065138.593    21065144.073     5207859.723 8 -16925015.848 4
  21712744.863    21712752.547    -4905496.042 8  14404606.280 4
  23946328.723    23946334.427    75077774.027 7 -83294861.550 4
  25215005.688    25215008.508   -19069206.057 9  11578703.676 6
 86  6 19  3 38 17.0800000  0  4G12G13G 9G 7
  21066567.928    21066571.124     5215366.934 7 -16919166.072 3
  21714519.718    21714525.466    -4896167.699 8  14411875.142 3
  23951055.356    23951061.726    75102616.509 7 -83275503.810 3
                  25212790.187                    11569613.871 5
 86  6 19  3 38 23.0800000  0  4G12G13G 9G 7
  21068001.425    21068007.016     5222899.156 8 -16913296.820 8
  21716295.400    21716301.479    -4886836.161 9  14419146.459 7
  23955783.613    23955789.929    75127462.599 7 -83256143.233 7
  25210563.300    25210577.967   -19117191.835 9  11560546.434 8
 86  6 19  3 38 29.0800000  0  4G12G13G 9G 7
  21069438.755    21069445.144     5230456.361 8 -16907408.092 8
  21718072.218    21718077.257    -4877501.393 8  14426420.307 7
  23960512.867    23960518.894    75152312.146 7 -83236779.963 7
  25208363.596    25208368.981   -19128795.066 9  11551504.949 8
 86  6 19  3 38 35.0800000  0  4G12G13G 9G 7
  21070880.884    21070887.690     5238038.481 9 -16901499.948 5
  21719849.435    21719853.674    -4868163.410 9  14433696.664 5
  23965240.696    23965247.836    75177165.219 7 -83217413.955 4
  25206161.182    25206163.944   -19140366.105 9  11542488.563 4
 86  6 19  3 38 41.0800000  0  4G12G13G 9G 7
  21072328.465    21072336.234     5245645.499 8 -16895572.412 6
  21721626.424    21721631.904    -4858822.367 9  14440975.391 7
  23969971.076    23969977.739    75202021.802 6 -83198045.215 6
  25203964.426    25203969.219   -19151908.973 9  11533494.102 7
 86  6 19  3 38 47.0800000  0  4G12G13G 9G 7
  21073780.796    21073787.381     5253277.359 9 -16889625.519 7
  21723404.150    21723410.832    -4849478.295 8  14448256.484 8
  23974699.982    23974709.411    75226881.644 7 -83178673.930 7
  25201772.735    25201777.667   -19163428.408 9  11524517.927 8
 86  6 19  3 38 53.0800000  0  4G12G13G 9G 7
  21075238.117    21075245.206     5260934.021 8 -16883659.282 8
  21725183.641    21725189.181    -4840131.268 8  14455539.884 6
  23979432.661    23979439.647    75251744.722 7 -83159300.098 7
  25199584.239    25199588.461   -19174927.902 9  11515557.282 7
 86  6 19  3 38 59.0800000  0  4G12G13G 9G 7
  21076700.100    21076707.669     5268615.356 8 -16877673.816 4
  21726962.346    21726967.309    -4830781.366 9  14462825.531 7
  23984165.163    23984170.787    75276611.138 7 -83139923.674 4
  25197399.484    25197405.060   -19186409.778 9  11506610.367 6
 86  6 19  3 39  5.0800000  0  4G12G13G 9G 7
  21078166.069    21078172.863     5276321.444 8 -16871669.085 7
  21728741.944    21728748.561    -4821428.421 9  14470113.517 8
  23988896.658    23988904.531    75301480.704 7 -83120544.821 7
  25195217.160    25195224.057   -19197875.544 9  11497676.011 9
 86  6 19  3 39 11.0800000  0  4G12G13G 9G 7
  21079638.576    21079642.906     5284052.333 9 -16865645.008 7
  21730522.473    21730529.501    -4812072.537 9  14477403.805 8
  23993630.287    23993637.084    75326353.556 6 -83101163.380 7
  25193037.832    25193046.265   -19209324.252 8  11488754.931 8
 86  6 19  3 39 17.0800000  0  4G12G13G 9G 7
  21081113.817    21081119.706     5291808.007 9 -16859601.628 7
  21732303.633    21732310.487    -4802713.636 9  14484696.458 7
  23998362.638    23998371.916    75351229.664 5 -83081779.439 7
                  25190870.933                    11479851.061 7
 86  6 19  3 39 23.0800000  0  4G12G13G 9G 7
  21082595.095    21082598.478     5299588.472 8 -16853538.922 4
  21734085.581    21734089.989    -4793351.773 9  14491991.427 5
  24003099.152    24003106.084    75376108.889 8 -83062393.057 2
  25188634.584    25188700.463   -19257071.712 9  11470969.980 5
 86  6 19  3 39 29.0800000  0  4G12G13G 9G 7
  21084079.692    21084084.082     5307393.842 8 -16847456.822 5
  21735867.786    21735872.844    -4783986.850 9  14499288.768 6
  24007832.083    24007839.364    75400991.504 6 -83043003.988 4
  25186531.695    25186537.972   -19268435.418 9  11462115.216 6
 86  6 19  3 39 35.0800000  0  4G12G13G 9G 7
  21085569.065    21085576.360     5315224.061 9 -16841355.339 8
  21737650.253    21737655.549    -4774618.887 9  14506588.475 7
  24012567.421    24012575.507    75425877.359 6 -83023612.435 7
  25184377.094    25184382.927   -19279766.416 9  11453285.492 7
 86  6 19  3 39 41.0800000  0  4G12G13G 9G 7
  21087064.402    21087070.078     5323079.069 9 -16835234.572 8
  21739434.021    21739438.978    -4765247.930 9  14513890.526 8
  24017304.642    24017311.700    75450766.336 6 -83004218.448 7
  25182226.479    25182230.180   -19291069.969 9  11444477.525 8
 86  6 19  3 39 47.0800000  0  4G12G13G 9G 7
  21088562.148    21088570.287     5330958.774 8 -16829094.530 8
  21741217.821    21741223.273    -4755874.113 9  14521194.803 7
  24022040.845    24022050.023    75475658.430 6 -82984822.033 8
  25180081.150    25180083.379   -19302350.247 9  11435687.709 8
 86  6 19  3 39 53.0800000  0  4G12G13G 9G 7
  21090066.361    21090074.404     5338863.276 9 -16822935.174 6
  21743002.080    21743006.511    -4746497.206 8  14528501.475 6
  24026779.986    24026787.504    75500553.611 7 -82965423.200 5
  25177938.082    25177941.196   -19313610.419 9  11426913.542 6
 86  6 19  3 39 59.0800000  0  4G12G13G 9G 7
  21091574.467    21091583.253     5346792.550 8 -16816756.538 7
  21744785.999    21744792.965    -4737117.249 9  14535810.533 8
  24031517.797    24031525.324    75525451.919 7 -82946021.925 7
  25175797.360    25175801.601   -19324852.854 9  11418153.186 7
 86  6 19  3 40  5.0800000  0  4G12G13G 9G 7
  21093090.099    21093096.768     5354746.594 7 -16810558.588 8
  21746572.178    21746577.145    -4727734.284 9  14543121.922 8
  24036256.063    24036263.813    75550353.283 7 -82926618.266 7
  25173660.960    25173665.420   -19336078.833 9  11409405.667 8
 86  6 19  3 40 11.0800000  0  4G12G13G 9G 7
  21094607.443    21094615.046     5362725.313 8 -16804341.382 4
  21748358.831    21748363.214    -4718348.385 8  14550435.602 5
  24040996.031    24041000.264    75575257.764 6 -82907212.198 3
  25171526.820    25171529.101   -19347287.310 9  11400671.803 4
 86  6 19  3 40 17.0800000  0  4G12G13G 9G 7
  21096131.474    21096138.601     5370728.724 9 -16798105.010 6
  21750145.813    21750150.870    -4708959.505 8  14557751.604 3
  24045734.838    24045742.761    75600165.232 7 -82887803.745 4
                  25169403.078                    11391955.653 4
 86  6 19  3 40 23.0800000  0  4G12G13G 9G 7
  21097658.335    21097665.844     5378756.818 8 -16791849.343 8
  21751932.981    21751937.822    -4699567.601 9  14565069.982 8
  24050476.080    24050482.170    75625075.709 7 -82868393.029 7
  25167276.018    25167283.056   -19394790.266 8  11383262.877 9
 86  6 19  3 40 29.0800000  0  4G12G13G 9G 7
  21099191.570    21099198.919     5386809.701 8 -16785574.369 7
  21753721.148    21753726.161    -4690172.710 9  14572390.681 8
  24055217.101    24055223.086    75649989.156 7 -82848979.955 6
  25165159.211    25165166.284   -19405912.007 9  11374596.570 8
 86  6 19  3 40 35.0800000  0  4G12G13G 9G 7
  21100728.539    21100737.229     5394887.256 8 -16779280.185 8
  21755509.597    21755513.128    -4680774.762 9  14579713.748 7
  24059958.055    24059964.466    75674905.601 7 -82829564.554 7
  25163049.082    25163056.284   -19417002.075 9  11365955.348 8
 86  6 19  3 40 41.0800000  0  4G12G13G 9G 7
  21102270.094    21102278.101     5402989.531 8 -16772966.720 6
  21757298.451    21757300.310    -4671373.841 9  14587039.163 5
  24064700.225    24064706.914    75699824.969 6 -82810146.857 1
  25160943.561    25160951.252   -19428063.891 9  11357335.759 6
 86  6 19  3 40 47.0800000  0  4G12G13G 9G 7
  21103818.299    21103824.866     5411116.458 9 -16766634.056 8
  21759086.744    21759091.194    -4661970.048 9  14594366.799 7
  24069443.186    24069449.606    75724747.141 6 -82790727.003 7
  25158843.286    25158850.284   -19439102.426 9  11348734.297 9
 86  6 19  3 40 53.0800000  0  4G12G13G 9G 7
  21105368.612    21105376.675     5419268.073 8 -16760282.150 8
  21760877.436    21760882.351    -4652563.281 9  14601696.752 7
  24074184.022    24074192.222    75749672.218 7 -82771304.862 6
  25156746.027    25156752.580   -19450120.854 9  11340148.535 8
 86  6 19  3 40 59.0800000  0  4G12G13G 9G 7
  21106924.008    21106931.287     5427444.201 8 -16753911.144 8
  21762667.117    21762672.440    -4643153.639 9  14609028.949 8
  24078927.494    24078934.917    75774599.985 7 -82751880.650 7
  25154654.004    25154659.622   -19461121.479 9  11331576.612 8
 86  6 19  3 41  5.0800000  0  4G12G13G 9G 7
  21108484.387    21108491.158     5435644.780 8 -16747521.077 7
  21764458.308    21764462.775    -4633741.209 9  14616363.321 8
  24083672.585    24083681.276    75799530.531 6 -82732454.265 7
  25152564.032    25152570.194   -19472105.624 9  11323017.538 9
 86  6 19  3 41 11.0800000  0  4G12G13G 9G 7
  21110049.625    21110056.447     5443869.847 8 -16741111.948 6
  21766249.631    21766254.169    -4624326.087 9  14623699.765 7
  24088418.063    24088424.693    75824463.762 6 -82713025.759 7
  25150477.656    25150481.515   -19483071.986 9  11314472.319 8
 86  6 19  3 41 17.0800000  0  4G12G13G 9G 7
  21111619.127    21111625.727     5452119.413 8 -16734683.711 8
  21768042.353    21768047.947    -4614908.178 9  14631038.397 8
  24093163.723    24093168.436    75849399.713 7 -82693595.160 6
                  25148400.353                    11305945.369 8
 86  6 19  3 41 23.0800000  0  4G12G13G 9G 7
  21113194.437    21113200.348     5460393.498 9 -16728236.383 5
  21769835.178    21769839.639    -4605487.352 9  14638379.306 6
  24097908.359    24097913.491    75874338.355 7 -82674162.471 5
  25146316.920    25146320.651   -19530331.295 3  11297442.231 6
 86  6 19  3 41 29.0800000  0  4G12G13G 9G 7
  21114773.591    21114781.086     5468692.179 8 -16721769.874 8
  21771627.729    21771632.140    -4596063.661 8  14645722.451 8
  24102653.411    24102660.336    75899279.650 7 -82654727.671 7
  25144247.907    25144253.210   -19541209.475 9  11288965.710 8
 86  6 19  3 41 35.0800000  0  4G12G13G 9G 7
  21116356.979    21116364.856     5477015.384 8 -16715284.273 7
  21773421.030    21773426.432    -4586637.142 9  14653067.786 8
  24107400.164    24107405.889    75924223.665 8 -82635290.791 5
  25142183.195    25142188.360   -19552055.733 8  11280514.083 7
 86  6 19  3 41 41.0800000  0  4G12G13G 9G 7
  21117945.872    21117949.576     5485363.131 8 -16708779.500 5
  21775215.647    21775217.822    -4577207.754 9  14660415.392 5
  24112148.330    24112155.276    75949170.216 7 -82615851.898 1
  25140124.294    25140132.493   -19562874.512 9  11272083.900 5
 86  6 19  3 41 47.0800000  0  4G12G13G 9G 7
  21119539.687    21119547.706     5493735.307 8 -16702255.744 7
  21777010.103    21777017.491    -4567775.574 8  14667765.124 7
  24116894.729    24116901.594    75974119.301 7 -82596411.091 6
  25138070.467    25138075.623   -19573670.171 9  11263671.666 8
 86  6 19  3 41 53.0800000  0  4G12G13G 9G 7
  21121137.790    21121143.162     5502131.985 8 -16695712.884 5
  21778805.477    21778811.747    -4558340.499 8  14675117.119 4
  24121642.879    24121646.305    75999071.112 6 -82576968.137 3
  25136019.426    25136025.068   -19584445.716 9  11255275.163 5
 86  6 19  3 41 59.0800000  0  4G12G13G 9G 7
  21122740.729    21122746.297     5510553.221 9 -16689150.892 7
  21780601.502    21780608.479    -4548902.602 8  14682471.320 7
  24126392.846    24126399.892    76024025.491 8 -82557523.189 6
  25133972.954    25133978.543   -19595203.420 9  11246892.518 9
 86  6 19  3 42  5.0800000  0  4G12G13G 9G 7
  21124347.152    21124354.049     5518999.048 9 -16682569.716 7
  21782398.212    21782405.216    -4539461.870 8  14689827.736 8
  24131142.237    24131146.647    76048982.568 8 -82538076.120 6
  25131929.696    25131935.868   -19605944.275 9  11238523.009 8
 86  6 19  3 42 11.0800000  0  4G12G13G 9G 7
  21125958.923    21125965.299     5527469.384 8 -16675969.457 7
  21784195.103    21784201.874    -4530018.229 9  14697186.413 8
  24135892.776    24135897.424    76073942.142 7 -82518627.119 6
  25129889.339    25129895.965   -19616666.727 8  11230167.873 8
 86  6 19  3 42 17.0800000  0  4G12G13G 9G 7
  21127575.711    21127581.052     5535964.202 8 -16669350.108 4
  21785993.924    21785997.887    -4520571.770 8  14704547.293 6
  24140641.597    24140647.435    76098904.332 6 -82499176.112 1
                  25127863.424                    11221831.623 3
 86  6 19  3 42 23.0800000  0  4G12G13G 9G 7
  21129196.839    21129200.211     5544483.503 9 -16662711.686 4
  21787793.379    21787795.260    -4511122.436 9  14711910.387 5
  24145392.856    24145397.641    76123869.009 7 -82479723.060 2
  25125823.697    25125829.945   -19663679.735 4  11213519.783 5
 86  6 19  3 42 29.0800000  0  4G12G13G 9G 7
  21130821.338    21130826.742     5553027.279 8 -16656054.211 5
  21789591.226    21789596.175    -4501670.297 8  14719275.697 7
  24150143.198    24150147.491    76148836.178 7 -82460268.185 1
  25123800.176    25123805.997   -19674312.161 9  11205234.786 6
 86  6 19  3 42 35.0800000  0  4G12G13G 9G 7
  21132453.330    21132459.391     5561595.530 9 -16649377.669 8
  21791390.374    21791395.512    -4492215.322 8  14726643.205 8
  24154895.181    24154900.248    76173805.766 7 -82440811.345 7
  25121782.132    25121789.303   -19684912.684 8  11196974.646 8
 86  6 19  3 42 41.0800000  0  4G12G13G 9G 7
  21134087.742    21134094.807     5570188.235 8 -16642682.031 3
  21793189.276    21793194.873    -4482757.483 7  14734012.961 5
  24159645.793    24159648.405    76198777.873 7 -82421352.581 1
  25119769.812    25119774.984   -19695485.684 9  11188735.936 5
 86  6 19  3 42 47.0800000  0  4G12G13G 9G 7
  21135724.768    21135731.383     5578805.435 8 -16635967.357 6
  21794989.520    21794995.553    -4473296.732 7  14741384.948 5
  24164399.223    24164404.569    76223752.378 7 -82401891.976 2
  25117762.137    25117766.869   -19706035.565 9  11180515.260 4
 86  6 19  3 42 53.0800000  0  4G12G13G 9G 7
  21137370.918    21137378.976     5587447.195 7 -16629233.520 8
  21796791.137    21796797.655    -4463833.098 9  14748759.216 8
  24169152.705    24169158.260    76248729.481 7 -82382429.296 5
  25115759.040    25115765.414   -19716565.072 9  11172310.454 7
 86  6 19  3 42 59.0800000  0  4G12G13G 9G 7
  21139019.917    21139027.390     5596113.442 8 -16622480.619 6
  21798592.052    21798598.161    -4454366.620 7  14756135.688 7
  24173906.825    24173913.325    76273708.965 8 -82362964.749 5
  25113758.157    25113762.881   -19727076.578 9  11164119.691 6
 86  6 19  3 43  5.0800000  0  4G12G13G 9G 7
  21140674.526    21140681.054     5604804.143 8 -16615708.634 6
  21800392.368    21800399.142    -4444897.197 7  14763514.444 6
  24178660.259    24178665.121    76298690.789 7 -82343498.414 1
  25111760.785    25111767.955   -19737571.029 9  11155942.190 5
 86  6 19  3 43 11.0800000  0  4G12G13G 9G 7
  21142335.230    21142340.733     5613519.210 8 -16608917.682 8
  21802195.939    21802204.264    -4435424.959 8  14770895.412 7
  24183416.134    24183422.556    76323675.060 7 -82324030.188 5
  25109767.325    25109774.986   -19748046.577 9  11147779.415 8
 86  6 19  3 43 17.0800000  0  4G12G13G 9G 7
  21143998.572    21144003.772     5622258.453 8 -16602107.892 9
  21803999.450    21804007.194    -4425950.097 9  14778278.418 8
  24188170.285    24188176.905    76348661.373 7 -82304560.343 6
                  25107786.351                    11139636.065 8
 86  6 19  3 43 23.0800000  0  4G12G13G 9G 7
  21145665.010    21145671.019     5631021.825 7 -16595279.295 7
  21805802.113    21805809.921    -4416472.695 9  14785663.395 8
  24192925.270    24192933.487    76373649.749 8 -82285088.885 6
  25105794.989    25105804.384   -19794821.124 6  11131517.417 7
 86  6 19  3 43 29.0800000  0  4G12G13G 9G 7
  21147335.179    21147341.930     5639809.352 8 -16588431.875 4
  21807606.511    21807611.347    -4406992.675 9  14793050.428 5
  24197679.637    24197689.346    76398640.183 7 -82265615.862 2
  25103818.212    25103824.852   -19805205.742 8  11123425.553 5
 86  6 19  3 43 35.0800000  0  4G12G13G 9G 7
  21149011.337    21149019.348     5648621.010 8 -16581565.656 7
  21809411.824    21809418.265    -4397510.010 9  14800439.522 8
  24202437.935    24202445.092    76423632.546 8 -82246141.282 6
  25101849.726    25101858.812   -19815558.719 8  11115358.269 8
 86  6 19  3 43 41.0800000  0  4G12G13G 9G 7
  21150691.934    21150699.531     5657456.797 8 -16574680.635 6
  21811216.516    21811222.058    -4388024.776 8  14807830.635 6
  24207192.565    24207202.315    76448626.917 7 -82226665.205 5
  25099884.931    25099891.666   -19825884.593 9  11107312.173 7
 86  6 19  3 43 47.0800000  0  4G12G13G 9G 7
  21152379.461    21152385.471     5666316.648 8 -16567776.858 6
  21813022.221    21813028.560    -4378536.943 9  14815223.734 8
  24211948.877    24211957.466    76473623.293 6 -82207187.495 7
  25097925.115    25097931.530   -19836187.630 8  11099283.817 8
 86  6 19  3 43 53.0800000  0  4G12G13G 9G 7
  21154069.707    21154075.880     5675200.654 8 -16560854.245 3
  21814828.957    21814833.388    -4369046.540 9  14822618.862 4
  24216707.101    24216718.122    76498621.685 7 -82187708.260 2
  25095968.247    25095973.164   -19846470.708 8  11091271.015 4
 86  6 19  3 43 59.0800000  0  4G12G13G 9G 7
  21155765.068    21155772.202     5684108.745 9 -16553912.889 7
  21816634.794    21816641.554    -4359553.661 9  14830015.915 7
  24221462.688    24221471.213    76523621.940 8 -82168227.559 6
  25094014.853    25094020.232   -19856735.940 8  11083272.159 7
 86  6 19  3 44  5.0800000  0  4G12G13G 9G 7
  21157465.039    21157472.259     5693040.881 7 -16546952.793 3
  21818441.277    21818446.587    -4350058.212 9  14837414.979 6
  24226221.917    24226230.038    76548624.010 8 -82148745.428 5
  25092065.091    25092070.566   -19866984.229 8  11075286.508 6
 86  6 19  3 44 11.0800000  0  4G12G13G 9G 7
  21159169.825    21159177.115     5701997.045 8 -16539973.936 8
  21820248.642    21820254.452    -4340560.209 8  14844816.009 8
  24230979.950    24230986.546    76573628.044 6 -82129261.782 6
  25090118.326    25090124.527   -19877213.375 8  11067315.718 8
 86  6 19  3 44 17.0800000  0  4G12G13G 9G 7
  21160878.520    21160885.220     5710977.459 9 -16532976.228 7
  21822057.091    21822062.114    -4331059.624 9  14852219.073 8
  24235737.314    24235745.565    76598633.965 7 -82109776.680 7
                  25088183.614                    11059364.968 7
 86  6 19  3 44 23.0800000  0  4G12G13G 9G 7
  21162591.664    21162599.556     5719982.070 8 -16525959.664 6
  21823864.930    21823871.023    -4321556.475 8  14859624.118 8
  24240496.191    24240505.300    76623641.854 6 -82090290.030 5
  25086240.863    25086247.248   -19923738.846 8  11051439.521 8
 86  6 19  3 44 29.0800000  0  4G12G13G 9G 7
  21164310.161    21164316.939     5729010.864 8 -16518924.225 7
  21825674.126    21825679.643    -4312050.575 9  14867031.318 7
  24245255.860    24245264.480    76648651.737 7 -82070801.810 6
  25084310.897    25084320.037   -19933875.102 9  11043541.154 7
 86  6 19  3 44 35.0800000  0  4G12G13G 9G 7
  21166031.437    21166038.624     5738063.888 8 -16511869.932 8
  21827484.648    21827489.298    -4302541.976 8  14874440.615 8
  24250014.345    24250022.968    76673663.635 7 -82051312.061 6
  25082388.325    25082397.611   -19943979.649 9  11035667.484 9
 86  6 19  3 44 41.0800000  0  4G12G13G 9G 7
  21167759.335    21167767.611     5747141.084 9 -16504796.780 7
  21829294.041    21829298.940    -4293030.569 9  14881852.103 8
  24254773.852    24254782.617    76698677.447 6 -82031820.766 6
  25080468.422    25080479.965   -19954057.054 8  11027814.962 8
 86  6 19  3 44 47.0800000  0  4G12G13G 9G 7
  21169492.126    21169499.281     5756242.470 8 -16497704.803 7
  21831103.598    21831109.940    -4283516.522 8  14889265.656 8
  24259535.362    24259543.469    76723693.196 7 -82012327.997 6
  25078557.087    25078566.812   -19964111.580 8  11019980.269 8
 86  6 19  3 44 53.0800000  0  4G12G13G 9G 7
  21171229.075    21171236.136     5765368.003 9 -16490593.989 8
  21832914.288    21832920.429    -4273999.789 8  14896681.283 8
  24264293.971    24264303.542    76748710.827 6 -81992833.755 6
  25076647.792    25076657.522   -19974145.869 9  11012161.327 8
 86  6 19  3 44 59.0800000  0  4G12G13G 9G 7
  21172970.420    21172975.404     5774517.704 8 -16483464.372 8
  21834725.930    21834732.492    -4264480.274 8  14904099.105 8
  24269055.538    24269066.162    76773730.381 7 -81973338.032 7
  25074742.857    25074751.066   -19984162.154 8  11004356.439 8
 86  6 19  3 45  5.0800000  0  4G12G13G 9G 7
  21174715.809    21174719.792     5783691.545 9 -16476315.924 4
  21836537.719    21836542.555    -4254958.030 9  14911519.037 3
  24273816.510    24273824.529    76798751.773 6 -81953840.855 1
  25072840.935    25072844.562   -19994160.963 8  10996565.184 5
 86  6 19  3 45 11.0800000  0  4G12G13G 9G 7
  21176465.505    21176471.902     5792889.471 9 -16469148.710 7
  21838350.382    21838356.636    -4245433.164 9  14918941.015 7
  24278579.377    24278588.054    76823774.873 6 -81934342.334 6
  25070942.765    25070948.279   -20004139.924 9  10988789.350 8
 86  6 19  3 45 17.0800000  0  4G12G13G 9G 7
  21178220.002    21178227.443     5802111.320 9 -16461962.859 7
  21840163.888    21840169.442    -4235905.786 9  14926364.948 8
  24283341.750    24283351.754    76848799.773 6 -81914842.416 3
                  25069053.699                    10981034.157 7
 86  6 19  3 45 23.0800000  0  4G12G13G 9G 7
  21179978.001    21179986.782     5811357.187 8 -16454758.289 8
  21841977.166    21841983.935    -4226375.917 9  14933790.823 8
  24288103.117    24288112.538    76873826.279 6 -81895341.232 5
  25067160.334    25067166.411   -20050422.063 8  10973304.585 7
 86  6 19  3 45 29.0800000  0  4G12G13G 9G 7
  21181741.814    21181748.897     5820627.099 8 -16447534.981 4
  21843790.631    21843796.091    -4216843.492 9  14941218.699 5
  24292865.159    24292868.674    76898854.499 6 -81875838.741 1
  25065277.561    25065285.373   -20060307.047 8  10965602.005 4
 86  6 19  3 45 35.0800000  0  4G12G13G 9G 7
  21183511.359    21183518.758     5829920.972 8 -16440293.015 7
  21845605.927    21845612.304    -4207308.441 9  14948648.609 7
  24297629.328    24297638.235    76923884.208 6 -81856335.119 6
  25063402.075    25063409.734   -20070160.482 9  10957924.009 8
 86  6 19  3 45 41.0800000  0  4G12G13G 9G 7
  21185283.227    21185292.494     5839238.784 8 -16433032.380 7
  21847420.351    21847427.460    -4197770.747 8  14956080.577 7
  24302392.611    24302400.821    76948915.634 6 -81836830.115 5
  25061533.103    25061539.346   -20079987.001 9  10950266.982 8
 86  6 19  3 45 47.0800000  0  4G12G13G 9G 7
  21187061.657    21187070.241     5848580.542 8 -16425753.069 8
  21849234.363    21849242.643    -4188230.522 7  14963514.505 8
  24307155.663    24307164.535    76973948.558 5 -81817323.947 6
  25059668.043    25059674.263   -20089790.868 9  10942627.613 9
 86  6 19  3 45 53.0800000  0  4G12G13G 9G 7
  21188843.526    21188852.008     5857946.213 8 -16418455.155 7
  21851049.365    21851059.116    -4178687.886 8  14970950.316 9
  24311919.846    24311928.660    76998983.051 6 -81797816.596 6
  25057806.952    25057812.570   -20099574.586 9  10935003.948 9
 86  6 19  3 45 59.0800000  0  4G12G13G 9G 7
  21190629.943    21190639.355     5867335.780 8 -16411138.596 6
  21852866.151    21852874.243    -4169142.727 7  14978388.082 6
  24316683.890    24316690.821    77024019.036 6 -81778308.046 3
  25055948.817    25055953.811   -20109340.268 9  10927394.312 6
 86  6 19  3 46  5.0800000  0  4G12G13G 9G 7
  21192421.777    21192430.645     5876749.317 8 -16403803.394 7
  21854683.058    21854691.583    -4159595.082 8  14985827.815 8
  24321448.809    24321457.998    77049056.624 6 -81758798.269 6
  25054093.764    25054100.065   -20119088.396 9  10919798.379 9
 86  6 19  3 46 11.0800000  0  4G12G13G 9G 7
  21194218.459    21194227.936     5886186.766 9 -16396449.526 6
  21856500.163    21856508.522    -4150044.836 8  14993269.574 7
  24326215.486    24326218.576    77074095.587 6 -81739287.373 5
  25052242.069    25052249.786   -20128816.126 9  10912218.334 8
 86  6 19  3 46 17.0800000  0  4G12G13G 9G 7
  21196018.946    21196027.078     5895648.119 8 -16389077.042 7
  21858319.485    21858327.124    -4140492.073 8  15000713.251 6
  24330979.446    24330986.638    77099136.158 6 -81719775.283 4
                  25050403.886                    10904659.520 6
 86  6 19  3 46 23.0800000  0  4G12G13G 9G 7
  21197824.787    21197832.165     5905133.305 8 -16381685.982 7
  21860139.112    21860144.321    -4130936.763 8  15008158.959 8
  24335745.792    24335750.237    77124178.139 6 -81700262.056 6
  25048555.664    25048563.825   -20174835.162 8  10897126.759 8
 86  6 19  3 46 29.0800000  0  4G12G13G 9G 7
  21199634.598    21199641.646     5914642.381 8 -16374276.328 8
  21861957.984    21861963.739    -4121378.901 8  15015606.621 8
  24340510.422    24340517.585    77149221.577 7 -81680747.705 6
  25046723.687    25046730.860   -20184467.428 8  10889621.109 8
 86  6 19  3 46 35.0800000  0  4G12G13G 9G 7
  21201448.325    21201454.139     5924175.285 8 -16366848.099 4
  21863776.247    21863780.881    -4111818.513 9  15023056.275 5
  24345277.541    24345283.632    77174266.501 7 -81661232.196 1
  25044896.785    25044902.566   -20194067.784 9  10882139.933 6
 86  6 19  3 46 41.0800000  0  4G12G13G 9G 7
  21203267.440    21203274.636     5933732.076 8 -16359401.265 5
  21865596.912    21865599.830    -4102255.632 8  15030507.879 5
                  24350044.923    77199312.648 6
  25043074.719    25043080.295   -20203641.995 9  10874679.507 5
 86  6 19  3 46 47.0800000  0  4G12G13G 9G 7
  21205088.787    21205098.694     5943312.677 9 -16351935.858 7
  21867417.020    21867422.751    -4092690.313 9  15037961.351 8
  24354811.611    24354813.609    77224360.227 6 -81595767.218 1
  25041257.738    25041262.994   -20213193.536 9  10867236.746 8
 86  6 19  3 46 53.0800000  0  4G12G13G 9G 7
  21206917.616    21206925.772     5952917.099 9 -16344451.888 8
  21869237.174    21869242.458    -4083122.434 8  15045416.829 7
  24359576.679    24359583.748    77249409.098 7 -81576248.623 3
  25039443.066    25039448.756   -20222724.935 9  10859809.694 8
 86  6 19  3 46 59.0800000  0  4G12G13G 9G 7
  21208749.718    21208755.632     5962545.348 8 -16336949.352 8
  21871057.541    21871064.711    -4073552.060 9  15052874.287 8
  24364343.677    24364348.153    77274459.245 7 -81556729.021 5
  25037632.161    25037637.814   -20232238.119 9  10852396.833 8
 86  6 19  3 47  5.0800000  0  4G12G13G 9G 7
  21210585.296    21210594.486     5972197.378 8 -16329428.304 8
  21872879.445    21872885.615    -4063979.177 9  15060333.655 8
  24369109.844    24369114.969    77299510.744 7 -81537208.440 4
  25035824.967    25035832.860   -20241733.428 8  10844997.885 9
 86  6 19  3 47 11.0800000  0  4G12G13G 9G 7
  21212427.357    21212436.715     5981873.087 8 -16321888.770 6
  21874702.737    21874707.506    -4054403.934 8  15067794.880 7
  24373878.075    24373883.319    77324563.335 8 -81517686.924 2
  25034021.428    25034029.292   -20251207.947 8  10837615.141 7
 86  6 19  3 47 17.0800000  0  4G12G13G 9G 7
  21214272.772    21214277.670     5991572.497 8 -16314330.788 5
  21876524.866    21876529.196    -4044826.207 8  15075258.095 3
  24378645.099    24378651.268    77349617.196 7 -81498164.458 1
                  25032231.385                    10830254.159 4
 86  6 19  3 47 23.0800000  0  4G12G13G 9G 7
  21216123.742    21216132.602     6001295.678 9 -16306754.305 7
  21878349.084    21878354.738    -4035245.912 9  15082723.222 7
  24383412.496    24383420.429    77374672.411 8 -81478640.978 3
  25030432.691    25030442.131   -20296976.251 9  10822919.602 7
 86  6 19  3 47 29.0800000  0  4G12G13G 9G 7
  21217980.060    21217986.499     6011042.606 8 -16299159.296 8
  21880172.762    21880177.740    -4025663.084 9  15090190.369 7
  24388181.321    24388190.054    77399728.661 7 -81459116.658 4
  25028648.813    25028656.955   -20306354.172 9  10815612.142 8
 86  6 19  3 47 35.0800000  0  4G12G13G 9G 7
  21219837.216    21219845.924     6020813.280 8 -16291545.783 7
  21881996.914    21881999.453    -4016077.822 9  15097659.420 6
  24392950.357    24392954.021    77424786.139 7 -81439591.347 2
  25026870.314    25026878.733   -20315700.870 9  10808328.999 7
 86  6 19  3 47 41.0800000  0  4G12G13G 9G 7
  21221702.344    21221709.784     6030607.633 7 -16283913.818 7
  21883820.849    21883825.347    -4006490.097 9  15105130.386 5
  24397718.179    24397723.794    77449844.741 7 -81420065.173 4
  25025098.225    25025104.169   -20325021.123 9  10801066.484 9
 86  6 19  3 47 47.0800000  0  4G12G13G 9G 7
  21223569.949    21223578.052     6040425.641 8 -16276263.440 7
  21885645.942    21885648.644    -3996899.939 9  15112603.234 4
                  24402486.261    77474904.426 6
  25023328.922    25023333.674   -20334318.704 7  10793821.600 7
 86  6 19  3 47 53.0800000  0  4G12G13G 9G 7
  21225442.177    21225449.981     6050267.204 9 -16268594.689 8
  21887470.764    21887476.395    -3987307.406 9  15120077.946 7
  24407253.685    24407263.729    77499965.039 7 -81354590.005 1
  25021562.615    25021568.606   -20343596.106 8  10786592.459 8
 86  6 19  3 47 59.0800000  0  4G12G13G 9G 7
  21227319.363    21227328.730     6060132.392 8 -16260907.534 8
  21889297.099    21889300.535    -3977712.521 9  15127554.474 7
  24412023.433    24412032.565    77525026.715 7 -81335061.390 5
  25019802.070    25019805.642   -20352855.441 8  10779377.400 8
 86  6 19  3 48  5.0800000  0  4G12G13G 9G 7
  21229202.008    21229210.502     6070021.112 8 -16253202.048 8
  21891122.945    21891127.795    -3968115.292 9  15135032.842 8
  24416792.971    24416800.933    77550089.376 7 -81315532.582 4
  25018043.289    25018046.347   -20362096.734 9  10772176.391 8
 86  6 19  3 48 11.0800000  0  4G12G13G 9G 7
  21231089.797    21231096.118     6079933.320 9 -16245478.273 8
  21892950.445    21892953.901    -3958515.657 9  15142513.093 7
  24421562.250    24421571.354    77575152.844 7 -81296002.609 5
                  25016292.064                    10764992.028 7
 86  6 19  3 48 17.0800000  0  4G12G13G 9G 7
  21232980.644    21232985.786     6089869.111 9 -16237736.085 6
  21894777.794    21894782.329    -3948913.691 9  15149995.158 5
  24426332.188    24426341.127    77600217.314 7 -81276471.858 4
  25014573.086    25014543.781   -20407672.373 9  10757829.807 6
 86  6 19  3 48 23.0800000  0  4G12G13G 9G 7
  21234875.291    21234881.435     6099828.437 9 -16229975.576 7
  21896604.980    21896608.044    -3939309.373 9  15157479.050 6
  24431103.182    24431108.958    77625282.842 9 -81256940.320 6
  25012796.314    25012801.118   -20416829.676 8  10750694.493 8
 86  6 19  3 48 29.0800000  0  4G12G13G 9G 7
  21236774.930    21236781.066     6109811.257 8 -16222196.750 7
  21898432.808    21898437.667    -3929702.638 9  15164964.808 7
  24435872.370    24435881.445    77650349.066 8 -81237408.198 5
  25011060.094    25011066.061   -20425951.922 9  10743586.248 8
 86  6 19  3 48 35.0800000  0  4G12G13G 9G 7
  21238678.791    21238684.757     6119817.595 9 -16214399.599 7
  21900261.584    21900265.077    -3920093.616 9  15172452.383 7
  24440642.688    24440650.115    77675416.130 8 -81217875.418 6
  25009330.399    25009336.004   -20435043.706 9  10736502.141 7
 86  6 19  3 48 41.0800000  0  4G12G13G 9G 7
  21240587.221    21240593.098     6129847.417 9 -16206584.131 3
  21902089.653    21902093.477    -3910482.246 9  15179941.761 3
  24445412.803    24445417.537    77700484.044 8 -81198341.990 1
  25007605.789    25007609.790   -20444108.584 9  10729438.612 4
 86  6 19  3 48 47.0800000  0  4G12G13G 9G 7
  21242500.233    21242505.956     6139900.758 9 -16198750.396 3
  21903919.610    21903922.938    -3900868.539 9  15187432.952 4
  24450184.206    24450192.366    77725552.635 8 -81178808.067 1
  25005884.727    25005891.132   -20453150.839 9  10722392.675 3
 86  6 19  3 48 53.0800000  0  4G12G13G 9G 7
  21244417.399    21244423.187     6149977.609 9 -16190898.285 7
  21905749.437    21905754.961    -3891252.454 9  15194926.027 7
  24454953.277    24454962.306    77750622.109 7 -81159273.425 6
  25004166.603    25004173.924   -20462172.915 9  10715362.506 8
 86  6 19  3 48 59.0800000  0  4G12G13G 9G 7
  21246339.732    21246345.489     6160077.852 8 -16183027.958 6
  21907579.804    21907584.528    -3881634.047 9  15202420.884 5
  24459723.979    24459732.000    77775692.297 7 -81139738.235 4
  25002454.843    25002458.535   -20471176.833 9  10708346.463 6
 86  6 19  3 49  5.0800000  0  4G12G13G 9G 7
  21248267.691    21248270.665     6170201.481 7 -16175139.431 3
  21909411.208    21909413.883    -3872013.267 8  15209917.605 3
  24464496.618    24464505.620    77800763.154 9 -81120202.504 1
  25000744.694    25000747.187   -20480162.567 9  10701344.610 5
 86  6 19  3 49 11.0800000  0  4G12G13G 9G 7
  21250197.772    21250201.206     6180348.557 8 -16167232.582 3
  21911241.960    21911245.942    -3862390.142 9  15217416.145 5
  24469265.944    24469274.011    77825834.888 9 -81100666.107 2
                  24999041.816                    10694359.891 3
 86  6 19  3 49 17.0800000  0  4G12G13G 9G 7
  21252132.710    21252139.306     6190519.082 8 -16159307.524 7
  21913074.166    21913079.370    -3852764.677 8  15224916.506 8
  24474036.932    24474044.444    77850907.259 8 -81081129.224 7
  24997358.639    24997344.058   -20525484.490 9  10687397.892 7
 86  6 19  3 49 23.0800000  0  4G12G13G 9G 7
  21254073.078    21254078.462     6200712.986 9 -16151364.226 6
  21914906.322    21914910.222    -3843136.914 8  15232418.662 6
  24478809.433    24478814.602    77875980.469 7 -81061591.651 4
  24995645.399    24995647.359   -20534384.443 9  10680463.138 6
 86  6 19  3 49 29.0800000  0  4G12G13G 9G 7
  21256015.765    21256025.259     6210930.303 8 -16143402.689 7
  21916738.574    21916743.170    -3833506.838 8  15239922.618 8
  24483581.254    24483587.713    77901054.296 9 -81042053.609 6
  24993958.078    24993961.898   -20543249.409 8  10673555.385 7
 86  6 19  3 49 35.0800000  0  4G12G13G 9G 7
  21257964.063    21257971.508     6221171.053 9 -16135422.861 5
  21918570.664    21918577.946    -3823874.435 8  15247428.365 4
  24488351.984    24488360.143    77926128.814 8 -81022515.042 3
  24992277.358    24992280.307   -20552083.435 8  10666671.720 5
 86  6 19  3 49 41.0800000  0  4G12G13G 9G 7
  21259917.850    21259927.149     6231435.193 8 -16127424.875 8
  21920404.016    21920411.653    -3814239.686 8  15254935.961 8
  24493123.108    24493131.051    77951203.914 8 -81002975.997 8
  24990600.932    24990605.941   -20560891.020 9  10659808.666 7
 86  6 19  3 49 47.0800000  0  4G12G13G 9G 7
  21261875.415    21261884.330     6241722.673 8 -16119408.655 7
  21922236.697    21922246.373    -3804602.602 8  15262445.358 7
  24497896.027    24497902.973    77976279.663 8 -80983436.459 6
  24988929.619    24988933.917   -20569676.028 9  10652963.205 7
 86  6 19  3 49 53.0800000  0  4G12G13G 9G 7
  21263838.964    21263847.124     6252033.545 8 -16111374.230 8
  21924071.675    21924080.068    -3794963.221 8  15269956.558 8
  24502667.602    24502673.371    78001355.932 8 -80963896.502 8
  24987262.398    24987265.035   -20578440.926 9  10646133.415 8
 86  6 19  3 49 59.0800000  0  4G12G13G 9G 7
  21265804.720    21265811.812     6262367.664 9 -16103321.675 5
  21925905.133    21925914.840    -3785321.633 8  15277469.459 6
  24507440.084    24507447.061    78026432.713 8 -80944356.166 5
  24985596.950    24985601.773   -20587187.513 9  10639317.880 5
 86  6 19  3 50  5.0800000  0  4G12G13G 9G 7
  21267776.050    21267783.183     6272724.983 8 -16095251.013 8
  21927741.380    21927748.901    -3775677.854 8  15284984.116 9
  24512211.252    24512218.015    78051509.872 9 -80924815.530 8
  24983937.495    24983941.453   -20595915.615 8  10632516.768 8
 86  6 19  3 50 11.0800000  0  4G12G13G 9G 7
  21269750.604    21269758.258     6283105.525 9 -16087162.281 8
  21929576.400    21929585.252    -3766031.756 8  15292500.568 7
  24516983.925    24516990.668    78076587.584 8 -80905274.467 7
  24982280.176    24982284.059   -20604621.177 9  10625733.210 8
 86  6 19  3 50 17.0800000  0  4G12G13G 9G 7
  21271730.778    21271736.042     6293509.190 8 -16079055.520 5
  21931412.638    21931418.220    -3756383.472 8  15300018.724 5
  24521755.000    24521761.696    78101665.646 8 -80885733.098 3
                  24980632.244                    10618972.893 3
 86  6 19  3 50 23.0800000  0  4G12G13G 9G 7
  21273713.095    21273721.169     6303936.067 8 -16070930.675 3
  21933247.779    21933253.878    -3746732.935 8  15307538.619 4
  24526528.466    24526535.209    78126744.041 8 -80866191.525 5
  24978985.294    24978988.018   -20649629.550 7  10612239.966 4
 86  6 19  3 50 29.0800000  0  4G12G13G 9G 7
  21275702.729    21275709.190     6314386.153 8 -16062787.765 6
  21935083.714    21935095.048    -3737080.185 8  15315060.212 9
  24531299.906    24531307.907    78151822.813 8 -80846649.648 7
  24977345.632    24977351.266   -20658235.571 9  10605533.967 8
 86  6 19  3 50 35.0800000  0  4G12G13G 9G 7
  21277695.640    21277702.728     6324859.433 8 -16054626.756 7
  21936921.406    21936931.796    -3727425.227 8  15322583.562 8
  24536072.697    24536081.013    78176901.937 8 -80827107.460 7
  24975713.125    24975720.065   -20666810.793 9  10598851.973 7
 86  6 19  3 50 41.0800000  0  4G12G13G 9G 7
  21279692.418    21279701.327     6335355.893 8 -16046447.699 7
  21938760.505    21938769.004    -3717768.028 8  15330108.647 9
  24540844.395    24540853.324    78201981.430 7 -80807565.014 7
  24974086.791    24974093.736   -20675359.941 8  10592190.309 8
 86  6 19  3 50 47.0800000  0  4G12G13G 9G 7
  21281695.689    21281703.927     6345875.605 9 -16038250.507 4
  21940598.459    21940609.127    -3708108.533 8  15337635.505 5
  24545617.692    24545623.345    78227061.322 9 -80788022.235 3
  24972464.176    24972468.693   -20683886.542 9  10585546.212 4
 86  6 19  3 50 53.0800000  0  4G12G13G 9G 7
  21283702.699    21283708.834     6356418.539 9 -16030035.241 8
  21942438.909    21942445.749    -3698446.770 8  15345164.161 9
  24550390.736    24550397.635    78252141.507 9 -80768479.263 7
  24970845.949    24970852.041   -20692392.896 9  10578917.881 8
 86  6 19  3 50 59.0800000  0  4G12G13G 9G 7
  21285713.094    21285722.045     6366984.638 8 -16021801.928 8
  21944278.441    21944284.379    -3688782.724 9  15352694.588 8
  24555163.652    24555170.816    78277222.017 9 -80748936.017 6
  24969230.680    24969237.634   -20700880.853 9  10572303.874 7
 86  6 19  3 51  5.0800000  0  4G12G13G 9G 7
  21287729.127    21287734.146     6377573.895 8 -16013550.534 6
  21946118.170    21946123.913    -3679116.475 9  15360226.724 6
  24559936.111    24559940.122    78302302.794 7 -80729392.531 6
  24967619.675    24967627.029   -20709349.942 9  10565704.582 5
 86  6 19  3 51 11.0800000  0  4G12G13G 9G 7
  21289748.247    21289753.589     6388186.286 8 -16005281.153 6
  21947958.422    21947962.244    -3669448.013 9  15367760.634 5
  24564710.276    24564715.178    78327383.778 8 -80709848.929 3
                  24966019.478                    10559123.484 4
 86  6 19  3 51 17.0800000  0  4G12G13G 9G 7
  21291771.830    21291779.351     6398821.751 8 -15996993.773 7
  21949799.042    21949802.483    -3659777.272 9  15375296.274 8
  24569481.816    24569489.395    78352465.043 8 -80690305.099 7
  24964447.466    24964418.132   -20754161.649 9  10552565.927 7
 86  6 19  3 51 23.0800000  0  4G12G13G 9G 7
  21293799.229    21293806.473     6409480.356 8 -15988688.382 7
  21951640.287    21951643.277    -3650104.288 9  15382833.654 7
  24574255.526    24574261.459    78377546.463 8 -80670761.170 6
  24962817.087    24962822.128   -20762541.682 9  10546036.083 7
 86  6 19  3 51 29.0800000  0  4G12G13G 9G 7
  21295831.499    21295838.405     6420162.050 8 -15980365.005 8
  21953481.153    21953485.013    -3640429.057 9  15390372.811 7
  24579027.378    24579032.796    78402628.055 8 -80651217.068 7
  24961228.051    24961234.161   -20770886.906 9  10539533.307 7
 86  6 19  3 51 35.0800000  0  4G12G13G 9G 7
  21297868.337    21297876.961     6430866.844 8 -15972023.623 4
  21955322.786    21955326.458    -3630751.537 9  15397913.737 4
  24583799.886    24583807.710    78427709.807 7 -80631672.857 4
  24959645.721    24959649.944   -20779200.862 9  10533054.529 5
 86  6 19  3 51 41.0800000  0  4G12G13G 9G 7
  21299910.191    21299916.540     6441594.683 7 -15963664.273 6
  21957164.919    21957168.100    -3621071.841 8  15405456.363 6
  24588574.016    24588579.305    78452791.792 9 -80612128.460 6
  24958068.258    24958072.951   -20787489.388 9  10526595.930 6
 86  6 19  3 51 47.0800000  0  4G12G13G 9G 7
  21301955.942    21301963.558     6452345.485 8 -15955287.021 7
  21959007.444    21959010.963    -3611389.984 9  15413000.654 9
  24593346.283    24593354.305    78477873.868 7 -80592584.011 7
  24956494.666    24956499.852   -20795755.449 9  10520154.858 7
 86  6 19  3 51 53.0800000  0  4G12G13G 9G 7
  21304007.386    21304011.882     6463119.129 9 -15946891.961 7
  21960849.896    21960854.309    -3601706.025 9  15420546.598 9
  24598118.522    24598127.193    78502955.836 7 -80573039.631 7
  24954926.399    24954930.939   -20804001.536 9  10513729.337 8
 86  6 19  3 51 59.0800000  0  4G12G13G 9G 7
  21306061.525    21306067.315     6473915.700 9 -15938479.054 8
  21962691.677    21962697.031    -3592019.881 8  15428094.247 8
  24602893.523    24602900.208    78528037.811 6 -80553495.236 6
  24953361.650    24953366.496   -20812229.101 8  10507318.241 7
 86  6 19  3 52  5.0800000  0  4G12G13G 9G 7
  21308119.994    21308126.030     6484735.284 8 -15930048.174 4
  21964535.379    21964540.514    -3582331.507 9  15435643.610 6
  24607667.469    24607670.212    78553119.878 7 -80533950.792 5
  24951798.790    24951803.818   -20820437.357 9  10500922.208 5
 86  6 19  3 52 11.0800000  0  4G12G13G 9G 7
  21310183.707    21310190.657     6495577.875 9 -15921599.430 7
  21966380.537    21966383.906    -3572640.959 9  15443194.684 8
  24612437.874    24612446.591    78578201.882 7 -80514406.406 6
                  24950249.228                    10494544.732 7
 86  6 19  3 52 17.0800000  0  4G12G13G 9G 7
  21312249.647    21312256.900     6506443.277 8 -15913132.885 6
  21968224.731    21968228.456    -3562948.312 8  15450747.383 6
  24617212.302    24617218.284    78603283.887 7 -80494862.011 6
  24948690.161    24948697.431   -20864988.926 9  10488191.333 7
 86  6 19  3 52 23.0800000  0  4G12G13G 9G 7
  21314322.639    21314328.990     6517331.498 8 -15904648.543 8
  21970069.415    21970072.902    -3553253.574 8  15458301.734 8
  24621985.379    24621991.554    78628365.697 7 -80475317.762 6
  24947143.759    24947152.896   -20873106.497 9  10481865.867 8
 86  6 19  3 52 29.0800000  0  4G12G13G 9G 7
  21316397.981    21316408.347     6528242.524 9 -15896146.456 4
  21971913.563    21971916.166    -3543556.794 9  15465857.675 3
  24626757.320    24626766.011    78653447.362 6 -80455773.622 3
  24945605.549    24945611.849   -20881189.739 9  10475567.239 5
 86  6 19  3 52 35.0800000  0  4G12G13G 9G 7
  21318479.422    21318486.407     6539176.360 8 -15887626.585 8
  21973759.220    21973764.473    -3533857.880 9  15473415.250 8
  24631530.600    24631537.721    78678528.900 6 -80436229.582 7
  24944072.567    24944081.634   -20889243.090 9  10469292.293 7
 86  6 19  3 52 41.0800000  0  4G12G13G 9G 7
  21320564.745    21320573.010     6550133.050 8 -15879088.905 6
  21975605.146    21975611.588    -3524156.886 9  15480974.479 6
  24636302.189    24636309.699    78703610.307 6 -80416685.583 3
  24942545.185    24942554.914   -20897270.183 7  10463037.422 6
 86  6 19  3 52 47.0800000  0  4G12G13G 9G 7
  21322654.103    21322661.899     6561112.486 8 -15870533.509 8
  21977452.119    21977457.260    -3514453.775 8  15488535.337 8
  24641074.605    24641080.704    78728691.441 6 -80397141.887 5
  24941022.668    24941029.430   -20905274.971 8  10456799.912 8
 86  6 19  3 52 53.0800000  0  4G12G13G 9G 7
  21324748.012    21324754.414     6572114.704 8 -15861960.374 7
  21979299.355    21979302.919    -3504748.658 9  15496097.771 8
  24645849.064    24645854.983    78753772.359 5 -80377598.322 6
  24939502.679    24939509.537   -20913259.647 9  10450578.099 8
 86  6 19  3 52 59.0800000  0  4G12G13G 9G 7
  21326845.372    21326850.280     6583139.602 8 -15853369.541 5
  21981146.214    21981150.449    -3495041.525 9  15503661.749 6
  24650619.255    24650625.508    78778852.916 3 -80358055.029 2
  24937987.621    24937990.789   -20921225.849 8  10444370.662 5
 86  6 19  3 53  5.0800000  0  4G12G13G 9G 7
  21328946.729    21328954.336     6594187.113 8 -15844761.085 7
  21982993.734    21983000.112    -3485332.397 9  15511227.324 8
  24655391.599    24655400.210    78803933.082 6 -80338512.057 6
  24936475.483    24936481.651   -20929172.670 8  10438178.341 7
 86  6 19  3 53 11.0800000  0  4G12G13G 9G 7
  21331053.878    21331061.537     6605257.292 8 -15836134.978 8
  21984841.549    21984848.230    -3475621.243 9  15518794.462 7
  24660164.445    24660172.251    78829012.945 5 -80318969.324 5
                  24934975.246                    10432005.006 7
 86  6 19  3 53 17.0800000  0  4G12G13G 9G 7
  21333165.046    21333171.824     6616350.146 7 -15827491.203 7
  21986689.807    21986696.060    -3465908.050 9  15526363.199 7
  24664935.948    24664946.518    78854092.483 4 -80299426.851 6
  24933393.051    24933473.711   -20973461.248 9  10425856.199 8
 86  6 19  3 53 23.0800000  0  4G12G13G 9G 7
  21335279.632    21335284.988     6627465.721 9 -15818829.721 5
  21988536.887    21988544.143    -3456192.706 9  15533933.591 6
  24669711.071    24669719.482    78879171.659 2 -80279884.655 3
  24931973.416    24931980.107   -20981315.944 9  10419735.552 4
 86  6 19  3 53 29.0800000  0  4G12G13G 9G 7
  21337398.670    21337405.917     6638604.016 8 -15810150.529 6
  21990386.615    21990395.275    -3446475.322 9  15541505.571 6
  24674479.191    24674488.690    78904250.481 5 -80260342.756 4
  24930484.917    24930491.490   -20989136.441 9  10413641.639 6
 86  6 19  3 53 35.0800000  0  4G12G13G 9G 7
  21339524.355    21339530.440     6649765.071 7 -15801453.611 7
  21992235.706    21992243.302    -3436755.790 9  15549079.243 8
  24679253.546    24679262.036    78929329.033 5 -80240801.033 6
  24929002.370    24929008.518   -20996926.591 9  10407571.390 8
 86  6 19  3 53 41.0800000  0  4G12G13G 9G 7
  21341651.333    21341657.422     6660948.837 8 -15792738.997 6
  21994085.950    21994093.193    -3427034.104 8  15556654.586 6
  24684027.927    24684032.458    78954407.101 3 -80221259.720 5
  24927523.305    24927531.114   -21004691.017 9  10401521.212 5
 86  6 19  3 53 47.0800000  0  4G12G13G 9G 7
  21343783.931    21343786.702     6672155.346 7 -15784006.617 1
  21995937.159    21995941.879    -3417310.384 7  15564231.527 5
  24688801.611    24688806.083    78979484.900 5 -80201718.626 1
  24926049.583    24926056.432   -21012433.050 8  10395488.430 6
 86  6 19  3 53 53.0800000  0  4G12G13G 9G 7
  21345920.421    21345923.487     6683384.523 7 -15775256.629 1
  21997788.384    21997793.783    -3407584.508 9  15571810.132 5
  24693572.026    24693578.800    79004562.201 6 -80182177.839 1
  24924579.867    24924586.339   -21020154.879 8  10389471.419 5
 86  6 19  3 53 59.0800000  0  4G12G13G 9G 7
  21348062.195    21348067.164     6694636.306 8 -15766489.004 3
  21999638.669    21999643.163    -3397856.616 9  15579390.324 5
  24698345.027    24698346.326    79029639.081 6 -80162637.432 2
  24923114.071    24923121.951   -21027858.067 8  10383468.930 5
 86  6 19  3 54  5.0800000  0  4G12G13G 9G 7
  21350207.018    21350213.987     6705910.714 8 -15757703.770 8
  22001490.720    22001496.714    -3388126.567 9  15586972.173 8
  24703117.022    24703120.502    79054715.456 5 -80143097.415 4
  24921651.949    24921660.549   -21035541.476 9  10377481.869 8
 86  6 19  3 54 11.0800000  0  4G12G13G 9G 7
  21352356.883    21352363.498     6717207.704 9 -15748900.907 7
  22003342.208    22003350.214    -3378394.432 9  15594555.663 7
  24707889.181    24707892.979    79079791.384 5 -80123557.738 4
                  24920204.570                    10371514.306 7
 86  6 19  3 54 17.0800000  0  4G12G13G 9G 7
  21354511.967    21354517.311     6728527.158 8 -15740080.545 4
  22005193.408    22005201.038    -3368660.296 8  15602140.701 4
  24712659.605    24712661.420    79104866.712 6 -80104018.517 2
  24918745.080    24918751.826   -21079561.062 8  10365571.882 5
 86  6 19  3 54 23.0800000  0  4G12G13G 9G 7
  21356671.099    21356675.959     6739869.034 8 -15731242.714 4
  22007046.398    22007054.142    -3358924.215 8  15609727.229 6
                  24717434.072    79129941.408 7
  24917301.024    24917304.407   -21087151.046 8  10359657.570 4
 86  6 19  3 54 29.0800000  0  4G12G13G 9G 7
  21358832.688    21358838.241     6751233.415 9 -15722387.357 5
  22008900.633    22008907.962    -3349186.141 8  15617315.344 7
  24722201.521    24722208.706    79155015.369 7 -80038532.621 1
  24915863.333    24915867.922   -21094706.812 8  10353769.933 6
 86  6 19  3 54 35.0800000  0  4G12G13G 9G 7
  21361000.101    21361006.378     6762620.245 8 -15713514.506 7
  22010755.116    22010761.312    -3339446.068 8  15624905.016 9
  24726974.958    24726980.742    79180088.718 8 -80018995.007 6
  24914430.535    24914435.800   -21102232.537 9  10347905.745 7
 86  6 19  3 54 41.0800000  0  4G12G13G 9G 7
  21363170.636    21363176.368     6774029.536 8 -15704624.155 7
  22012607.838    22012614.903    -3329704.021 8  15632496.220 8
  24731746.110    24731750.699    79205161.367 7 -79999457.868 5
  24913004.529    24913009.909   -21109732.713 8  10342061.458 9
 86  6 19  3 54 47.0800000  0  4G12G13G 9G 7
  21365345.519    21365351.625     6785461.261 8 -15695716.296 5
  22014463.286    22014468.630    -3319959.989 8  15640088.985 7
  24736517.266    24736520.967    79230233.326 8 -79979921.274 5
  24911581.364    24911586.158   -21117210.556 9  10336234.577 6
 86  6 19  3 54 53.0800000  0  4G12G13G 9G 7
  21367526.354    21367530.484     6796915.490 9 -15686790.958 2
  22016318.821    22016323.048    -3310213.972 8  15647683.274 6
  24741288.715    24741295.419    79255304.690 7 -79960385.144 1
  24910162.408    24910168.537   -21124668.113 9  10330423.491 5
 86  6 19  3 54 59.0800000  0  4G12G13G 9G 7
  21369709.987    21369712.782     6808392.174 8 -15677848.085 5
  22018173.178    22018177.500    -3300465.908 9  15655279.201 5
  24746057.359    24746063.322    79280375.312 8 -79940849.605 2
  24908746.428    24908753.774   -21132106.837 9  10324627.064 6
 86  6 19  3 55  5.0800000  0  4G12G13G 9G 7
  21371898.135    21371904.347     6819891.298 8 -15668887.733 8
  22020028.598    22020033.414    -3290715.798 8  15662876.672 8
  24750829.418    24750835.516    79305445.243 7 -79921314.614 6
  24907333.949    24907341.637   -21139525.421 9  10318846.365 9
 86  6 19  3 55 11.0800000  0  4G12G13G 9G 7
  21374090.241    21374097.066     6831412.848 8 -15659909.907 7
  22021883.182    22021889.657    -3280963.705 9  15670475.710 8
  24755600.677    24755606.877    79330514.461 7 -79901780.168 6
                  24905934.848                    10313085.691 8
 86  6 19  3 55 17.0800000  0  4G12G13G 9G 7
  21376287.998    21376292.177     6842956.717 8 -15650914.686 8
  22023739.428    22023745.821    -3271209.637 8  15678076.291 7
  24760368.833    24760379.999    79355582.831 8 -79882246.381 5
  24904525.498    24904535.359   -21183279.489 8  10307350.436 7
 86  6 19  3 55 23.0800000  0  4G12G13G 9G 7
  21378487.818    21378494.799     6854522.880 9 -15641902.103 5
  22025596.873    22025602.412    -3261453.625 9  15685678.383 8
  24765140.408    24765147.049    79380650.269 7 -79862713.307 5
  24903132.813    24903140.860   -21190603.346 8  10301643.543 6
 86  6 19  3 55 29.0800000  0  4G12G13G 9G 7
  21380694.425    21380698.722     6866111.342 9 -15632872.123 7
  22027454.397    22027458.337    -3251695.583 8  15693282.051 8
  24769909.579    24769916.327    79405716.895 8 -79843180.882 5
  24901745.070    24901752.654   -21197892.960 9  10295963.323 8
 86  6 19  3 55 35.0800000  0  4G12G13G 9G 7
  21382903.132    21382908.781     6877722.194 9 -15623824.710 8
  22029310.683    22029316.535    -3241935.519 9  15700887.289 8
  24774678.801    24774686.759    79430782.620 8 -79823649.156 6
  24900364.253    24900371.159   -21205152.763 9  10290306.349 7
 86  6 19  3 55 41.0800000  0  4G12G13G 9G 7
  21385117.238    21385122.770     6889355.352 8 -15614759.921 5
  22031168.033    22031171.946    -3232173.567 9  15708494.021 5
  24779448.303    24779456.699    79455847.446 7 -79804118.131 1
  24898987.869    24898993.308   -21212387.174 8  10284669.158 4
 86  6 19  3 55 47.0800000  0  4G12G13G 9G 7
  21387335.732    21387341.804     6901010.776 8 -15605677.780 8
  22033025.121    22033030.818    -3222409.655 9  15716102.253 7
  24784218.882    24784226.594    79480911.339 8 -79784587.819 6
  24897615.886    24897621.619   -21219599.269 8  10279049.344 8
 86  6 19  3 55 53.0800000  0  4G12G13G 9G 7
  21389557.279    21389564.708     6912688.361 9 -15596578.348 6
  22034883.644    22034889.296    -3212643.879 9  15723711.947 9
  24788987.683    24788994.887    79505974.299 8 -79765058.256 4
  24896246.821    24896253.053   -21226791.272 9  10273445.193 7
 86  6 19  3 55 59.0800000  0  4G12G13G 9G 7
  21391784.564    21391790.304     6924388.212 9 -15587461.588 7
  22036742.482    22036747.772    -3202876.199 9  15731323.129 8
  24793756.067    24793764.552    79531036.274 8 -79745529.443 6
  24894880.684    24894886.751   -21233964.441 8  10267855.725 8
 86  6 19  3 56  5.0800000  0  4G12G13G 9G 7
  21394014.524    21394019.427     6936110.276 8 -15578327.499 4
  22038600.567    22038608.200    -3193106.580 8  15738935.813 6
  24798526.197    24798534.596    79556097.301 8 -79726001.372 2
  24893519.890    24893526.691   -21241117.056 8  10262282.268 6
 86  6 19  3 56 11.0800000  0  4G12G13G 9G 7
  21396248.679    21396255.520     6947854.489 8 -15569176.156 7
  22040460.361    22040466.704    -3183334.958 8  15746550.070 8
  24803294.687    24803302.946    79581157.291 7 -79706474.107 6
                  24892170.680                    10256729.197 7
 86  6 19  3 56 17.0800000  0  4G12G13G 9G 7
  21398487.906    21398493.137     6959620.918 8 -15560007.515 7
  22042321.075    22042326.120    -3173561.341 8  15754165.868 9
  24808064.263    24808071.684    79606216.167 7 -79686947.718 7
  24890813.792    24890820.512   -21284612.089 8  10251202.131 8
 86  6 19  3 56 23.0800000  0  4G12G13G 9G 7
  21400730.468    21400735.751     6971409.569 8 -15550821.548 6
  22044181.905    22044187.328    -3163785.706 9  15761783.261 8
  24812832.149    24812840.389    79631274.013 8 -79667422.133 7
  24889471.544    24889478.941   -21291668.588 9  10245703.544 7
 86  6 19  3 56 29.0800000  0  4G12G13G 9G 7
  21402978.388    21402985.128     6983220.481 8 -15541618.241 8
  22046042.868    22046046.349    -3154008.097 9  15769402.173 9
  24817600.053    24817607.433    79656330.844 8 -79647897.326 7
  24888136.935    24888142.487   -21298690.487 9  10240231.543 7
 86  6 19  3 56 35.0800000  0  4G12G13G 9G 7
  21405230.566    21405235.714     6995053.580 8 -15532397.660 7
  22047903.194    22047909.087    -3144228.564 9  15777022.591 8
  24822366.928    24822375.136    79681386.576 8 -79628373.387 7
  24886806.285    24886811.250   -21305683.246 9  10234782.627 7
 86  6 19  3 56 41.0800000  0  4G12G13G 9G 7
  21407486.530    21407490.315     7006908.775 8 -15523159.826 3
  22049765.252    22049771.210    -3134447.018 9  15784644.556 4
  24827135.432    24827144.561    79706441.223 9 -79608850.290 3
  24885479.871    24885484.526   -21312650.698 9  10229353.432 5
 86  6 19  3 56 47.0800000  0  4G12G13G 9G 7
  21409745.548    21409752.070     7018786.155 8 -15513904.729 4
  22051626.617    22051632.682    -3124663.545 8  15792268.038 7
  24831902.740    24831910.902    79731494.744 8 -79589328.073 5
  24884158.388    24884162.719   -21319595.759 9  10223941.712 3
 86  6 19  3 56 53.0800000  0  4G12G13G 9G 7
  21412010.412    21412017.535     7030685.647 8 -15504632.396 7
  22053489.200    22053494.988    -3114878.233 8  15799892.964 9
  24836670.425    24836677.820    79756547.038 9 -79569806.805 7
  24882839.786    24882844.437   -21326520.645 9  10218545.679 8
 86  6 19  3 56 59.0800000  0  4G12G13G 9G 7
  21414278.063    21414285.849     7042607.159 8 -15495342.897 5
  22055351.259    22055357.314    -3105091.115 9  15807519.290 5
  24841436.800    24841445.259    79781598.161 9 -79550286.413 5
  24881526.146    24881532.432   -21333426.552 9  10213164.454 6
 86  6 19  3 57  5.0800000  0  4G12G13G 9G 7
  21416553.063    21416558.380     7054550.534 8 -15486036.384 6
  22057213.563    22057220.712    -3095302.162 8  15815147.025 7
  24846203.727    24846213.036    79806647.926 8 -79530767.189 6
  24880215.204    24880220.131   -21340311.668 9  10207799.425 6
 86  6 19  3 57 11.0800000  0  4G12G13G 9G 7
  21418829.752    21418835.352     7066515.787 8 -15476712.818 7
  22059076.505    22059082.737    -3085511.381 8  15822776.203 9
  24850971.121    24850979.016    79831696.333 9 -79511248.956 7
                  24878915.916                    10202455.290 8
 86  6 19  3 57 17.0800000  0  4G12G13G 9G 7
  21421110.627    21421117.812     7078502.912 9 -15467372.198 6
  22060940.397    22060946.421    -3075718.781 8  15830406.804 8
  24855737.392    24855746.318    79856743.404 9 -79491731.765 8
  24877609.840    24877617.319   -21383537.140 8  10197137.395 7
 86  6 19  3 57 23.0800000  0  4G12G13G 9G 7
  21423397.148    21423401.900     7090512.022 8 -15458014.464 7
  22062803.993    22062810.647    -3065924.435 9  15838038.765 8
  24860502.107    24860511.920    79881789.017 9 -79472215.743 7
  24876319.447    24876325.657   -21390325.237 8  10191847.976 7
 86  6 19  3 57 29.0800000  0  4G12G13G 9G 7
  21425685.500    21425692.720     7102542.927 9 -15448639.735 7
  22064666.592    22064673.886    -3056128.289 8  15845672.121 8
  24865269.835    24865277.797    79906833.212 8 -79452700.823 7
  24875033.393    24875041.483   -21397079.948 9  10186584.965 8
 86  6 19  3 57 35.0800000  0  4G12G13G 9G 7
  21427979.326    21427986.088     7114595.663 9 -15439247.991 7
  22066532.004    22066538.720    -3046330.467 8  15853306.792 9
  24870033.857    24870042.598    79931875.892 8 -79433187.059 7
  24873754.686    24873761.741   -21403804.764 9  10181344.867 8
 86  6 19  3 57 41.0800000  0  4G12G13G 9G 7
  21430275.842    21430282.512     7126670.219 8 -15429839.250 8
  22068395.069    22068403.773    -3036530.854 8  15860942.864 8
  24874798.939    24874806.826    79956917.193 9 -79413674.333 7
  24872479.365    24872486.396   -21410504.610 8  10176124.200 7
 86  6 19  3 57 47.0800000  0  4G12G13G 9G 7
  21432578.347    21432585.982     7138766.559 9 -15420413.529 7
  22070261.073    22070269.262    -3026729.488 9  15868580.282 8
  24879563.862    24879573.104    79981956.967 9 -79394162.829 7
  24871209.463    24871216.040   -21417182.115 8  10170920.957 8
 86  6 19  3 57 53.0800000  0  4G12G13G 9G 7
  21434884.140    21434889.612     7150884.773 8 -15410970.760 7
  22072126.975    22072133.759    -3016926.304 8  15876219.127 7
  24884329.033    24884338.076    80006995.297 8 -79374652.441 8
  24869942.746    24869948.771   -21423839.519 9  10165733.367 8
 86  6 19  3 57 59.0800000  0  4G12G13G 9G 7
  21437194.591    21437200.669     7163024.755 8 -15401511.017 6
  22073992.453    22073998.190    -3007121.294 8  15883859.391 6
  24889092.629    24889100.667    80032032.149 9 -79355143.213 4
  24868680.562    24868684.621   -21430477.754 9  10160560.707 6
 86  6 19  3 58  5.0800000  0  4G12G13G 9G 7
  21439508.580    21439515.149     7175186.543 8 -15392034.306 5
  22075858.556    22075865.356    -2997314.441 9  15891501.105 5
  24893857.037    24893864.300    80057067.467 9 -79335635.170 5
  24867420.695    24867426.266   -21437094.727 8  10155404.630 4
 86  6 19  3 58 11.0800000  0  4G12G13G 9G 7
  21441826.586    21441832.183     7187370.154 8 -15382540.593 7
  22077726.756    22077731.396    -2987505.723 9  15899144.262 8
  24898620.988    24898629.508    80082101.226 8 -79316128.342 8
                  24866171.292                    10150269.873 7
 86  6 19  3 58 17.0800000  0  4G12G13G 9G 7
  21444149.395    21444155.449     7199575.568 8 -15373029.869 7
  22079592.731    22079597.079    -2977695.083 9  15906788.930 8
  24903384.747    24903392.214    80107133.566 8 -79296622.631 8
  24864920.255    24864921.395   -21480056.687 8  10145161.787 7
 86  6 19  3 58 23.0800000  0  4G12G13G 9G 7
  21446477.391    21446482.300     7211802.826 8 -15363502.129 7
  22081460.424    22081464.827    -2967882.660 9  15914434.972 8
  24908147.628    24908154.622    80132164.291 9 -79277118.179 7
  24863678.083    24863683.539   -21486575.346 9  10140082.309 7
 86  6 19  3 58 29.0800000  0  4G12G13G 9G 7
  21448806.537    21448813.401     7224051.893 8 -15353957.412 7
  22083327.646    22083331.807    -2958068.340 9  15922082.519 8
  24912911.252    24912918.701    80157193.535 9 -79257614.880 8
  24862443.601    24862448.799   -21493060.154 9  10135029.217 7
 86  6 19  3 58 35.0800000  0  4G12G13G 9G 7
  21451142.386    21451147.125     7236322.748 9 -15344395.719 8
  22085196.571    22085200.257    -2948252.158 9  15929731.489 7
  24917673.669    24917681.442    80182221.175 9 -79238112.812 8
  24861213.811    24861221.667   -21499515.641 8  10129998.961 7
 86  6 19  3 58 41.0800000  0  4G12G13G 9G 7
  21453482.167    21453485.457     7248615.499 8 -15334816.946 4
  22087065.865    22087068.527    -2938434.067 9  15937381.951 5
  24922436.512    24922443.255    80207247.293 8 -79218611.959 5
  24859990.605    24859996.166   -21505945.976 9  10124988.298 6
 86  6 19  3 58 47.0800000  0  4G12G13G 9G 7
  21455825.834    21455830.243     7260930.016 9 -15325221.231 8
  22088934.259    22088937.325    -2928614.151 9  15945033.832 8
  24927197.836    24927205.726    80232271.852 9 -79199112.310 8
  24858770.269    24858778.173   -21512354.013 9  10119995.036 8
 86  6 19  3 58 53.0800000  0  4G12G13G 9G 7
  21458172.531    21458177.972     7273266.245 8 -15315608.559 5
  22090803.325    22090806.139    -2918792.370 9  15952687.186 3
  24931959.502    24931966.898    80257294.679 9 -79179613.995 3
  24857555.791    24857561.115   -21518741.868 8  10115017.489 3
 86  6 19  3 58 59.0800000  0  4G12G13G 9G 7
  21460523.297    21460529.612     7285624.117 9 -15305979.078 6
  22092672.457    22092676.231    -2908968.827 8  15960341.881 7
  24936720.889    24936727.881    80282315.764 9 -79160117.087 8
  24856344.795    24856351.515   -21525110.338 9  10110055.056 7
 86  6 19  3 59  5.0800000  0  4G12G13G 9G 7
  21462880.135    21462884.540     7298003.606 9 -15296332.721 5
  22094541.977    22094546.621    -2899143.438 8  15967998.045 3
  24941481.964    24941486.909    80307335.135 9 -79140621.454 3
  24855137.394    24855143.138   -21531457.310 8  10105109.371 4
 86  6 19  3 59 11.0800000  0  4G12G13G 9G 7
  21465238.602    21465244.676     7310404.601 8 -15286669.610 6
  22096411.044    22096416.929    -2889316.261 9  15975655.557 7
  24946242.924    24946250.234    80332352.787 8 -79121127.207 7
                  24853942.568                    10100185.541 7
 86  6 19  3 59 17.0800000  0  4G12G13G 9G 7
  21467602.772    21467608.762     7322827.173 8 -15276989.676 2
  22098280.372    22098286.614    -2879487.190 7  15983314.566 4
  24951003.415    24951011.428    80357368.744 8 -79101634.266 5
  24852738.351    24852743.370   -21574144.466 7  10095288.711 6
 86  6 19  3 59 23.0800000  0  4G12G13G 9G 7
  21469970.846    21469977.865     7335271.263 9 -15267292.989 7
  22100152.158    22100158.499    -2869656.423 8  15990974.923 7
  24955762.678    24955771.201    80382382.717 9 -79082142.876 7
  24851550.039    24851558.152   -21580392.017 9  10090420.503 8
 86  6 19  3 59 29.0800000  0  4G12G13G 9G 7
  21472342.088    21472348.240     7347736.967 9 -15257579.436 6
  22102022.173    22102028.484    -2859823.910 9  15998636.618 6
  24960522.493    24960529.413    80407394.935 8 -79062652.826 5
  24850367.834    24850372.587   -21586605.818 8  10085578.580 5
 86  6 19  3 59 35.0800000  0  4G12G13G 9G 7
  21474718.724    21474725.295     7360224.171 9 -15247849.150 7
  22103893.496    22103901.187    -2849989.689 8  16006299.642 8
  24965281.470    24965289.557    80432405.299 8 -79043164.243 8
  24849190.463    24849195.318   -21592790.521 9  10080759.325 8
 86  6 19  3 59 41.0800000  0  4G12G13G 9G 7
  21477099.004    21477104.787     7372732.900 8 -15238102.070 4
  22105765.922    22105769.732    -2840153.761 9  16013964.033 3
  24970040.832    24970050.113    80457413.810 7 -79023677.119 5
  24848019.895    24848022.212   -21598950.342 9  10075959.486 3
 86  6 19  3 59 47.0800000  0  3G12G13G 7
  21479483.986    21479489.947     7385263.121 7 -15228338.260 1
  22107638.143    22107642.975    -2830316.058 8  16021629.754 2
  24846851.312    24846853.293   -21605087.957 8  10071176.863 1
 86  6 19  3 59 53.0800000  0  3G12G13G 7
  21481872.428    21481879.089     7397814.796 9 -15218557.767 8
  22109511.743    22109516.537    -2820476.606 9  16029296.878 7
  24845686.200    24845690.901   -21611205.495 9  10066410.006 8
